[[{"header":{"parameterUnit":"m.s-1","parameterCategory":1,"la1":30.6,"la2":28.766,"lo1":-90.7593,"lo2":-88.6598,"dx":0.0162,"dy":0.0183,"nx":116,"ny":114,"refTime":"2022-12-13T06:00:00:Z","depth":0,"parameterNumber":2,"parameterNumberName":"U-component_of_WINDS"},"data":[0.0,0.0,0.0,0.0,0.0,0.0,0.0,0.0,0.0,0.0,0.0,0.0,0.0,0.0,0.0,0.0,0.0,0.0,0.0,0.0,0.0,0.0,0.0,0.0,0.0,0.0,0.0,0.0,0.0,0.0,0.0,0.0,0.0,0.0,0.0,0.0,0.0,0.0,0.0,0.0,0.0,0.0,0.0,0.0,0.0,0.0,0.0,0.0,0.0,0.0,0.0,0.0,0.0,0.0,0.0,0.0,0.0,0.0,0.0,0.0,0.0,0.0,0.0,0.0,0.0,0.0,0.0,0.0,0.0,0.0,0.0,0.0,0.0,0.0,0.0,0.0,0.0,0.0,0.0,0.0,0.0,0.0,0.0,0.0,0.0,0.0,0.0,0.0,0.0,0.0,0.0,0.0,0.0,0.0,0.0,0.0,0.0,0.0,0.0,0.0,0.0,0.0,0.0,0.0,0.0,0.0,0.0,0.0,0.0,0.0,0.0,0.0,0.0,0.0,0.0,0.0,0.0,0.0,0.0,0.0,0.0,0.0,0.0,0.0,0.0,0.0,0.0,0.0,0.0,0.0,0.0,0.0,0.0,0.0,0.0,0.0,0.0,0.0,0.0,0.0,0.0,0.0,0.0,0.0,0.0,0.0,0.0,0.0,0.0,0.0,0.0,0.0,0.0,0.0,0.0,0.0,0.0,0.0,0.0,0.0,0.0,0.0,0.0,0.0,0.0,0.0,0.0,0.0,0.0,0.0,0.0,0.0,0.0,0.0,0.0,0.0,0.0,0.0,0.0,0.0,0.0,0.0,0.0,0.0,0.0,0.0,0.0,0.0,0.0,0.0,0.0,0.0,0.0,0.0,0.0,0.0,0.0,0.0,0.0,0.0,0.0,0.0,0.0,0.0,0.0,0.0,0.0,0.0,0.0,0.0,0.0,0.0,0.0,0.0,0.0,0.0,0.0,0.0,0.0,0.0,0.0,0.0,0.0,0.0,0.0,0.0,0.0,0.0,0.0,0.0,0.0,0.0,0.0,0.0,0.0,0.0,0.0,0.0,0.0,0.0,0.0,0.0,0.0,0.0,0.0,0.0,0.0,0.0,0.0,0.0,0.0,0.0,0.0,0.0,0.0,0.0,0.0,0.0,0.0,0.0,0.0,0.0,0.0,0.0,0.0,0.0,0.0,0.0,0.0,0.0,0.0,0.0,0.0,0.0,0.0,0.0,0.0,0.0,0.0,0.0,0.0,0.0,0.0,0.0,0.0,0.0,0.0,0.0,0.0,0.0,0.0,0.0,0.0,0.0,0.0,0.0,0.0,0.0,0.0,0.0,0.0,0.0,0.0,0.0,0.0,0.0,0.0,0.0,0.0,0.0,0.0,0.0,0.0,0.0,0.0,0.0,0.0,0.0,0.0,0.0,0.0,0.0,0.0,0.0,0.0,0.0,0.0,0.0,0.0,0.0,0.0,0.0,0.0,0.0,0.0,0.0,0.0,0.0,0.0,0.0,0.0,0.0,0.0,0.0,0.0,0.0,0.0,0.0,0.0,0.0,0.0,0.0,0.0,0.0,0.0,0.0,0.0,0.0,0.0,0.0,0.0,0.0,0.0,0.0,0.0,0.0,0.0,0.0,0.0,0.0,0.0,0.0,0.0,0.0,0.0,0.0,0.0,0.0,0.0,0.0,0.0,0.0,0.0,0.0,0.0,0.0,0.0,0.0,0.0,0.0,0.0,0.0,0.0,0.0,0.0,0.0,0.0,0.0,0.0,0.0,0.0,0.0,0.0,0.0,0.0,0.0,0.0,0.0,0.0,0.0,0.0,0.0,0.0,0.0,0.0,0.0,0.0,0.0,0.0,0.0,0.0,0.0,0.0,0.0,0.0,0.0,0.0,0.0,0.0,0.0,0.0,0.0,0.0,0.0,0.0,0.0,0.0,0.0,0.0,0.0,0.0,0.0,0.0,0.0,0.0,0.0,0.0,0.0,0.0,0.0,0.0,0.0,0.0,0.0,0.0,0.0,0.0,0.0,0.0,0.0,0.0,0.0,0.0,0.0,0.0,0.0,0.0,0.0,0.0,0.0,0.0,0.0,0.0,0.0,0.0,0.0,0.0,0.0,0.0,0.0,0.0,0.0,0.0,0.0,0.0,0.0,0.0,0.0,0.0,0.0,0.0,0.0,0.0,0.0,0.0,0.0,0.0,0.0,0.0,0.0,0.0,0.0,0.0,0.0,0.0,0.0,0.0,0.0,0.0,0.0,0.0,0.0,0.0,0.0,0.0,0.0,0.0,0.0,0.0,0.0,0.0,0.0,0.0,0.0,0.0,0.0,0.0,0.0,0.0,0.0,0.0,0.0,0.0,0.0,0.0,0.0,0.0,0.0,0.0,0.0,0.0,0.0,0.0,0.0,0.0,0.0,0.0,0.0,0.0,0.0,0.0,0.0,0.0,0.0,0.0,0.0,0.0,0.0,0.0,0.0,0.0,0.0,0.0,0.0,0.0,0.0,0.0,0.0,0.0,0.0,0.0,0.0,0.0,0.0,0.0,0.0,0.0,0.0,0.0,0.0,0.0,0.0,0.0,0.0,0.0,0.0,0.0,0.0,0.0,0.0,0.0,0.0,0.0,0.0,0.0,0.0,0.0,0.0,0.0,0.0,0.0,0.0,0.0,0.0,0.0,0.0,0.0,0.0,0.0,0.0,0.0,0.0,0.0,0.0,0.0,0.0,0.0,0.0,0.0,0.0,0.0,0.0,0.0,0.0,0.0,0.0,0.0,0.0,0.0,0.0,0.0,0.0,0.0,0.0,0.0,0.0,0.0,0.0,0.0,0.0,0.0,0.0,0.0,0.0,0.0,0.0,0.0,0.0,0.0,0.0,0.0,0.0,0.0,0.0,0.0,0.0,0.0,0.0,0.0,0.0,0.0,0.0,0.0,0.0,0.0,0.0,0.0,0.0,0.0,0.0,0.0,0.0,0.0,0.0,0.0,0.0,0.0,0.0,0.0,0.0,0.0,0.0,0.0,0.0,0.0,0.0,0.0,0.0,0.0,0.0,0.0,0.0,0.0,0.0,0.0,0.0,0.0,0.0,0.0,0.0,0.0,0.0,0.0,0.0,0.0,0.0,0.0,0.0,0.0,0.0,0.0,0.0,0.0,0.0,0.0,0.0,0.0,0.0,0.0,0.0,0.0,0.0,0.0,0.0,0.0,0.0,0.0,0.0,0.0,0.0,0.0,0.0,0.0,0.0,0.0,0.0,0.0,0.0,0.0,0.0,0.0,0.0,0.0,0.0,0.0,0.0,0.0,0.0,0.0,0.0,0.0,0.0,0.0,0.0,0.0,0.0,0.0,0.0,0.0,0.0,0.0,0.0,0.0,0.0,0.0,0.0,0.0,0.0,0.0,0.0,0.0,0.0,0.0,0.0,0.0,0.0,0.0,0.0,0.0,0.0,0.0,0.0,0.0,0.0,0.0,0.0,0.0,0.0,0.0,0.0,0.0,0.0,0.0,0.0,0.0,0.0,0.0,0.0,0.0,0.0,0.0,0.0,0.0,0.0,0.0,0.0,0.0,0.0,0.0,0.0,0.0,0.0,0.0,0.0,0.0,0.0,0.0,0.0,0.0,0.0,0.0,0.0,0.0,0.0,0.0,0.0,0.0,0.0,0.0,0.0,0.0,0.0,0.0,0.0,0.0,0.0,0.0,0.0,0.0,0.0,0.0,0.0,0.0,0.0,0.0,0.0,0.0,0.0,0.0,0.0,0.0,0.0,0.0,0.0,0.0,0.0,0.0,0.0,0.0,0.0,0.0,0.0,0.0,0.0,0.0,0.0,0.0,0.0,0.0,0.0,0.0,0.0,0.0,0.0,0.0,0.0,0.0,0.0,0.0,0.0,0.0,0.0,0.0,0.0,0.0,0.0,0.0,0.0,0.0,0.0,0.0,0.0,0.0,0.0,0.0,0.0,0.0,0.0,0.0,0.0,0.0,0.0,0.0,0.0,0.0,0.0,0.0,0.0,0.0,0.0,0.0,0.0,0.0,0.0,0.0,0.0,0.0,0.0,0.0,0.0,0.0,0.0,0.0,0.0,0.0,0.0,0.0,0.0,0.0,0.0,0.0,0.0,0.0,0.0,0.0,0.0,0.0,0.0,0.0,0.0,0.0,0.0,0.0,0.0,0.0,0.0,0.0,0.0,0.0,0.0,0.0,0.0,0.0,0.0,0.0,0.0,0.0,0.0,0.0,0.0,0.0,0.0,0.0,0.0,0.0,0.0,0.0,0.0,0.0,0.0,0.0,0.0,0.0,0.0,0.0,0.0,0.0,0.0,0.0,0.0,0.0,0.0,0.0,0.0,0.0,0.0,0.0,0.0,0.0,0.0,0.0,0.0,0.0,0.0,0.0,0.0,0.0,0.0,0.0,0.0,0.0,0.0,0.0,0.0,0.0,0.0,0.0,0.0,0.0,0.0,0.0,0.0,0.0,0.0,0.0,0.0,0.0,0.0,0.0,0.0,0.0,0.0,0.0,0.0,0.0,0.0,0.0,0.0,0.0,0.0,0.0,0.0,0.0,0.0,0.0,0.0,0.0,0.0,0.0,0.0,0.0,0.0,0.0,0.0,0.0,0.0,0.0,0.0,0.0,0.0,0.0,0.0,0.0,0.0,0.0,0.0,0.0,0.0,0.0,0.0,0.0,0.0,0.0,0.0,0.0,0.0,0.0,0.0,0.0,0.0,0.0,0.0,0.0,0.0,0.0,0.0,0.0,0.0,0.0,0.0,0.0,0.0,0.0,0.0,0.0,0.0,0.0,0.0,0.0,0.0,0.0,0.0,0.0,0.0,0.0,0.0,0.0,0.0,0.0,0.0,0.0,0.0,0.0,0.0,0.0,0.0,0.0,0.0,0.0,0.0,0.0,0.0,0.0,0.0,0.0,0.0,0.0,0.0,0.0,0.0,0.0,0.0,0.0,0.0,0.0,0.0,0.0,0.0,0.0,0.0,0.0,0.0,0.0,0.0,0.0,0.0,0.0,0.0,0.0,0.0,0.0,0.0,0.0,0.0,0.0,0.0,0.0,0.0,0.0,0.0,0.0,0.0,0.0,0.0,0.0,0.0,0.0,0.0,0.0,0.0,0.0,0.0,0.0,0.0,0.0,0.0,0.0,0.0,0.0,0.0,0.0,0.0,0.0,0.0,0.0,0.0,0.0,0.0,0.0,0.0,0.0,0.0,0.0,0.0,0.0,0.0,0.0,0.0,0.0,0.0,0.0,0.0,0.0,0.0,0.0,0.0,0.0,0.0,0.0,0.0,0.0,0.0,0.0,0.0,0.0,0.0,0.0,0.0,0.0,0.0,0.0,0.0,0.0,0.0,0.0,0.0,0.0,0.0,0.0,0.0,0.0,0.0,0.0,0.0,0.0,0.0,0.0,0.0,0.0,0.0,0.0,0.0,0.0,0.0,0.0,0.0,0.0,0.0,0.0,0.0,0.0,0.0,0.0,0.0,0.0,0.0,0.0,0.0,0.0,0.0,0.0,0.0,0.0,0.0,0.0,0.0,0.0,0.0,0.0,0.0,0.0,0.0,0.0,0.0,0.0,0.0,0.0,0.0,0.0,0.0,0.0,0.0,0.0,0.0,0.0,0.0,0.0,0.0,0.0,0.0,0.0,0.0,0.0,0.0,0.0,0.0,0.0,0.0,0.0,0.0,0.0,0.0,0.0,0.0,0.0,0.0,0.0,0.0,0.0,0.0,0.0,0.0,0.0,0.0,0.0,0.0,0.0,0.0,0.0,0.0,0.0,0.0,0.0,0.0,0.0,0.0,0.0,0.0,0.0,0.0,0.0,0.0,0.0,0.0,0.0,0.0,0.0,0.0,0.0,0.0,0.0,0.0,0.0,0.0,0.0,0.0,0.0,0.0,0.0,0.0,0.0,0.0,0.0,0.0,0.0,0.0,0.0,0.0,0.0,0.0,0.0,0.0,0.0,0.0,0.0,0.0,0.0,0.0,0.0,0.0,0.0,0.0,0.0,0.0,0.0,0.0,0.0,0.0,0.0,0.0,0.0,0.0,0.0,0.0,0.0,0.0,0.0,0.0,0.0,0.0,3.7619,3.4847,0.0,0.0,0.0,0.0,0.0,0.0,0.0,0.0,0.0,0.0,0.0,0.0,0.0,0.0,0.0,0.0,0.0,0.0,0.0,0.0,0.0,0.0,0.0,1.6593,1.6737,1.7029,1.7144,0.0,0.0,0.0,0.0,0.0,0.0,0.0,0.0,0.0,1.861,2.0294,2.0877,2.2899,2.6185,2.5317,2.4383,2.3435,0.0,0.0,0.0,0.0,0.0,0.0,0.0,0.0,0.0,0.0,0.0,0.0,0.0,0.0,0.0,0.0,0.0,0.0,0.0,0.0,0.0,0.0,0.0,0.0,0.0,0.0,0.0,0.0,0.0,0.0,0.0,0.0,0.0,0.0,0.0,0.0,0.0,0.0,0.0,0.0,0.0,0.0,0.0,0.0,0.0,0.0,0.0,0.0,0.0,0.0,0.0,0.0,0.0,0.0,0.0,0.0,0.0,0.0,0.0,0.0,0.0,0.0,0.0,0.0,0.0,0.0,0.0,0.0,0.0,0.0,4.0799,3.9137,0.0,0.0,0.0,0.0,0.0,0.0,0.0,0.0,0.0,0.0,0.0,0.0,0.0,0.0,0.0,0.0,0.0,0.0,0.0,0.0,0.0,1.6524,1.7208,1.7282,1.7575,1.8313,1.8312,1.8409,1.8582,1.8507,0.0,0.0,0.0,0.0,1.8204,1.8801,2.0623,2.3603,2.453,2.7156,3.1225,3.2176,3.1079,2.8111,2.6578,0.0,0.0,0.0,0.0,0.0,0.0,0.0,0.0,0.0,0.0,0.0,0.0,0.0,0.0,0.0,0.0,0.0,0.0,0.0,0.0,0.0,0.0,0.0,0.0,0.0,0.0,0.0,0.0,0.0,0.0,0.0,0.0,0.0,0.0,0.0,0.0,0.0,0.0,0.0,0.0,0.0,0.0,0.0,0.0,0.0,0.0,0.0,0.0,0.0,0.0,0.0,0.0,0.0,0.0,0.0,0.0,0.0,0.0,0.0,0.0,0.0,0.0,0.0,4.1954,4.284,4.362,4.4364,4.5346,4.6499,4.4061,4.3762,4.4814,4.0641,0.0,0.0,0.0,0.0,0.0,0.0,0.0,0.0,0.0,0.0,0.0,0.0,0.0,0.0,0.0,0.0,0.0,0.0,0.0,1.7164,1.829,1.8487,1.8907,1.976,1.9679,1.9708,2.0073,1.9679,0.0,0.0,0.0,1.9008,1.8229,2.1277,2.3415,2.4439,3.0769,3.4668,3.636,3.7041,3.7099,3.6418,3.1874,2.9784,2.961,0.0,0.0,0.0,0.0,0.0,0.0,0.0,0.0,0.0,0.0,0.0,0.0,0.0,0.0,0.0,0.0,0.0,0.0,0.0,0.0,0.0,0.0,0.0,0.0,0.0,0.0,0.0,0.0,0.0,0.0,0.0,0.0,0.0,0.0,0.0,0.0,0.0,0.0,0.0,0.0,0.0,3.2969,3.3119,0.0,0.0,0.0,0.0,0.0,0.0,0.0,0.0,0.0,0.0,0.0,0.0,0.0,3.835,4.1984,4.1307,4.2402,4.4952,4.6167,4.7631,4.911,4.9563,5.0306,5.1408,5.0406,0.0,4.5271,4.4231,0.0,0.0,0.0,0.0,0.0,0.0,0.0,0.0,0.0,0.0,0.0,0.0,0.0,0.0,0.0,0.0,0.0,0.0,0.0,0.0,0.0,2.0428,2.1338,2.3521,2.3291,2.2887,2.2664,2.212,0.0,0.0,1.9809,1.9834,2.0037,2.3027,2.6613,3.0721,3.6408,3.9448,4.0002,4.0612,4.0902,4.0786,3.8202,3.5444,3.2658,3.138,0.0,0.0,0.0,0.0,0.0,0.0,0.0,0.0,0.0,0.0,0.0,0.0,0.0,0.0,0.0,0.0,0.0,0.0,0.0,0.0,0.0,0.0,0.0,0.0,0.0,0.0,0.0,0.0,0.0,0.0,0.0,0.0,0.0,0.0,0.0,0.0,0.0,0.0,0.0,3.3088,3.4986,3.5043,3.5574,3.5521,0.0,0.0,0.0,0.0,0.0,0.0,0.0,0.0,0.0,3.9278,3.9202,4.0671,4.374,4.3912,4.4804,4.633,4.8672,4.9871,4.9822,5.1022,5.1714,5.2068,5.1866,5.077,4.9063,4.723,4.5296,4.3363,0.0,0.0,0.0,0.0,3.8887,3.802,0.0,0.0,0.0,0.0,0.0,0.0,0.0,0.0,0.0,0.0,0.0,0.0,2.2177,2.2874,2.4173,2.6773,2.6749,2.6257,2.5369,2.4353,2.3021,2.1256,2.0329,2.0453,2.1838,2.5801,3.0951,3.7168,4.0828,4.2586,4.2586,4.305,4.3253,4.3224,4.2615,4.0118,3.6286,3.5009,3.3354,3.1438,0.0,0.0,0.0,0.0,0.0,0.0,0.0,0.0,0.0,0.0,0.0,0.0,0.0,0.0,0.0,0.0,0.0,0.0,0.0,0.0,0.0,0.0,0.0,0.0,0.0,0.0,0.0,0.0,0.0,0.0,0.0,0.0,0.0,0.0,0.0,0.0,0.0,3.4795,3.6586,3.6661,3.7295,3.714,0.0,0.0,0.0,0.0,0.0,0.0,3.9346,3.9669,4.0326,4.142,4.1851,4.3144,4.5158,4.6434,4.7156,4.7322,5.046,5.1434,5.0444,5.2093,5.2629,5.2666,5.2689,5.2729,5.2553,5.0167,4.8711,4.7807,4.615,4.4249,4.2639,4.3056,4.2063,4.0735,0.0,0.0,0.0,0.0,0.0,0.0,0.0,0.0,0.0,0.0,0.0,2.1715,2.4366,2.5931,2.7164,2.8313,2.9164,2.9046,2.7843,2.562,2.3786,2.2567,2.0872,2.0888,2.2784,3.0646,3.699,4.1802,4.3195,4.3892,4.3892,4.3921,4.395,4.3921,4.3253,4.2498,4.1628,4.0292,3.8638,3.6664,3.3529,0.0,0.0,0.0,0.0,0.0,0.0,0.0,0.0,0.0,0.0,0.0,0.0,0.0,0.0,0.0,0.0,0.0,0.0,0.0,0.0,0.0,0.0,0.0,0.0,0.0,0.0,0.0,0.0,0.0,0.0,0.0,0.0,0.0,0.0,0.0,0.0,0.0,0.0,3.8256,3.8789,0.0,0.0,0.0,0.0,3.9483,3.9316,4.0049,4.2013,4.1861,4.276,4.5015,4.511,4.5718,4.6728,4.8887,4.9414,4.8558,5.1794,5.3188,5.284,5.3598,5.4235,5.4975,5.4577,5.4436,5.4361,5.3155,5.1724,5.0243,5.0142,4.8164,4.53,4.548,4.4353,4.2592,0.0,0.0,0.0,1.8999,1.8645,1.8403,1.8662,1.8406,1.8578,1.9734,2.1375,2.3433,2.5853,2.7624,2.9545,3.1841,3.2034,3.165,3.0555,2.8086,2.6481,2.6257,2.4091,2.5586,3.1216,3.5986,3.9978,4.3311,4.4995,4.5808,4.5837,4.7085,4.7433,4.7027,4.6795,4.633,4.5576,4.2615,4.0495,3.8957,3.7447,3.4777,0.0,0.0,0.0,0.0,0.0,0.0,0.0,0.0,0.0,0.0,0.0,0.0,0.0,0.0,0.0,0.0,0.0,0.0,0.0,0.0,0.0,0.0,0.0,0.0,0.0,0.0,0.0,0.0,0.0,0.0,0.0,0.0,0.0,0.0,0.0,0.0,0.0,4.0434,4.0714,0.0,4.0359,4.0897,4.1379,4.1688,4.2266,4.2904,4.3522,4.4094,4.4539,4.4821,4.6573,4.734,4.6852,4.9414,5.0358,4.9655,5.209,5.3393,5.3703,5.3492,5.4178,5.5786,5.4918,5.509,5.6143,5.6143,5.4938,5.2942,5.1919,5.0125,4.8117,4.7073,4.5663,4.4148,0.0,0.0,0.0,1.8999,1.879,1.867,1.8927,1.9012,1.9478,2.074,2.2892,2.5244,2.7705,2.9745,3.1728,3.3837,3.4098,3.3635,3.2454,3.0313,2.8864,2.8484,2.7748,3.032,3.6661,3.9843,4.2737,4.5256,4.6877,4.7717,4.784,4.9088,4.9465,4.9059,4.9059,4.8827,4.8246,4.575,4.3776,4.2266,4.125,3.8899,3.5822,0.0,0.0,0.0,0.0,0.0,0.0,0.0,0.0,0.0,0.0,0.0,0.0,0.0,0.0,0.0,0.0,0.0,0.0,0.0,0.0,0.0,0.0,0.0,0.0,0.0,0.0,0.0,0.0,0.0,0.0,0.0,0.0,0.0,0.0,4.0233,4.1468,4.216,4.2276,4.2314,4.2169,4.2874,4.3517,4.3817,4.4505,4.4984,4.4976,4.5691,4.5849,4.5599,4.7671,4.8475,4.762,5.0527,5.2005,5.1874,5.391,5.4865,5.4915,5.4369,5.4406,5.4932,5.4372,5.4741,5.5911,5.7087,5.6622,5.5263,5.4451,5.2774,5.0658,4.9583,4.7734,4.5954,0.0,0.0,1.8999,1.8999,1.8999,1.8999,1.8999,1.9432,2.0538,2.2702,2.4819,2.7152,2.9821,3.2188,3.3687,3.403,3.5015,3.4893,3.338,3.2059,3.0626,2.9114,3.1729,3.4899,3.8537,4.2361,4.5543,4.784,4.8855,4.9519,4.9814,4.9843,4.9872,4.9872,4.9843,4.9814,4.9785,4.9843,4.8769,4.6853,4.4908,4.2963,4.0873,0.0,0.0,0.0,0.0,0.0,0.0,0.0,0.0,0.0,0.0,0.0,0.0,0.0,0.0,0.0,0.0,0.0,0.0,0.0,0.0,0.0,0.0,0.0,0.0,0.0,0.0,0.0,0.0,0.0,0.0,0.0,0.0,0.0,4.2396,4.2083,4.2239,4.3365,4.3576,4.3529,4.3416,4.4427,4.5405,4.5934,4.5788,4.5912,4.6429,4.6287,4.6632,4.7666,4.8827,4.9321,4.9204,5.2401,5.4378,5.5065,5.7349,5.77,5.6565,5.6412,5.5207,5.2924,5.3245,5.3474,5.3658,5.5937,5.6789,5.6852,5.7566,5.5718,5.2855,5.2696,5.063,4.7755,0.0,1.8734,1.8999,1.8999,1.9052,1.9105,1.8999,1.9564,2.0677,2.2702,2.5155,2.7705,3.0374,3.2653,3.403,3.4559,3.4848,3.4631,3.3885,3.2075,3.1196,3.1685,3.8602,4.245,4.2598,4.6305,4.8538,4.9204,5.0846,5.1788,5.1817,5.3181,5.3617,5.321,5.3181,5.292,5.2455,5.2484,5.2165,5.1439,4.8566,4.5982,4.3689,0.0,0.0,0.0,0.0,0.0,0.0,0.0,0.0,0.0,0.0,0.0,0.0,0.0,0.0,0.0,0.0,0.0,0.0,0.0,0.0,0.0,0.0,0.0,0.0,0.0,0.0,0.0,0.0,0.0,0.0,0.0,4.2907,4.3351,4.2659,4.2757,4.3403,4.4487,4.4622,4.4856,4.5178,4.5566,4.5966,4.6224,4.6341,4.6447,4.6704,4.7749,4.8497,4.8676,5.1272,5.2202,5.1316,5.3838,5.5207,5.5374,5.6879,5.802,5.8673,5.7885,5.7919,5.8791,5.7605,5.7004,5.7004,5.7658,5.7217,5.595,5.5413,5.4694,5.3564,5.1122,4.9723,4.9183,0.0,1.8446,1.8734,1.8951,1.9052,1.9105,1.8999,1.9896,2.1295,2.3352,2.6142,2.8859,3.1288,3.3236,3.4487,3.4799,3.4823,3.4414,3.3452,3.2533,3.3101,3.5575,4.1523,4.4939,4.5538,4.8788,5.076,5.1323,5.2874,5.3656,5.3791,5.4894,5.5213,5.4894,5.4894,5.4662,5.4313,5.4313,5.4168,5.3762,5.1904,4.9756,4.755,4.6127,4.4705,4.3311,4.1773,4.1018,4.0699,4.006,0.0,0.0,0.0,0.0,0.0,0.0,0.0,0.0,0.0,0.0,0.0,0.0,0.0,0.0,0.0,0.0,0.0,0.0,0.0,0.0,0.0,0.0,0.0,0.0,4.6535,4.6913,4.6448,4.5083,4.4615,4.6088,4.59,4.6006,4.6535,4.6669,4.6997,4.762,4.7609,4.77,4.8067,4.9008,4.97,5.0352,5.2292,5.333,5.3429,5.481,5.5668,5.6524,5.7119,5.7754,5.8241,5.7173,5.696,5.7172,5.6046,5.5439,5.5462,5.7187,5.6944,5.5154,0.0,0.0,0.0,0.0,4.9804,5.0032,1.8133,1.8205,1.8446,1.8903,1.8999,1.8999,1.8999,2.037,2.2173,2.4338,2.7296,3.0062,3.2346,3.3885,3.4751,3.4823,3.4895,3.4342,3.2947,3.3942,3.6209,3.9692,4.2551,4.5213,4.7621,5.0572,5.2598,5.3849,5.4822,5.5458,5.5736,5.5823,5.5852,5.5852,5.5765,5.5736,5.5736,5.5649,5.5329,5.4836,5.4749,5.3559,5.1585,4.9204,4.7956,4.7259,4.5488,4.4472,4.3892,4.334,0.0,0.0,0.0,0.0,0.0,0.0,0.0,0.0,0.0,0.0,0.0,0.0,0.0,0.0,0.0,0.0,0.0,0.0,0.0,0.0,0.0,0.0,0.0,0.0,5.0442,5.1242,5.1977,4.8485,4.6329,4.7958,4.7464,4.722,4.7617,4.7861,4.8373,4.9297,4.9365,4.9514,4.9901,5.0112,0.0,0.0,0.0,5.3406,5.5265,5.5288,5.5994,5.755,5.7715,5.7408,5.6434,5.574,5.4409,5.2323,5.2224,5.1883,5.1726,5.5744,5.6075,5.4236,5.5302,5.4454,5.2585,5.1015,5.0487,5.0487,1.7652,1.8253,1.8879,1.8975,1.8999,1.8999,1.8999,2.037,2.2318,2.4819,2.72,2.9797,3.2803,3.3765,3.4366,3.4799,3.5208,3.5328,3.504,3.8736,4.0844,4.053,4.6846,5.0291,5.0271,5.2715,5.4583,5.5852,5.6466,5.7216,5.7768,5.829,5.8552,5.8523,5.7971,5.7739,5.771,5.7158,5.6868,5.6723,5.6229,5.4894,5.3036,5.202,5.1556,5.1352,5.0452,5.0075,4.993,4.9814,4.8304,4.6475,4.633,4.4647,0.0,0.0,0.0,0.0,0.0,0.0,0.0,0.0,0.0,0.0,0.0,0.0,0.0,0.0,0.0,0.0,0.0,0.0,0.0,5.3134,5.3198,5.3102,5.3503,5.1478,4.9981,4.9891,4.9812,4.9455,4.886,4.9743,5.0222,4.9979,5.0974,5.1523,5.1724,5.2051,5.2832,5.3934,5.4393,5.499,5.5794,5.5794,5.6007,5.6244,5.7385,0.0,5.6629,5.7593,5.7298,5.6346,5.7809,5.6678,5.4103,5.6422,5.52,5.1946,5.404,5.3598,5.1998,5.1286,5.0984,5.0922,1.7869,1.8229,1.8686,1.8951,1.8999,1.9071,1.9336,2.0538,2.2342,2.4963,2.7176,2.9412,3.1817,3.2539,3.2851,3.2851,3.3332,3.4078,3.516,3.8216,4.0616,4.2036,4.684,5.0103,5.1572,5.3628,5.5481,5.6868,5.7507,5.8145,5.8813,5.9132,5.9306,5.9306,5.8958,5.8813,5.8755,5.8087,5.7797,5.7739,5.71,5.6287,5.5271,5.4023,5.353,5.3413,5.2455,5.2107,5.2049,5.173,5.0772,4.9698,4.9698,4.8159,4.5866,0.0,0.0,0.0,0.0,0.0,0.0,0.0,0.0,0.0,0.0,0.0,0.0,0.0,0.0,4.8883,5.1158,0.0,5.3264,5.636,5.6004,5.5943,5.7309,5.6735,5.5024,5.2051,5.1934,5.2312,5.2891,5.3271,5.3399,5.3293,5.3376,5.3717,5.4334,5.3841,5.4303,5.5719,5.5389,5.5449,5.5931,5.5931,5.6267,5.6911,5.6911,5.7028,5.7238,5.623,5.5802,5.5587,5.5319,5.4456,5.3166,5.3951,5.3537,5.2485,5.2485,5.1976,5.1087,5.086,5.0756,5.0736,1.835,1.835,1.8494,1.8927,1.8999,1.9167,1.9696,2.0706,2.2318,2.4819,2.6839,2.8643,3.0254,3.0807,3.0999,3.0879,3.1553,3.2827,3.4847,3.6855,3.9586,4.3077,4.5663,4.8592,5.1932,5.3862,5.5641,5.7393,5.8029,5.8639,5.9306,5.9306,5.9306,5.9306,5.9161,5.9103,5.9074,5.8523,5.829,5.8261,5.7855,5.7623,5.7332,5.5823,5.5097,5.472,5.3559,5.3123,5.3007,5.2397,5.2107,5.1962,5.1846,5.0743,4.9088,4.7201,4.6243,0.0,0.0,0.0,0.0,0.0,0.0,0.0,0.0,4.6044,4.7123,4.9426,5.0719,5.2096,5.4344,5.4283,5.5111,5.8996,5.8629,5.8659,6.071,6.1035,5.9495,5.5194,5.4807,5.5529,5.7066,5.6791,5.6611,5.6569,5.5685,5.5612,5.6566,5.537,5.5439,5.7214,5.5974,5.5541,5.5931,5.5839,5.6438,5.7737,5.6488,5.6488,5.722,5.4547,5.347,5.3387,5.1274,5.1016,5.2019,5.1411,5.185,5.2865,5.1036,5.0363,5.0301,5.0301,5.0301,5.028,1.8903,1.8903,1.8927,1.8975,1.8999,1.9167,1.9696,2.0706,2.2173,2.4338,2.5636,2.6983,2.8595,2.8835,2.9412,3.0759,3.225,3.3789,3.5425,3.903,4.1462,4.2326,4.5564,4.8619,5.1481,5.3023,5.5055,5.7715,5.8147,5.8639,5.9306,5.9306,5.9306,5.9277,5.8668,5.8406,5.8406,5.8348,5.829,5.8348,5.8871,5.8726,5.8174,5.7942,5.7187,5.6084,5.5358,5.5097,5.501,5.44,5.3791,5.321,5.263,5.231,5.1759,4.9843,4.9233,4.8595,4.6127,4.5367,4.5465,4.6852,4.7486,4.8833,0.0,5.3416,5.3332,5.5833,5.6451,5.6957,5.8334,5.8519,5.9052,6.0638,6.0762,6.0607,6.0701,6.0702,6.0782,6.1286,6.0073,5.8963,5.8385,5.86,5.8146,5.6643,5.6697,5.6885,5.6976,5.5741,5.5997,5.762,5.6508,5.5862,5.5931,5.5495,5.5927,5.7166,5.6553,5.6067,5.5857,5.4653,5.3432,5.189,5.0973,5.1323,5.2974,5.1652,5.0809,5.0276,5.028,5.0177,4.9825,4.9825,4.9825,4.9763,1.8999,1.8999,1.9095,1.9384,1.9191,1.9263,2.0161,2.0634,2.1692,2.3809,2.4723,2.5564,2.655,2.6382,2.6695,2.7993,3.0134,3.2226,3.4126,3.7526,4.0614,4.317,4.5099,4.8083,5.2096,5.3323,5.5131,5.7482,5.8002,5.8639,5.9306,5.9306,5.9306,5.9306,5.9016,5.8871,5.8871,5.8464,5.829,5.829,5.8174,5.7971,5.771,5.771,5.739,5.681,5.5765,5.5416,0.0,5.472,5.4313,5.411,5.4197,5.3704,5.2949,5.2165,5.1672,5.1381,5.1004,5.0542,5.0338,5.127,5.1717,5.2515,5.4742,5.4965,5.544,5.794,5.8446,5.884,6.0076,6.0301,6.061,6.1481,6.1931,6.2173,6.2446,6.2726,6.3417,6.4305,6.4055,6.3474,6.2781,6.1336,6.0362,6.0426,5.9428,5.8717,5.8661,5.7407,5.6867,5.7428,5.7591,5.6795,5.5036,5.5649,5.6182,5.6643,5.5952,5.5929,5.6444,5.4568,5.2627,5.0952,5.0871,5.1182,5.1435,5.0693,5.0094,4.9742,4.9659,4.968,4.9763,4.9763,4.9928,5.0115,0.0,1.8999,1.9167,1.9696,1.9336,1.9408,2.061,2.0706,2.1332,2.3304,2.3737,2.4073,2.4602,2.4194,2.4362,2.5564,2.8114,3.0615,3.2923,3.5881,3.9062,4.2387,4.348,4.606,5.0376,5.2008,5.3916,5.6191,5.7222,5.8116,5.8755,5.8755,5.8755,5.8755,5.8755,5.8755,5.8726,5.8435,5.829,5.829,5.7971,5.7739,5.7594,5.7594,5.7245,5.6665,5.5736,5.5416,5.5213,5.3907,5.3791,5.4226,5.4139,5.3704,5.3326,5.3675,5.321,5.2758,5.3611,5.368,5.3742,5.4346,5.5249,5.5917,5.6322,5.6711,5.7547,5.9373,5.9739,6.0076,6.1144,6.1481,6.179,6.2408,6.3026,6.3645,6.4235,6.4881,6.5499,6.6117,6.6118,6.6033,6.6202,6.4013,6.2764,6.2941,6.1351,6.0317,5.9821,5.8564,5.7749,5.7526,5.8325,5.7566,5.5253,5.6041,5.6917,5.7861,5.6817,5.717,5.8282,5.5176,5.2585,5.061,5.0767,5.0466,5.0032,4.997,4.9866,4.9742,4.9659,4.9845,5.0135,5.0135,5.0322,5.0591,0.0,1.8999,1.9167,1.9696,1.9336,1.9528,2.1139,2.0947,2.1187,2.2799,2.2558,2.2462,2.2991,2.2582,2.2871,2.4434,2.7007,2.9677,3.2346,3.4992,3.718,3.89,4.0293,4.2128,4.4556,4.8,5.0953,5.3387,5.5447,5.6781,5.7361,5.7361,5.7361,5.7361,5.7361,5.7361,5.739,5.8029,5.829,5.8348,5.8987,5.8842,5.8261,5.8261,5.71,5.5474,5.5416,5.5416,5.4923,5.1846,5.202,5.3239,5.1381,5.1643,5.2862,5.411,5.3588,5.2572,5.2243,5.2816,5.3831,5.5451,5.7507,5.9233,5.9823,6.0469,6.0947,6.1031,6.1031,6.1228,6.1874,6.2464,6.3054,6.3645,6.4291,6.4909,6.5527,6.6145,6.6764,6.7382,6.5595,6.517,6.724,6.6696,6.5118,6.2614,6.1692,6.0812,6.0125,5.8887,5.8261,5.8237,5.8237,5.785,5.7047,5.7071,5.8604,6.1565,6.0267,6.0292,6.1565,5.7102,5.3713,5.1166,5.0304,4.9535,4.9183,5.0052,5.0156,4.9845,5.0715,5.1046,5.1067,5.1067,5.1087,5.1025,0.0,0.0,1.9793,2.0706,2.0706,2.0899,2.1789,2.1163,2.1043,2.2294,2.2294,0.0,0.0,0.0,0.0,0.0,2.6142,2.845,3.0759,3.3693,3.6351,3.8782,4.1094,4.3649,4.6247,4.8969,5.1236,5.2865,5.4389,5.5242,5.5474,5.6316,5.649,5.6055,5.652,5.6461,5.6055,5.6287,5.6374,5.6403,5.6636,5.6578,5.649,5.7303,5.5939,5.353,0.0,5.3268,5.2601,5.0656,5.0743,5.1585,5.1381,5.1004,5.0859,5.1701,5.3048,5.4316,5.5249,5.6193,5.735,5.9002,5.9851,6.0526,6.0722,6.0947,6.12,6.1621,6.1706,6.1902,6.2521,6.3111,6.356,6.3757,6.4684,6.5583,6.6202,6.6454,6.682,6.7438,6.6871,6.6533,6.6904,6.5352,6.4444,6.4346,6.2857,6.1666,6.0938,5.9895,5.9298,5.8886,6.0322,6.0574,5.9057,5.986,5.9798,5.9187,5.8236,5.7901,5.7869,5.6336,5.4365,5.2017,5.1688,5.0889,4.999,5.0301,5.0322,5.0259,5.088,5.1108,5.115,5.146,5.1771,5.1957,0.0,0.0,0.0,2.126,2.1235,0.0,0.0,0.0,0.0,0.0,0.0,0.0,0.0,0.0,0.0,0.0,0.0,2.7248,2.9388,3.213,3.4773,3.7047,3.902,4.1129,4.3238,4.5477,4.7735,5.0001,5.1603,5.304,5.4546,5.5358,5.562,5.5416,5.5852,5.5823,5.5416,5.5416,5.5823,5.6345,5.5184,5.5155,5.5707,5.5155,5.3384,0.0,5.0423,4.9756,4.9059,4.7985,4.8682,4.9959,4.993,5.0452,5.1207,5.1744,5.3501,5.559,5.7363,5.8341,5.9465,6.0947,6.1762,6.2071,6.2071,6.224,6.2521,6.2914,6.2661,6.2464,6.2858,6.3588,6.415,6.415,6.5583,6.682,6.7213,6.7466,6.7747,6.814,6.8169,6.8028,6.7635,6.6136,6.5176,6.5005,6.3499,6.229,6.1568,6.117,6.0685,5.979,6.1917,6.2457,6.0911,6.1735,6.1035,5.9089,5.9093,5.8418,5.7228,5.6694,5.518,5.3035,5.2669,5.1768,5.0694,5.1025,5.117,5.1212,5.1667,5.175,5.1646,5.1936,5.2122,5.2226,0.0,0.0,0.0,0.0,0.0,0.0,0.0,0.0,0.0,0.0,0.0,0.0,0.0,0.0,0.0,0.0,0.0,0.0,2.821,3.0326,3.2226,3.3813,3.4463,3.5211,3.6137,3.8151,4.1195,4.518,4.7158,5.0166,5.3975,5.4139,5.4458,5.501,5.5097,5.5068,5.501,5.5039,5.6113,5.7507,5.44,5.4284,5.5533,5.1904,4.9669,4.8246,4.6505,4.5401,4.4705,4.424,4.6214,4.8586,4.7485,5.0064,5.3627,5.4,5.5041,5.6508,5.8377,5.9323,6.0159,6.1706,6.2998,6.3841,6.3841,6.4319,6.474,6.4656,6.3701,6.2858,6.2745,6.3813,6.4712,6.4712,6.682,6.8478,6.8506,6.8983,6.9349,6.9377,6.9321,6.9292,6.9292,6.8731,6.7168,6.4591,6.3607,6.2868,6.2149,6.2522,6.2224,6.1143,6.2793,6.3519,6.2796,6.2636,6.2083,6.1432,6.2559,6.1928,5.9327,5.8057,5.617,5.38,5.2987,5.2159,5.1212,5.2122,5.2495,5.2578,5.3033,5.293,5.2536,5.2557,5.2267,5.1936,0.0,0.0,0.0,0.0,0.0,0.0,0.0,0.0,0.0,0.0,0.0,0.0,0.0,0.0,0.0,0.0,0.0,0.0,2.6045,2.8114,3.0037,3.1625,3.4297,3.6117,3.693,3.9348,4.11,4.2425,4.4069,4.5619,4.7213,4.874,4.9582,4.9756,5.0743,5.0627,4.9756,5.022,5.0452,5.0336,4.9059,4.8827,4.9233,4.8711,4.7143,4.5256,4.5721,4.485,4.366,4.4966,4.7651,5.0659,5.1782,5.3116,5.439,5.5394,5.7163,5.8973,6.0438,6.1739,6.299,6.3813,6.4291,6.4516,6.4516,6.4656,6.4375,6.2998,6.2464,6.1818,6.0413,6.2296,6.4038,6.4038,6.6539,6.8646,6.9096,6.8899,6.8871,6.9349,6.8562,6.8,6.8,6.6839,6.5788,6.4934,6.4787,6.4372,6.3478,6.3034,6.3048,6.3571,6.4065,6.443,6.4661,6.2709,6.1639,6.1432,6.0768,5.9809,5.8519,5.9131,5.7595,5.4456,5.4532,5.357,5.1667,5.2247,5.2702,5.3054,5.3509,5.3406,5.3054,5.3385,5.322,5.2888,0.0,0.0,0.0,0.0,0.0,0.0,0.0,0.0,0.0,0.0,0.0,0.0,0.0,0.0,0.0,0.0,0.0,0.0,0.0,2.6526,2.8065,2.9436,3.166,3.3194,3.3896,3.5522,3.7166,3.9043,4.0041,4.1803,4.4224,4.5533,4.6417,4.6969,4.7724,4.7637,4.6969,4.7317,4.7753,0.0,0.0,4.6069,4.6679,4.5343,4.395,4.2818,4.3515,4.4531,4.5837,4.8072,5.0051,5.1908,5.431,5.5275,5.6023,5.7876,5.9342,6.0737,6.2106,6.3131,6.3954,6.46,6.4965,6.4937,6.415,6.415,6.3897,6.2324,6.1369,6.0638,6.0132,6.2099,6.3897,6.4178,6.7073,6.9405,6.9742,6.9489,6.9321,6.9377,6.8759,6.8337,6.8337,6.7569,6.6906,6.6504,6.5329,6.4396,6.391,6.3743,6.3881,6.4508,6.477,6.5057,6.5371,6.3907,6.2584,6.1432,6.0844,5.9778,5.8204,5.8969,5.7707,5.4958,5.5318,5.4272,5.2433,5.2888,5.3364,5.3799,5.4048,5.3861,5.353,5.3985,5.3737,5.3302,0.0,0.0,0.0,0.0,0.0,0.0,0.0,0.0,0.0,0.0,2.2462,2.2294,2.2294,2.2294,0.0,0.0,0.0,0.0,0.0,0.0,2.6456,2.7541,2.8378,2.9016,2.9553,3.0128,3.2168,3.5574,3.6085,3.8504,4.258,4.3056,4.3863,4.4995,4.5169,4.5198,4.514,4.5227,4.6156,4.7317,4.4501,4.4356,4.5459,0.0,4.0757,4.0873,4.1221,4.4472,4.9001,5.1585,5.2625,5.3366,5.6263,5.7398,5.8332,6.0727,6.1529,6.2066,6.3581,6.3926,6.4094,6.4825,6.5415,6.5302,6.3476,6.3504,6.3476,6.1846,6.0301,5.9458,6.0216,6.1987,6.3588,6.4375,6.755,7.0023,7.0276,7.0304,7.0135,6.9686,6.9573,6.9517,6.9517,6.9433,6.9084,6.8142,6.5843,6.4292,6.4059,6.4273,6.456,6.4639,6.5188,6.5475,6.5371,6.5131,6.3848,6.1555,6.1855,6.0624,5.8434,5.8569,5.7581,5.5749,5.5506,5.4731,5.3488,5.3696,5.411,5.4544,5.4606,5.4379,5.4089,5.4544,5.4213,5.3696,0.0,0.0,0.0,0.0,0.0,0.0,0.0,0.0,0.0,0.0,2.3905,2.2847,0.0,0.0,0.0,0.0,0.0,0.0,0.0,0.0,0.0,2.6797,2.8101,2.8944,2.9386,3.0623,3.1868,3.3221,3.4017,3.5393,3.7316,3.8601,3.9625,4.0408,4.1453,4.1628,4.1134,4.1686,4.1802,4.1512,4.0466,4.0234,4.0408,3.916,0.0,0.0,4.1918,4.4937,4.8333,5.0917,5.4013,5.7283,5.9846,6.0774,6.1005,6.2507,6.2886,6.2886,6.4235,6.46,6.4853,6.6005,6.637,6.5949,6.4066,6.4122,6.3532,5.9711,5.9093,5.8643,5.6816,5.8812,6.1312,6.297,6.5921,6.8534,7.0079,7.0304,7.0445,7.0866,7.0445,7.0135,7.0135,6.9686,6.879,6.7271,6.6601,6.6093,6.5462,6.4794,6.4743,6.5214,6.5815,6.5894,6.5397,6.3691,6.2597,6.2096,6.1014,6.0167,5.9467,6.065,5.9939,5.7826,5.6911,5.6013,5.4837,5.4174,5.411,5.4565,5.4938,5.502,5.5,5.5476,5.5538,5.5393,0.0,0.0,0.0,0.0,0.0,0.0,0.0,2.5059,2.6069,2.7921,2.7055,2.5853,2.4723,2.3948,2.3506,0.0,0.0,0.0,0.0,0.0,0.0,2.6672,2.7705,2.845,2.8996,3.0052,3.0842,3.1519,0.0,3.3656,3.4941,3.6453,3.7564,3.826,3.9189,3.9421,3.9131,3.945,3.9421,3.9073,3.8812,3.8667,3.8638,3.8318,0.0,0.0,4.2179,4.5256,4.8566,5.0481,5.4206,5.8437,6.0692,6.1203,6.1373,6.335,6.3442,6.3195,6.4702,6.4905,6.505,6.6286,6.6595,6.5864,6.3026,6.2633,6.1902,5.8531,5.7519,5.7322,5.7407,5.8924,6.075,6.2633,6.5499,6.7944,6.918,7.0164,7.0782,7.0754,7.0754,7.0641,7.0332,7.0051,6.9559,6.8789,6.7886,6.6819,6.5606,6.5424,6.558,6.5841,6.6416,6.6573,6.6286,6.5359,6.4002,6.2661,6.2276,6.1304,5.972,6.069,5.9746,5.7526,5.6976,5.6021,5.4759,5.4381,5.4606,5.5248,5.5455,5.5538,5.56,5.6055,5.6076,5.591,0.0,0.0,0.0,0.0,0.0,0.0,0.0,2.6767,2.8114,3.047,3.0206,2.9124,2.7396,2.5729,2.4493,0.0,0.0,0.0,0.0,0.0,0.0,0.0,0.0,0.0,2.8699,0.0,0.0,3.0957,3.1862,0.0,0.0,0.0,0.0,0.0,3.7941,3.8202,3.8202,3.8202,3.8202,0.0,0.0,3.8202,3.8202,0.0,0.0,0.0,0.0,4.5082,4.8391,5.0104,5.353,5.7448,5.9655,6.0675,6.1399,6.3393,6.3505,6.3328,6.4837,6.5041,6.505,6.6286,6.6595,6.564,6.1931,6.12,6.0469,5.7575,5.6283,5.6254,5.8081,5.9036,6.0188,6.2212,6.4881,6.7129,6.8309,6.9939,7.095,7.0726,7.1259,7.1372,7.0782,7.0726,7.0436,7.0035,6.8612,6.7126,6.5739,6.6129,6.6442,6.6442,6.6991,6.7227,6.7096,6.6711,6.5249,6.3227,6.2957,6.1851,5.988,6.0294,5.934,5.7314,5.7239,5.62,5.4859,5.4793,5.5227,5.589,5.5973,5.6014,5.6076,5.6531,5.6469,5.6242,0.0,0.0,0.0,0.0,0.0,0.0,0.0,2.7392,2.9484,3.2587,3.2082,3.1279,3.0773,2.8475,2.6311,0.0,0.0,0.0,0.0,0.0,0.0,0.0,0.0,0.0,0.0,0.0,0.0,3.1936,3.257,0.0,0.0,0.0,0.0,0.0,0.0,3.8202,3.8202,3.8202,0.0,0.0,0.0,0.0,0.0,0.0,0.0,0.0,0.0,4.3892,4.6621,4.964,5.1759,5.3617,5.6694,5.9882,6.2428,6.232,6.2793,6.3565,6.4567,6.4769,6.505,6.6286,6.6595,6.564,6.1931,6.1537,6.075,5.6535,5.603,5.6226,5.5917,5.6816,5.8446,6.0863,6.2886,6.5162,6.8056,6.9573,7.0782,7.1878,7.2552,7.2692,7.2074,7.2018,7.1238,6.9342,6.8226,6.7111,6.6207,6.673,6.7017,6.7017,6.7592,6.7645,6.7096,6.5218,6.4111,6.3792,6.1251,6.0129,6.0409,6.0454,5.9886,5.8742,5.8259,5.7538,5.6486,5.5967,5.5807,5.591,5.6345,5.6511,5.6552,5.7008,5.7132,5.7049,0.0,0.0,0.0,0.0,0.0,0.0,2.7128,2.8089,2.9893,3.3717,3.3377,3.2689,3.222,3.0597,2.8393,2.5742,0.0,0.0,0.0,0.0,0.0,0.0,0.0,0.0,0.0,0.0,3.1426,3.2616,3.3303,0.0,0.0,0.0,0.0,0.0,0.0,3.8202,3.8202,3.8202,0.0,0.0,0.0,0.0,0.0,0.0,0.0,0.0,0.0,0.0,4.6127,4.7811,5.022,5.2717,5.3617,5.6408,5.9767,6.1553,6.2365,6.3215,6.4993,6.5431,6.5527,6.637,6.6033,6.4712,6.1762,6.0694,5.9514,5.6648,5.5945,5.6142,5.7013,5.6985,5.7744,6.0638,6.2015,6.3532,6.5921,6.7944,6.9658,7.0894,7.1934,7.2608,7.2721,7.2411,7.1338,6.9078,6.9119,6.8733,6.7468,6.7514,6.7619,6.7619,6.8194,6.8045,6.6952,6.6145,6.4704,6.3112,6.1901,6.1312,6.0914,6.0914,6.0154,5.8931,5.8751,5.7848,5.6599,5.6396,5.6449,5.6738,5.7194,5.7215,5.7008,5.7484,5.7463,5.7194,0.0,0.0,0.0,0.0,0.0,2.4816,2.7686,2.865,3.0423,3.4332,3.4039,3.3399,3.3365,3.1521,2.9341,2.6964,2.6532,0.0,0.0,0.0,0.0,0.0,0.0,0.0,0.0,0.0,3.2388,3.334,3.4315,3.5102,0.0,0.0,3.7341,3.7593,0.0,0.0,0.0,0.0,0.0,0.0,0.0,0.0,0.0,0.0,0.0,0.0,0.0,0.0,0.0,0.0,0.0,5.1672,5.141,5.3559,5.681,5.9914,6.1413,6.2522,6.4861,6.5617,6.5859,6.6677,6.5944,6.4257,6.1779,6.0231,5.8643,5.6564,5.5805,5.5917,5.7238,5.7041,5.7491,5.9879,6.1256,6.2661,6.4516,6.6904,6.8871,6.9911,7.1456,7.2496,7.2552,7.2327,7.1381,6.9187,6.9954,6.983,6.8385,6.8246,6.8246,6.8246,6.8638,6.8345,6.7477,6.6967,6.557,6.3249,6.2885,6.2297,6.1235,6.1396,6.051,5.8934,5.9086,5.8192,5.6573,5.6718,5.6945,5.7256,5.7587,5.7608,5.7463,5.7794,5.7711,5.7463,0.0,0.0,0.0,0.0,0.0,0.0,2.6869,2.9034,3.1466,3.4527,3.3816,3.3518,3.4632,3.1095,2.8648,2.8825,2.7204,0.0,0.0,0.0,0.0,0.0,0.0,0.0,0.0,0.0,3.4169,3.4197,3.5405,3.64,3.7302,3.7053,3.7386,3.8202,0.0,0.0,0.0,0.0,0.0,0.0,0.0,0.0,0.0,0.0,0.0,0.0,0.0,0.0,0.0,0.0,0.0,0.0,0.0,5.1991,5.4091,5.6966,5.9343,6.1736,6.4222,6.507,6.5702,6.7227,6.6464,6.4632,6.2138,6.0357,5.8502,5.603,5.5496,5.5524,5.5524,5.6535,5.7575,5.8221,6.0413,6.2661,6.4516,6.6904,6.8702,6.9321,7.1597,7.2608,7.1372,7.1821,7.1394,6.9656,7.0225,6.9991,6.8795,6.8847,6.8847,6.8847,6.8847,6.8847,6.8847,6.7477,6.6086,6.4653,6.3803,6.265,6.1258,6.174,6.0826,5.8955,5.9436,5.8492,5.6594,5.7049,5.7215,5.7235,5.7235,5.7504,5.7918,5.7918,5.7918,5.798,0.0,0.0,0.0,0.0,0.0,0.0,0.0,2.7185,2.8825,3.1183,3.1361,3.1563,3.2188,3.024,2.9052,2.96,2.8118,0.0,0.0,0.0,0.0,0.0,0.0,0.0,0.0,3.4002,3.5107,3.6905,3.7767,3.8784,3.9886,3.9361,3.9044,3.887,3.8405,3.8202,0.0,0.0,0.0,0.0,0.0,0.0,3.8202,0.0,0.0,0.0,0.0,0.0,0.0,0.0,0.0,0.0,0.0,0.0,0.0,5.4264,5.7628,6.1012,6.2245,6.3264,6.398,6.4084,6.2575,6.0991,6.0625,5.8935,5.7069,5.6283,5.5805,5.5636,5.6058,5.6114,5.7154,6.0329,6.1144,6.2324,6.4993,6.7185,6.8702,6.9321,7.1962,7.3564,7.317,7.3311,7.2645,7.1037,7.104,7.0421,6.8821,6.8847,6.8847,6.8847,6.8847,6.8319,6.7477,6.6086,6.4874,6.3803,6.2398,6.1949,6.2268,6.2429,6.1547,5.9938,6.0091,5.8984,5.7028,5.7173,5.7235,5.7256,5.7566,5.7587,5.7484,5.7794,5.7711,5.7504,0.0,0.0,0.0,0.0,0.0,0.0,0.0,2.6518,2.7834,2.9401,2.9844,3.0367,3.1389,2.9652,2.8982,3.0277,2.8852,0.0,0.0,0.0,0.0,0.0,0.0,0.0,3.4332,3.4753,3.6314,3.8928,3.9596,4.0554,4.1802,4.1395,4.0583,3.9509,3.9102,3.8638,0.0,0.0,0.0,0.0,0.0,0.0,3.8202,0.0,0.0,0.0,0.0,0.0,0.0,0.0,0.0,0.0,0.0,0.0,0.0,0.0,5.5516,5.8984,6.06,6.1872,6.2723,6.2551,6.1342,6.0042,5.9708,5.8175,5.6767,5.617,5.5777,5.5608,5.6002,5.5945,5.6816,5.9795,6.0526,6.1818,6.4909,6.6932,6.8787,7.0585,7.2299,7.3507,7.3985,7.4013,7.3229,7.1581,7.1419,7.0635,6.8847,6.8847,6.8847,6.8847,6.8847,6.8177,6.6797,6.6115,6.4969,6.3349,6.2867,6.2666,6.2751,6.2556,6.1659,6.0375,5.9984,5.8804,0.0,5.7235,5.7318,5.7504,5.7608,5.7794,5.8022,5.8146,5.8001,5.7836,0.0,0.0,0.0,0.0,0.0,0.0,0.0,2.6839,2.8195,2.8918,2.9092,2.9808,3.1548,2.929,2.8492,3.062,0.0,0.0,0.0,0.0,0.0,0.0,0.0,0.0,3.4457,3.5677,3.7564,4.0176,4.0873,4.1918,4.3195,4.3195,4.215,4.0234,4.0176,3.945,3.8202,0.0,0.0,0.0,3.8202,3.8202,0.0,0.0,0.0,0.0,0.0,0.0,0.0,0.0,0.0,0.0,0.0,0.0,0.0,0.0,0.0,0.0,0.0,6.0605,6.1545,6.2092,6.1804,6.0811,5.9115,5.82,0.0,5.5922,5.5524,5.5552,5.5664,5.6086,5.6704,5.7631,5.9205,6.1425,6.4516,6.6623,6.918,7.2749,7.2721,7.2833,7.3985,7.4069,7.3285,7.1662,7.1447,7.0635,6.8847,6.8873,6.8899,6.8899,6.8952,6.8255,6.7018,6.7208,6.6066,6.3648,6.4283,6.4039,6.2631,6.2133,6.1348,6.018,5.922,5.8231,5.7235,5.7235,5.7484,5.7836,5.7401,5.8043,5.914,5.8726,5.856,5.8684,0.0,0.0,0.0,0.0,0.0,0.0,0.0,0.0,0.0,0.0,2.8071,2.8552,2.8019,2.7774,2.8008,0.0,0.0,0.0,0.0,0.0,0.0,0.0,0.0,0.0,3.5096,3.5909,3.7796,4.0873,4.2005,4.3456,4.5198,4.5198,4.3921,4.1599,4.1076,3.9857,3.8202,3.8202,0.0,0.0,3.8202,3.8202,0.0,0.0,0.0,0.0,4.0408,4.1918,0.0,0.0,0.0,0.0,0.0,0.0,0.0,0.0,5.2049,5.3007,5.5242,0.0,5.9356,5.8656,5.8484,5.8451,0.0,5.7548,5.6471,5.6524,5.595,5.5945,5.7378,5.6985,5.7547,6.1059,6.1987,6.3335,6.6426,6.9292,7.1765,7.3592,7.4097,7.4407,7.4688,7.4716,7.3924,7.2315,7.1691,7.0635,6.8847,6.9265,6.9501,6.9501,6.9945,6.9801,6.8994,6.7416,6.6454,6.6177,6.406,6.2745,6.2156,6.1906,6.096,5.922,5.8825,5.8231,5.7235,5.7235,5.7297,5.738,5.7277,5.7649,5.8229,5.8125,5.8084,5.8208,0.0,0.0,0.0,0.0,0.0,0.0,0.0,0.0,0.0,0.0,0.0,2.8365,2.7678,2.8165,0.0,0.0,0.0,0.0,0.0,0.0,0.0,0.0,0.0,3.3587,3.4893,3.5822,3.8028,4.1541,4.2528,4.4269,4.6737,4.6446,4.4966,4.244,4.0583,3.9189,3.8202,3.8202,3.8202,3.8202,3.8202,0.0,0.0,0.0,0.0,0.0,4.0408,4.1918,0.0,4.665,4.8333,4.9291,0.0,0.0,0.0,0.0,5.0714,5.1468,5.2833,5.5394,5.7513,5.6795,5.7283,5.7713,5.7497,5.7042,5.6531,5.6354,5.5838,5.5889,5.721,5.7828,5.898,6.165,6.3279,6.5274,6.8365,7.1231,7.3283,7.3929,7.4547,7.494,7.494,7.494,7.4119,7.2532,7.1772,7.0635,6.8847,6.9396,6.9684,6.9684,7.052,7.0334,6.9222,6.7441,6.6431,6.5996,6.4063,6.2662,6.1951,6.1348,6.0375,5.8825,5.8231,5.7834,5.7235,5.7235,5.7359,5.7525,5.7318,5.7773,5.8519,5.8312,5.8374,5.8417,0.0,0.0,0.0,0.0,0.0,0.0,0.0,0.0,0.0,0.0,0.0,0.0,0.0,0.0,0.0,0.0,0.0,0.0,0.0,0.0,0.0,0.0,3.3238,3.3935,3.498,3.5851,3.8202,4.2092,4.2905,4.4763,4.7637,4.7491,4.5895,4.3021,4.0002,3.8492,3.8202,3.8202,3.8202,3.8202,3.8202,0.0,0.0,0.0,0.0,0.0,0.0,0.0,0.0,4.6969,4.8827,4.9756,5.0104,0.0,0.0,0.0,0.0,0.0,5.1933,5.4293,5.6553,5.6102,5.728,5.8119,5.6733,5.6989,5.7249,5.6124,5.5777,5.6142,5.7322,5.9036,6.0694,6.2015,6.4572,6.7354,7.0192,7.258,7.4013,7.4013,7.4547,7.4884,7.48,7.4726,7.4091,7.2396,7.1556,7.0499,6.8978,6.9527,6.9866,6.9945,7.099,7.061,6.8699,6.7707,6.6482,6.5037,6.3824,6.272,6.1564,6.057,5.9592,5.8429,5.7614,5.7235,5.7235,5.7235,5.7463,5.7773,5.738,5.8043,5.914,5.8746,5.885,5.8974,0.0,0.0,0.0,0.0,0.0,0.0,0.0,0.0,0.0,0.0,0.0,0.0,0.0,0.0,0.0,0.0,0.0,0.0,0.0,0.0,0.0,3.4109,3.3703,3.4777,3.7564,3.6751,3.8202,4.2092,4.3776,4.5401,4.7027,4.9117,4.784,4.3747,4.1599,3.9741,3.8202,3.8202,3.8202,3.8202,3.8202,0.0,0.0,0.0,0.0,0.0,0.0,0.0,0.0,4.4908,4.7346,4.9494,4.8537,0.0,0.0,0.0,0.0,0.0,5.4081,5.6152,5.7398,5.6908,5.7974,5.9015,5.8737,5.848,5.8018,5.7576,5.7309,5.825,6.1987,6.1734,6.2352,6.6651,6.8618,7.0135,7.1681,7.3114,7.4013,7.4013,7.4547,7.4744,7.421,7.3972,7.3229,7.1609,7.0825,7.0001,6.9527,7.0128,7.0677,7.1121,7.1801,7.1387,6.9866,6.8453,6.7017,6.5561,6.3226,6.1564,6.057,5.9613,5.8429,5.7435,5.7235,5.7235,5.7235,5.7235,5.7277,5.7318,5.7256,5.7836,5.8705,5.8643,5.8459,5.7842,0.0,0.0,0.0,0.0,0.0,0.0,0.0,0.0,0.0,0.0,0.0,0.0,0.0,0.0,0.0,0.0,0.0,0.0,0.0,0.0,0.0,3.5909,3.5357,3.5851,3.768,3.8144,4.0089,4.3602,4.5518,4.7288,4.8885,4.7985,4.6069,4.334,4.0699,3.9044,3.8202,3.8202,3.8202,3.8202,0.0,0.0,0.0,0.0,0.0,0.0,0.0,0.0,0.0,0.0,4.7143,4.8624,4.8362,0.0,0.0,0.0,0.0,0.0,5.3297,5.5163,5.6734,5.8089,6.0071,6.1786,6.1911,6.1955,6.1699,6.0329,6.0005,6.0582,6.2914,6.3729,6.5583,7.022,7.1175,7.1653,7.2552,7.3451,7.4154,7.4491,7.5081,7.5221,7.4575,7.4536,7.3894,7.1962,7.1386,7.0876,7.0154,7.0729,7.1147,7.1382,7.1984,7.1189,6.8989,6.8238,6.7139,6.568,6.3058,6.1348,6.0375,5.922,5.8231,5.7235,5.7235,5.7235,5.7235,5.7235,5.7235,5.7256,5.7504,5.8022,5.8643,5.8479,5.8005,5.7102,0.0,0.0,0.0,0.0,0.0,0.0,0.0,0.0,0.0,0.0,0.0,0.0,0.0,0.0,0.0,0.0,0.0,0.0,0.0,0.0,3.4486,3.6751,3.678,3.7418,3.8841,3.9973,4.2208,4.5576,4.7346,4.9146,5.083,4.723,4.4734,4.3108,4.0176,3.8638,3.8202,3.8202,3.8202,3.8202,0.0,0.0,0.0,0.0,0.0,0.0,0.0,0.0,0.0,0.0,0.0,0.0,0.0,0.0,0.0,4.9698,5.0336,5.1672,5.3239,5.4844,5.6846,5.9846,6.1758,6.3251,6.4235,6.4604,6.4433,6.3356,6.2858,6.297,6.4038,6.6117,6.8815,7.2327,7.2608,7.2608,7.3226,7.3732,7.4238,7.4856,7.5362,7.5531,7.5193,7.5013,7.417,7.2586,7.1971,7.1359,7.0964,7.1382,7.167,7.1801,7.2376,7.109,6.7873,6.8021,6.7076,6.4742,6.2675,6.1026,6.0158,5.8868,5.8095,5.738,5.7277,5.7235,5.7235,5.7235,5.7235,5.7256,5.7608,5.8043,5.8294,5.8148,5.7612,5.6568,0.0,0.0,0.0,0.0,0.0,0.0,0.0,0.0,0.0,0.0,0.0,0.0,0.0,0.0,0.0,0.0,0.0,0.0,0.0,0.0,3.408,3.5444,3.7157,3.977,4.3427,4.2498,4.3805,4.7579,4.8885,5.022,5.1497,4.8827,4.6272,4.3834,4.1802,3.9886,3.8202,3.8202,3.8202,3.8202,3.8202,0.0,0.0,0.0,0.0,0.0,0.0,0.0,0.0,0.0,0.0,0.0,0.0,0.0,5.1527,5.1439,5.231,5.3849,5.6287,5.7714,5.927,6.2496,6.1784,6.1264,6.4396,6.4159,6.3761,6.5834,6.5359,6.5274,6.7635,6.963,7.1203,7.2102,7.2692,7.3254,7.3873,7.3985,7.4238,7.4856,7.4969,7.5221,7.5783,7.4387,7.3237,7.3156,7.1539,7.1069,7.2114,7.2219,7.2454,7.2977,7.3578,7.1884,6.7898,6.8389,6.6531,6.2121,6.096,6.0223,5.9463,5.8022,5.7463,5.7836,5.7422,5.7235,5.7235,5.7235,5.7235,5.7235,5.7256,5.7164,5.7209,5.7062,5.6528,5.5532,0.0,0.0,0.0,0.0,0.0,0.0,0.0,0.0,0.0,0.0,0.0,0.0,0.0,0.0,0.0,0.0,0.0,0.0,0.0,3.2745,3.4138,3.7012,3.7825,3.9828,4.3282,4.4472,4.6534,4.9582,5.0859,5.1527,5.1527,4.7753,4.5053,4.3253,4.0525,3.9131,3.8783,3.8376,3.8434,3.8783,3.8376,3.8202,0.0,0.0,0.0,0.0,0.0,0.0,0.0,0.0,4.5459,4.6969,4.7869,4.9727,5.1701,5.2107,5.2543,5.35,5.6055,5.8003,5.9698,6.1862,6.2812,6.4095,6.6952,6.7975,6.8429,6.8396,6.8253,6.8365,6.8955,7.0557,7.2018,7.2664,7.2945,7.3311,7.3929,7.4013,7.4407,7.5418,7.5531,7.5624,7.5564,7.4773,7.3824,7.2969,7.2124,7.1984,7.2768,7.2794,7.3081,7.3656,7.2966,7.1206,6.8414,6.7073,6.4473,6.096,6.057,5.9896,5.908,5.7697,5.7318,5.7484,5.7297,5.7235,5.7235,5.7235,5.7235,5.7256,5.7143,5.7495,5.7717,5.6789,5.6235,5.5849,0.0,0.0,0.0,0.0,0.0,0.0,0.0,0.0,0.0,0.0,0.0,0.0,0.0,0.0,0.0,0.0,0.0,0.0,3.2454,3.2716,3.4167,3.7157,3.7883,3.9421,4.2034,4.5198,4.7898,5.0046,5.1556,5.173,5.0627,4.694,4.4618,4.3456,4.067,3.9683,4.006,3.916,3.8957,3.916,3.8696,3.8522,0.0,0.0,0.0,0.0,0.0,0.0,0.0,0.0,4.4995,4.6475,4.7927,5.0017,5.2049,5.2688,5.3772,5.5192,5.6673,5.8667,6.0589,6.2159,6.3865,6.5687,6.8173,6.959,7.0469,7.0339,7.0304,7.0248,7.0023,7.0866,7.1934,7.2945,7.3114,7.3311,7.3929,7.4013,7.4491,7.5755,7.5896,7.5883,7.5682,7.5289,7.45,7.3075,7.2584,7.2611,7.3343,7.3395,7.3656,7.4284,7.2961,7.0923,6.8338,6.6204,6.3549,6.0026,6.0071,5.9567,5.8652,5.7759,5.738,5.7649,5.7359,5.7235,5.7235,5.7235,5.7318,5.7484,5.7188,5.7372,5.7815,5.6821,5.5958,5.5494,0.0,0.0,0.0,0.0,0.0,0.0,0.0,0.0,0.0,0.0,0.0,0.0,0.0,0.0,0.0,0.0,0.0,0.0,3.2483,3.3122,3.4051,3.5328,3.7186,3.8783,4.006,4.4472,4.7433,4.8711,5.0627,5.0598,4.8653,4.6737,4.5518,4.4763,4.2934,4.2121,4.2005,4.067,3.977,3.9218,3.9218,3.9218,3.9276,0.0,0.0,0.0,0.0,0.0,0.0,0.0,4.4385,4.5459,4.8653,5.1004,5.2688,5.3326,5.6441,5.941,5.8835,6.0071,6.1987,6.425,6.4553,6.5085,6.752,6.7915,6.8541,7.155,7.1175,7.0501,7.1119,7.0726,7.095,7.2805,7.3114,7.3339,7.3929,7.4013,7.4491,7.5755,7.5896,7.6051,7.629,7.5535,7.4662,7.3634,7.2795,7.2794,7.3944,7.3996,7.4284,7.4911,7.3909,7.1462,6.7169,6.62,6.3704,5.9527,5.9059,5.8715,5.8581,5.7649,5.7732,5.8539,5.7629,5.7235,5.7235,5.7235,5.7504,5.7918,5.7311,5.6984,5.7036,5.6832,5.5828,5.4746,0.0,0.0,0.0,0.0,0.0,0.0,0.0,0.0,0.0,0.0,0.0,0.0,0.0,0.0,0.0,0.0,0.0,0.0,3.3151,3.3354,3.4225,3.5938,3.7012,3.7941,3.8754,4.1424,4.4734,4.8711,4.8856,4.7927,4.6011,4.5024,4.3979,4.2934,4.3282,4.2673,4.1395,4.1482,4.1395,4.125,4.125,4.096,4.0641,0.0,0.0,0.0,0.0,0.0,0.0,0.0,0.0,0.0,4.8275,5.0656,5.2775,5.3907,5.5047,5.6326,5.8031,6.0359,6.2622,6.3651,6.645,6.8967,6.874,6.8939,6.9675,7.124,7.0866,7.0501,7.1119,7.1456,7.1962,7.2945,7.3479,7.3816,7.3985,7.4013,7.4491,7.5755,7.5387,7.5047,7.5426,7.4491,7.3661,7.2795,7.2472,7.2794,7.3944,7.3996,7.3898,7.3935,7.2565,7.0103,6.674,6.458,6.2258,5.9995,5.8725,5.8058,5.8105,5.7836,5.7691,5.7649,5.7691,5.7711,5.7732,5.8063,5.7881,5.7351,5.7045,5.7036,5.6812,5.632,5.5796,5.5137,0.0,0.0,0.0,0.0,0.0,0.0,0.0,0.0,0.0,0.0,3.0568,3.0568,0.0,0.0,0.0,0.0,0.0,0.0,3.3441,3.3703,3.4457,3.588,3.6548,3.768,3.9305,4.0757,4.2876,4.5692,4.6098,4.5663,4.4531,4.4937,4.485,4.4414,4.5692,4.5169,4.3398,4.3544,4.3311,4.2876,4.3108,4.2963,4.2673,0.0,0.0,0.0,0.0,0.0,0.0,0.0,0.0,0.0,4.7753,4.993,5.2281,5.436,5.6185,5.806,6.0732,6.3308,6.561,6.6634,6.8542,6.9955,6.9556,6.9781,7.0233,7.0697,7.0754,7.0866,7.1484,7.2131,7.2749,7.3367,7.3788,7.4013,7.4013,7.4238,7.4772,7.5783,7.5259,7.4966,7.492,7.415,7.3316,7.2297,7.2297,7.2617,7.3018,7.3637,7.3586,7.2426,7.1069,6.8948,6.5518,6.3212,6.0997,5.9326,5.8245,5.7918,5.7918,5.7918,5.7877,5.7773,5.7877,5.7918,5.7918,5.8022,5.7596,5.7148,5.7001,5.6821,5.6781,5.6149,5.5664,5.5293,0.0,0.0,0.0,0.0,0.0,0.0,0.0,0.0,0.0,3.0568,3.0568,3.0568,0.0,0.0,0.0,3.1613,3.2745,3.3499,3.3558,3.4109,3.4719,3.5415,3.617,3.7941,4.0873,4.1453,4.1482,4.0931,4.2818,4.3718,4.3776,4.5808,4.7056,4.7666,4.9117,4.8595,4.6621,4.604,4.5082,4.4037,4.4705,4.4908,4.4821,4.4937,0.0,0.0,0.0,0.0,0.0,0.0,0.0,0.0,4.7259,4.9146,5.1381,5.4547,5.8341,6.2152,6.4802,6.7267,6.939,7.1494,7.0628,6.9446,7.0051,7.0304,7.0304,7.0304,7.0782,7.1428,7.2074,7.2692,7.3311,7.3929,7.4013,7.4041,7.4097,7.4575,7.5165,7.584,7.5592,7.5185,7.4893,7.4123,7.3142,7.2297,7.2297,7.2263,7.1901,7.307,7.3012,7.1069,6.989,6.7617,6.4149,6.1894,5.9916,5.8043,5.8043,5.8043,5.8043,5.796,5.8146,5.8519,5.8146,5.7939,5.7836,5.7484,5.7164,5.6965,5.7021,5.6841,5.657,5.6149,5.5664,5.5254,0.0,0.0,0.0,0.0,0.0,0.0,0.0,0.0,3.0568,3.0568,3.0568,3.0568,3.0568,3.1148,0.0,3.2251,3.3006,3.3674,3.4196,3.4341,3.4922,3.6054,3.768,3.8899,3.9596,3.9247,3.9218,3.9625,4.1018,4.1715,4.1773,4.4705,4.6156,4.6417,4.9204,4.8537,4.5285,4.5169,4.4676,4.4095,4.5227,4.5082,4.4298,4.5285,4.4269,0.0,0.0,0.0,0.0,0.0,0.0,0.0,4.7927,4.9524,5.1033,5.2758,5.5868,5.9061,6.1146,6.4899,6.857,7.0068,7.06,7.0734,7.036,7.0304,7.0304,7.0304,7.0782,7.1428,7.2074,7.2692,7.3311,7.3929,7.4013,7.4182,7.4659,7.4856,7.5165,7.584,7.4938,7.4355,7.4323,7.3223,7.2472,7.2297,7.2297,7.2617,7.3379,7.2707,7.1881,7.1069,6.8942,6.6103,6.2967,6.205,6.0569,5.8995,5.8995,5.8995,5.8974,5.825,5.798,5.8084,5.8353,5.8043,5.7422,5.7657,5.7148,5.6577,5.6761,5.6491,5.6149,5.5937,5.5664,5.5254,0.0,0.0,0.0,0.0,0.0,0.0,0.0,0.0,3.0916,3.0626,3.0568,3.0568,3.0568,3.1148,0.0,0.0,3.2629,3.3296,3.3906,3.3964,3.4661,3.6228,3.8173,3.8899,3.8318,3.8231,3.8231,3.8289,3.8957,4.006,4.1628,4.4211,4.6214,4.7782,4.9436,4.874,4.6243,4.5953,4.5459,4.4995,4.6272,4.6214,4.5401,4.575,4.4472,4.2528,4.2528,0.0,0.0,0.0,0.0,0.0,0.0,0.0,5.0365,5.3261,5.5584,5.8229,6.2936,6.6242,6.8937,7.0938,7.1578,7.1512,7.0894,7.0529,7.0388,7.0669,7.1259,7.1878,7.2496,7.3114,7.3648,7.3957,7.4013,7.4238,7.4856,7.494,7.5119,7.556,7.4774,7.4074,7.3837,7.2957,7.2297,7.2297,7.2297,7.2237,7.1876,7.1769,7.0764,6.8966,6.7161,6.4812,6.221,6.1059,5.9925,5.8643,5.9098,5.8953,5.8312,5.827,5.825,5.8229,5.8043,5.7592,5.7164,5.7003,5.6538,5.5962,5.6414,5.6045,5.5625,5.5625,5.5371,5.4941,0.0,0.0,0.0,0.0,0.0,0.0,0.0,0.0,0.0,3.0655,3.0568,3.0568,3.0568,3.1032,3.1409,0.0,0.0,0.0,3.3267,3.3499,3.437,3.6083,3.7912,3.8376,3.7331,3.768,3.7738,3.7476,3.7244,3.8957,4.2469,4.424,4.6708,4.9669,4.9553,4.8798,4.755,4.6592,4.5866,4.5488,4.665,4.6737,4.6127,4.5721,4.4501,4.2992,4.2992,4.3137,4.3515,4.4792,0.0,0.0,0.0,0.0,4.9658,5.3683,5.5702,5.8057,6.4453,6.7579,6.9644,7.2327,7.2636,7.2018,7.1372,7.0754,7.0501,7.1231,7.1821,7.2383,7.3002,7.3592,7.4013,7.4013,7.4097,7.435,7.4856,7.5025,7.5128,7.5019,7.4388,7.3824,7.3288,7.2584,7.2193,7.2297,7.2297,7.1499,6.982,7.0823,6.9774,6.6554,6.5301,6.3589,6.1508,6.0042,5.8871,5.8043,5.8808,5.8498,5.7256,5.7939,5.825,5.8229,5.7608,5.7164,5.7067,5.6393,5.5749,5.5651,5.5859,5.5789,5.5312,5.539,5.5098,5.4629,0.0,0.0,0.0,0.0,0.0,0.0,0.0,0.0,0.0,0.0,3.0568,3.0568,3.0568,3.0655,3.0916,3.1467,3.1584,3.1932,3.26,0.0,0.0,3.5444,3.6809,3.7476,3.7302,3.6809,3.707,3.8086,3.6983,3.8957,4.3776,4.5111,4.7172,4.9698,4.9117,4.8159,4.6795,4.4472,4.3456,4.3456,4.4182,4.4095,4.3573,4.4066,4.3718,4.2992,4.2992,4.3689,4.4821,4.6127,4.6998,0.0,0.0,0.0,4.9814,5.1062,5.353,5.645,5.8545,6.3875,6.9527,7.2327,7.2636,7.2018,7.1372,7.0754,7.0641,7.1821,7.2131,7.2383,7.3002,7.3592,7.4013,7.4013,7.4463,7.4856,7.4912,7.5418,7.5295,7.4048,7.3486,7.3041,7.2116,7.1742,7.1748,7.2271,7.2297,7.206,7.1351,7.0267,6.8632,6.6522,6.4124,6.19,6.0012,5.9465,5.9036,5.8519,5.8643,5.8187,5.7215,5.6966,5.6842,5.6883,5.7546,5.7452,5.7128,5.7004,5.6568,5.6087,5.5894,5.5625,5.5351,5.5723,5.5351,5.4668,0.0,0.0,0.0,0.0,0.0,0.0,0.0,0.0,0.0,0.0,0.0,3.0568,3.0568,3.0568,3.0684,3.0974,3.1003,3.1438,3.2454,3.3703,3.469,3.5328,3.6257,3.6577,3.6228,3.5938,3.6228,3.7157,3.6954,3.9479,4.4501,4.5459,4.7637,5.0714,4.8972,4.7898,4.7201,4.4647,4.334,4.305,4.3718,4.5111,4.6563,4.4705,4.514,4.6505,4.4705,4.4647,4.5605,4.6534,4.7491,4.8391,4.8972,0.0,0.0,0.0,5.2265,5.5146,6.023,6.5496,7.0007,7.2833,7.3142,7.2552,7.1906,7.1259,7.1091,7.199,7.2187,7.2496,7.3451,7.3845,7.4013,7.4013,7.4238,7.4547,7.4884,7.4381,7.4014,7.3404,7.2584,7.183,7.1649,7.1424,7.1644,7.2245,7.1568,7.0962,7.0378,6.8664,6.6986,6.5271,6.299,6.1243,5.991,5.9319,5.8933,5.8995,5.8208,5.7484,5.6821,5.5869,5.5848,5.6594,5.6568,5.6638,5.672,5.6308,5.6047,5.5855,5.5605,5.5605,5.5644,5.5605,5.5195,5.4687,0.0,0.0,0.0,0.0,0.0,0.0,0.0,0.0,0.0,0.0,0.0,3.0568,3.0568,0.0,0.0,0.0,3.0568,3.1061,3.2193,3.3296,3.4225,3.4932,3.5503,3.5619,3.5125,3.527,3.5764,3.6548,3.7389,4.0379,4.5401,4.6069,4.842,5.1991,4.9407,4.8188,4.784,4.5314,4.3921,4.3573,4.4734,4.6911,4.9291,4.755,4.8769,5.0975,4.7753,4.7027,4.7579,4.7579,4.8072,4.8769,4.9117,4.9436,0.0,0.0,0.0,5.4004,6.1279,6.522,6.8174,7.1973,7.2496,7.2159,7.2187,7.1681,7.14,7.2046,7.2187,7.2552,7.3788,7.4013,7.4013,7.4013,7.4154,7.435,7.4659,7.3618,7.2876,7.2832,7.1547,7.0929,7.1095,7.12,7.1513,7.2245,7.0962,6.9928,6.925,6.7389,6.5454,6.3544,6.1644,6.0454,5.9634,5.8948,5.8788,5.9098,5.7711,5.6821,5.6345,5.5207,5.531,5.621,5.602,5.6031,5.6288,5.6076,5.5927,5.6074,5.5762,5.5762,5.5918,5.5703,5.5234,5.4687,0.0,0.0,0.0,0.0,0.0,0.0,0.0,0.0,0.0,0.0,0.0,3.0568,3.0568,3.0568,3.0568,3.0568,3.0568,3.0858,3.1526,3.2222,3.289,3.3529,3.4167,0.0,3.4457,3.5038,3.5996,3.7244,3.8492,4.1715,4.6737,4.7375,4.9727,5.3297,5.0772,4.9262,4.8508,4.5924,4.4821,4.4995,4.7491,4.8595,4.9233,5.3268,5.5329,5.5649,5.2426,5.1672,5.1962,5.0162,4.9204,4.8943,5.0191,5.0162,4.9698,0.0,0.0,0.0,5.7965,6.0014,6.1983,6.8115,6.9602,7.0051,7.1793,7.1681,7.14,7.2046,7.2187,7.2552,7.3788,7.4013,7.4013,7.4013,7.4519,7.4688,7.4154,7.3702,7.3041,7.1582,7.0689,7.0319,7.0691,7.0651,7.1095,7.2219,7.1321,7.0154,6.8758,6.6726,6.4267,6.1337,6.0325,5.9127,5.796,5.8394,5.8622,5.8622,5.7256,5.6366,5.589,5.5372,5.5241,5.5168,5.6026,5.6294,5.6166,5.6979,5.693,5.6543,5.6523,5.6269,5.5976,5.6367,5.5742,5.4746,0.0,0.0,0.0,0.0,0.0,0.0,0.0,0.0,0.0,0.0,0.0,0.0,0.0,3.1816,3.1642,3.1206,3.1177,3.1642,3.2687,3.3006,3.3412,3.4051,3.469,3.5009,3.5009,3.5648,3.6402,3.7302,3.858,4.1192,4.5024,4.6475,4.8798,5.1643,5.0307,4.9582,4.9175,4.6156,4.4879,4.5198,4.8595,5.1439,5.3878,5.5881,5.8581,6.0845,5.7216,5.5242,5.4284,5.3617,5.2136,5.0598,5.0656,5.0801,5.1004,5.141,5.2455,5.4264,5.777,5.9708,6.1655,6.5742,6.8059,6.9573,7.0248,7.1147,7.2018,7.2636,7.2468,7.2552,7.3788,7.4013,7.4013,7.4013,7.421,7.4109,7.3229,7.2574,7.1825,7.0635,6.9816,6.9469,6.9945,7.0363,7.0912,7.167,7.0044,6.8866,6.8684,6.5185,6.2488,6.1052,5.9804,5.861,5.7918,5.8664,5.8746,5.8146,5.707,5.6469,5.6283,5.5129,5.4821,5.4982,5.5466,5.5982,5.6186,5.6655,5.6796,5.6562,5.6269,5.625,5.6328,5.6211,5.5703,5.5098,0.0,0.0,0.0,0.0,0.0,0.0,0.0,0.0,3.138,3.1787,0.0,0.0,0.0,0.0,3.3296,3.2861,3.26,3.2861,3.3732,3.3993,3.4283,3.4719,3.5328,3.5677,3.5677,3.6519,3.7157,3.7622,3.9334,4.1482,4.4037,4.5924,4.8101,5.0307,4.9233,4.9349,5.0191,4.784,4.6708,4.6882,5.141,5.4371,5.6403,5.9393,6.1861,6.3399,6.0816,5.8929,5.7623,5.7419,5.6229,5.4517,5.2804,5.1817,5.1439,5.2049,5.3007,5.4293,5.6476,5.7911,5.9786,6.3385,6.5521,6.7213,6.9489,7.0641,7.1597,7.2861,7.2777,7.2805,7.3816,7.4013,7.4013,7.4013,7.4013,7.3701,7.2858,7.1902,7.1096,7.0282,6.932,6.9082,6.9631,7.0049,7.052,7.1095,6.9103,6.7764,6.7567,6.3837,6.1073,5.9825,5.9073,5.8356,5.7918,5.8684,5.8684,5.7898,5.6842,5.6324,5.6107,5.5119,5.4572,5.4624,5.5399,5.5642,5.5789,5.6443,5.6582,5.6562,5.6269,5.6328,5.6543,5.625,5.5801,5.5312,0.0,0.0,0.0,0.0,0.0,0.0,3.2629,3.26,3.26,3.2658,0.0,0.0,0.0,0.0,0.0,3.5543,3.4864,3.4516,3.4516,3.5067,3.5456,3.5456,3.5996,3.6344,3.6373,3.7564,3.8202,3.8231,4.0786,4.2673,4.395,4.5866,4.7753,4.9524,4.7666,4.8595,5.1497,5.083,5.022,5.022,5.5939,5.7187,5.6403,6.4009,6.5431,6.3341,6.3341,6.2877,6.218,6.16,6.1309,6.0496,5.6636,5.3239,5.083,5.1468,5.2136,5.2891,0.0,0.0,0.0,6.0892,6.1655,6.2773,6.9405,7.0051,6.9967,7.2496,7.3002,7.3198,7.3901,7.4013,7.4013,7.4013,7.4013,7.3701,7.2858,7.1902,7.1096,7.0118,6.932,6.9056,6.9631,6.9684,6.9945,7.052,6.8901,6.7055,6.5558,6.2596,5.9847,5.7256,5.8125,5.8374,5.7918,5.8374,5.8353,5.7877,5.6531,5.5715,5.5148,5.5128,5.4538,5.3688,5.5393,5.571,5.5371,5.623,5.6582,5.6582,5.6582,5.6582,5.6582,5.6582,5.6055,5.5312,0.0,0.0,0.0,0.0,0.0,3.4719,3.5183,3.4486,3.4399,0.0,0.0,0.0,3.7041,3.7302,3.7622,3.8086,3.7128,3.6519,3.6519,3.6228,3.6054,3.6054,3.6693,3.7244,3.768,3.8028,3.8434,3.8928,4.0089,4.1076,4.1947,4.3863,4.5547,4.694,4.6882,4.784,4.9436,4.7869,4.8449,5.0772,5.5155,5.8,6.0177,6.5548,6.8305,6.9292,6.9292,6.7986,6.6331,6.6622,6.3951,5.9887,5.649,5.3559,5.1585,5.2659,5.3442,5.4052,5.4293,0.0,0.0,0.0,0.0,0.0,6.3251,6.5021,6.6988,7.0388,7.0726,7.1147,7.3564,7.4013,7.4013,7.4013,7.3516,7.2727,7.1902,7.0934,7.0118,6.932,6.9014,6.8899,6.9056,6.9448,6.9397,6.8502,6.7587,6.63,6.4107,6.1148,5.8903,5.7711,5.798,5.8043,5.7918,5.8043,5.7877,5.7401,5.6697,5.652,5.6536,5.5484,5.4945,5.4996,5.5376,5.5521,5.5371,5.623,5.6582,5.6582,5.6582,5.6582,5.6582,5.6582,5.6055,5.5312,0.0,0.0,3.5851,3.6112,3.6373,3.678,3.7418,3.6896,3.6809,0.0,0.0,0.0,3.9654,4.0525,4.0844,4.0437,3.9479,3.8667,3.8144,3.7738,3.7389,3.7099,3.7738,3.826,3.8609,3.9131,3.945,3.9567,4.0495,4.0989,4.1134,4.2789,4.4124,4.5111,4.5488,4.665,4.8246,4.6853,4.8275,5.1904,5.681,5.9568,6.1338,6.636,6.8538,6.9089,7.0686,6.9641,6.7841,7.0366,6.7173,6.1774,5.9364,5.6316,5.3559,5.321,5.4168,5.5184,5.4662,5.4979,5.5737,5.6823,0.0,0.0,6.3251,6.4684,6.6426,7.0922,7.1765,7.2243,7.4069,7.4407,7.425,7.3907,7.2865,7.198,7.1094,7.0447,6.9709,6.8673,6.869,6.8847,6.8847,6.8631,6.8134,6.7253,6.5925,6.3966,6.1582,5.9419,5.7959,5.7629,5.7815,5.7836,5.7629,5.7815,5.7691,5.7215,5.6582,5.6348,5.6396,5.5487,5.5041,5.512,5.5521,5.5566,5.5625,5.6308,5.6582,5.6582,5.6582,5.6582,5.6562,5.6387,5.5667,5.4855,0.0,0.0,3.6722,3.7389,3.8144,3.887,3.9625,3.9683,3.9712,0.0,4.0118,4.0844,4.2644,4.4182,4.4443,4.276,4.1831,4.0786,3.9596,3.9392,3.9044,3.8434,3.8986,3.9334,3.9421,4.0437,4.0728,4.0205,4.1395,4.1686,4.1134,4.2324,4.3253,4.3892,4.3892,4.5285,4.7637,4.7288,4.9436,5.3588,5.9277,6.1222,6.1309,6.6767,6.758,6.6273,6.9699,6.9495,6.8305,7.2718,7.0366,6.5315,6.3632,6.0409,5.6723,5.3907,5.4923,5.6636,5.53,5.5324,5.6251,5.848,5.7775,0.0,6.5527,6.6005,6.6426,7.1625,7.3226,7.376,7.3957,7.4126,7.384,7.3044,7.1953,7.1067,7.0446,7.0233,6.9413,6.8228,6.8481,6.8847,6.8847,6.7646,6.6626,6.6429,6.3648,6.102,5.8959,5.7834,5.7256,5.7297,5.7649,5.767,5.7318,5.767,5.7629,5.7015,5.6225,5.5707,5.5566,5.512,5.4766,5.4863,5.5605,5.5937,5.5976,5.6406,5.6582,5.6582,5.6582,5.6582,5.6523,5.6094,5.5243,5.4378,3.5996,3.7041,3.8057,3.8725,4.0234,4.1715,4.2876,4.2615,4.2992,4.5082,4.5779,4.6446,4.7346,4.6853,4.6301,4.5924,4.3892,4.2324,4.157,4.0525,3.9857,3.9741,3.9857,4.0176,4.0728,4.0437,4.0495,4.0902,4.1163,4.1221,4.1105,4.1889,4.2586,4.3195,4.3195,4.4618,4.7114,4.8508,5.1933,5.649,5.7739,6.0584,6.4415,6.7609,6.9786,7.1208,7.1963,7.2282,7.2282,7.2253,7.1063,6.8857,6.4473,6.2848,6.1745,5.7594,5.8232,5.9858,5.8058,5.7283,5.7137,5.7623,5.7463,0.0,5.8531,5.9654,6.12,6.3813,6.5218,6.6426,6.7944,6.904,6.9405,6.8221,6.9081,6.9799,6.9562,6.9307,6.8778,6.8063,6.8481,6.8847,6.8847,6.7646,6.6061,6.4104,6.0543,5.8578,5.8783,5.7834,5.7401,5.7773,5.7504,5.7504,5.7773,5.7504,5.7118,5.6635,5.6332,5.6113,5.6076,5.5512,5.5376,5.5703,5.5859,5.5937,5.5976,5.6406,5.6582,5.6582,5.6582,5.6582,5.6523,5.6094,5.5243,5.4378,3.7664,3.8559,3.9567,4.0873,4.2179,4.3689,4.5576,4.5605,4.5953,4.755,4.8624,4.8972,4.8333,4.8275,4.7753,4.6475,4.4589,4.3079,4.215,4.1163,4.0437,4.0118,4.0408,4.0757,4.1076,4.1105,4.125,4.1599,4.1599,4.1599,4.1599,4.2237,4.3718,4.5808,4.4501,4.6243,5.0133,4.9465,5.1788,5.62,5.9364,6.3167,6.7173,6.9728,7.1498,7.266,7.3008,7.3734,7.4372,7.3066,7.1586,6.9873,6.7609,6.6012,6.4241,6.038,6.0845,6.1977,5.9074,5.8291,5.8394,5.8708,5.8086,0.0,0.0,5.9907,6.0947,6.3729,6.5021,6.6033,6.7297,6.7775,6.7744,6.7006,6.8037,6.8508,6.7187,6.8319,6.9056,6.8481,6.8664,6.8952,6.9239,6.78,6.5571,6.2304,5.9151,5.7631,5.7969,5.7435,5.7339,5.7566,5.7339,5.7339,5.7566,5.7339,5.7035,5.6434,5.6233,5.597,5.5809,5.5602,5.5541,5.5937,5.6172,5.625,5.6269,5.6504,5.6582,5.6582,5.6582,5.6582,5.6504,5.5648,5.4628,5.3939,3.9238,4.0052,4.1263,4.2831,4.3916,4.5435,4.7783,4.8248,4.85,4.926,5.0719,5.1227,4.9764,5.0837,5.0913,4.8791,4.7495,4.5902,4.3881,4.3148,4.2368,4.1599,4.1395,4.1628,4.2353,4.2208,4.2092,4.2092,4.2208,4.2266,4.2295,4.2905,4.4966,4.8101,4.665,4.8595,5.2833,5.0975,5.2514,5.6636,6.1919,6.5431,6.787,7.0918,7.2079,7.2195,7.324,7.4285,7.4953,7.3676,7.1934,7.025,6.9902,6.8712,6.6651,6.2703,6.3254,6.427,6.0293,5.9587,6.0022,6.0194,5.9163,5.8727,0.0,0.0,0.0,6.4235,6.5415,6.6061,6.6595,6.6454,6.6118,6.5942,6.6766,6.6855,6.4594,6.6846,6.8403,6.8063,6.8716,6.9187,6.9187,6.7297,6.4552,6.116,5.8606,5.7292,5.7049,5.7173,5.7194,5.7111,5.7194,5.7235,5.7235,5.7035,5.6835,5.6233,5.5708,5.5543,5.5306,5.5404,5.5605,5.5957,5.6406,5.6582,5.6582,5.6582,5.6582,5.6582,5.6582,5.6543,5.6154,5.4954,5.3977,5.3176,3.9501,4.134,4.3168,4.324,4.5144,4.7309,4.9017,4.9673,5.0326,5.1578,5.3973,5.5748,5.6137,5.7791,5.8701,5.8393,5.7325,5.4636,4.9944,4.9101,4.8179,4.7003,4.3747,4.3573,4.694,4.3776,4.2092,4.2092,4.2644,4.2905,4.2905,4.3573,4.4705,4.633,4.8885,5.0365,5.1207,5.4255,5.8087,6.2238,6.3516,6.3574,6.3399,6.8247,7.0105,7.0395,7.2776,7.3705,7.3618,7.234,7.2079,7.1615,6.7696,6.935,7.144,6.4822,6.5838,6.816,6.3748,6.2553,6.2222,6.0594,6.0438,6.0048,5.7688,0.0,5.8587,5.8446,0.0,6.0188,6.0245,0.0,0.0,6.1043,6.2481,6.3596,6.2722,6.3664,6.4534,6.4979,6.8194,6.9605,6.7592,6.4792,6.259,6.1092,5.8574,5.6817,5.675,5.7008,5.7049,5.6656,5.7028,5.7235,5.7235,5.6835,5.6233,5.5628,5.5643,5.5247,5.4913,5.5508,5.5898,5.5957,5.6406,5.6582,5.6582,5.6582,5.6582,5.6582,5.6582,5.6134,5.5109,5.4628,5.3577,5.1924,4.1843,4.2301,4.3273,4.4807,4.5582,4.6886,4.943,5.106,5.2575,5.3674,5.5119,5.6444,5.7425,5.7592,5.8071,5.9346,5.7925,5.5752,5.2733,5.112,4.9404,4.7584,4.4762,4.395,4.5547,4.4008,4.2992,4.2615,4.3602,4.4095,4.4124,4.514,4.7317,5.0365,5.173,5.4168,5.7274,5.7042,5.8668,6.1454,6.2122,6.2267,6.279,6.9031,7.1411,7.1615,7.3095,7.3618,7.3589,7.3385,7.2282,7.1034,7.1382,7.0947,6.9844,6.7638,6.7492,6.7289,6.3516,6.3428,6.3737,6.0974,6.0762,6.0611,5.7603,5.7378,5.78,5.7884,0.0,0.0,0.0,0.0,0.0,0.0,6.1271,6.189,6.0943,6.2471,6.3881,6.4456,6.5449,6.6364,6.7044,6.3601,6.1764,6.2573,5.8017,5.5662,5.6842,5.7132,5.7132,5.6945,5.7132,5.7035,5.6835,5.6434,5.6031,5.5243,5.5479,5.5286,5.4707,5.5547,5.5937,5.5957,5.6406,5.6582,5.6582,5.6582,5.6232,5.5785,5.5785,5.5476,5.5013,5.3691,5.2702,5.1868,4.4245,4.3738,4.3898,4.616,4.6142,4.696,5.0186,5.236,5.4092,5.5493,5.6564,5.7717,5.9166,5.959,6.0603,6.2588,6.1838,6.0166,5.7746,5.5318,5.3469,5.2275,4.8118,4.652,4.7962,4.5991,4.4586,4.3776,4.4705,4.543,4.5953,4.6911,4.9378,5.3036,5.4081,5.6984,6.0961,5.9684,6.0467,6.2587,6.2906,6.3806,6.5489,7.0076,7.2166,7.2689,7.3153,7.3327,7.3327,7.324,7.1789,7.0424,7.2689,7.1469,6.9263,6.967,6.9263,6.7881,6.4822,6.4929,6.5114,6.1432,6.0887,6.0483,5.7584,5.7266,5.7772,5.8221,5.9064,0.0,0.0,0.0,5.9753,6.0046,0.0,6.0428,5.9427,6.0641,6.1947,6.2992,6.2809,6.3672,6.639,6.249,6.0834,6.2937,5.7533,5.4863,5.6718,5.709,5.7111,5.6863,5.6891,5.6835,5.6434,5.6031,5.5628,5.4838,5.5188,5.5199,5.4707,5.5683,5.6055,5.5957,5.6406,5.6582,5.6582,5.6582,5.5902,5.5109,5.4896,5.4743,5.4033,5.2777,5.164,5.0425,4.6125,4.5859,4.5902,4.6697,4.7107,4.8552,5.2109,5.3434,5.4743,5.6794,5.8938,6.1089,6.3083,6.7304,7.0494,7.1916,7.321,7.1853,6.6918,6.3952,6.3072,6.4491,5.5627,5.2917,5.7798,5.0998,4.6783,4.5808,4.5837,4.6795,4.8595,4.8653,4.9727,5.1846,5.5533,5.7652,5.8668,6.2296,6.5664,6.8509,6.7899,6.9525,7.2108,7.0482,7.1005,7.2602,7.2631,7.266,7.2369,7.0541,7.025,7.0395,6.8683,7.0134,7.2108,7.0308,7.1188,7.223,6.933,6.7839,6.6157,6.2165,6.0637,5.9345,5.6254,5.6957,5.8278,5.8306,5.9767,6.1031,6.1059,6.1059,6.0774,6.0097,5.9495,0.0,0.0,5.6976,5.7007,5.9255,6.098,6.2914,6.5214,6.0987,5.9145,6.1226,5.7221,5.5129,5.596,5.6738,5.6821,5.5952,5.6184,5.6434,5.6434,5.5426,5.4838,5.4838,5.509,5.5078,5.4726,5.5996,5.6328,5.5957,5.6406,5.6582,5.6582,5.6582,5.5902,5.5109,5.4451,5.3515,5.238,5.2152,5.0179,4.7067,4.7933,4.8191,4.8079,4.7033,4.6982,4.8294,5.2207,5.4442,5.6871,6.0202,6.1852,6.4055,6.7695,6.9205,7.0837,7.2994,7.3221,7.2078,6.9375,6.6007,6.4355,6.483,5.762,5.4635,5.7058,5.2863,4.9872,4.842,4.8856,4.9611,5.0627,5.0627,5.1672,5.3675,5.6636,5.951,6.2209,6.3922,6.6273,6.8799,6.8596,6.9902,7.2021,7.2224,7.2718,7.3327,7.3734,7.3879,7.3763,7.3124,7.2485,7.2079,7.2718,7.2224,7.1498,7.2137,7.1737,7.0876,6.9979,7.0478,6.9906,6.451,6.3725,6.2971,5.795,5.8193,5.9177,5.794,6.0469,6.238,6.075,6.1144,6.1305,6.0207,5.9139,5.7941,0.0,5.5893,5.5804,5.6954,5.9647,6.1555,6.1921,5.9881,5.9069,6.0627,5.6984,5.5241,5.6656,5.707,5.6891,5.6184,5.6271,5.6031,5.5426,5.5041,5.4635,5.4247,5.4902,5.5234,5.5137,5.6133,5.6504,5.6367,5.6523,5.6582,5.6582,5.6154,5.5321,5.4052,5.3628,5.2487,5.1154,5.1412,4.974,4.6839,5.0076,5.0072,4.967,4.8074,4.828,4.9846,5.3155,5.6361,5.9602,6.2684,6.4769,6.7121,7.0572,7.1206,7.2183,7.4127,7.4236,7.3523,7.199,6.9367,6.8092,6.8604,6.3309,6.0876,6.2007,5.8085,5.491,5.2859,5.2258,5.2163,5.2659,5.2659,5.3559,5.5271,5.7129,6.0206,6.4096,6.4967,6.7202,7.0192,7.0424,7.1411,7.2805,7.3879,7.385,7.3385,7.4227,7.4518,7.4518,7.4518,7.3966,7.3501,7.475,7.3908,7.266,7.3908,7.3124,7.1768,7.1482,7.2135,7.1835,6.7125,6.6477,6.5662,6.0597,6.0778,6.1706,6.0301,6.2212,6.4066,6.3785,6.2872,6.1914,6.1051,5.9315,5.7488,0.0,5.5024,5.4916,5.5255,5.7843,5.9513,5.9225,5.7467,5.7338,5.9334,5.5926,5.4759,5.6842,5.6932,5.6753,5.6209,5.595,5.5426,5.4838,5.4635,5.4431,5.4043,5.4902,5.5312,5.5332,5.6191,5.6582,5.6582,5.6582,5.6582,5.6134,5.5785,5.4664,5.3421,5.2998,5.1862,5.0535,5.0143,4.7697,4.4264,5.2521,5.1729,5.0961,4.9981,5.122,5.31,5.5143,5.9177,6.2561,6.4398,6.7785,7.0591,7.2124,7.377,7.5037,7.5826,7.6683,7.66,7.484,7.4095,7.4354,7.5811,7.2443,7.1049,7.2189,6.5948,6.1402,5.8791,5.5842,5.4535,5.474,5.4682,5.5242,5.649,5.7013,5.98,6.4154,6.5373,6.8509,7.2718,7.3385,7.3995,7.4605,7.5243,7.4343,7.2892,7.4198,7.4634,7.4605,7.4605,7.4605,7.4605,7.4605,7.504,7.5563,7.5563,7.5369,7.4992,7.427,7.3207,7.1888,6.9729,6.8935,6.7663,6.3982,6.4572,6.5724,6.505,6.505,6.6173,6.9461,6.6171,6.2894,6.261,5.9908,5.6982,5.4656,5.4288,5.4314,5.4341,5.5721,5.6881,5.7219,5.4451,5.3969,5.7326,5.4541,0.0,5.6583,5.6286,5.6128,5.5821,5.5225,5.4838,5.4838,5.4227,5.4023,5.4043,5.4902,5.5312,5.5332,5.6191,5.6582,5.6582,5.6562,5.6134,5.5686,5.5244,5.4185,5.2786,5.2748,5.1825,5.0081,4.7912,4.4264,3.9951,5.4155,5.4467,5.5282,5.6093,5.5781,5.6237,5.871,6.1703,6.4887,6.8209,7.1486,7.4478,7.6682,7.7872,7.8252,7.7641,7.8177,7.8063,7.7042,7.5844,7.6038,7.7981,7.416,7.2497,7.3505,6.7779,6.434,6.3379,5.9451,5.7637,5.794,5.6852,5.6692,5.7071,5.6781,5.9655,6.4764,6.5083,6.8363,7.3414,7.4024,7.4111,7.3966,7.5098,7.4895,7.4227,7.5504,7.5969,7.5969,7.5969,7.5969,7.5969,7.5969,7.6085,7.6201,7.6201,7.5715,7.5278,7.5574,7.4861,7.3845,7.2451,7.1203,6.9911,6.7578,6.8112,6.8674,6.7129,6.9011,7.0135,6.7382,6.6115,6.4575,6.1654,5.8822,5.6757,5.5595,5.5465,5.5647,5.6092,5.6147,5.5735,5.4745,5.4485,5.4743,5.5552,5.3965,5.4174,5.6883,5.4975,5.4443,5.5608,5.5164,5.4635,5.4227,5.4023,5.4023,5.4043,5.4902,5.5312,5.5332,5.6191,5.6582,5.6562,5.5824,5.565,5.5667,5.4086,5.3091,5.2748,5.201,4.9195,4.5563,4.4907,4.2759,3.9951,5.7077,5.8441,5.9944,6.0555,6.1447,6.2044,6.2278,6.4348,6.7064,7.0371,7.3661,7.6399,7.7829,7.9023,7.9406,7.8532,7.8565,7.8111,7.7138,7.6943,7.7285,7.837,7.6718,7.6233,7.6987,7.27,6.9422,6.7136,6.3808,6.1227,5.9379,5.8429,5.797,5.8055,5.747,5.98,6.4328,6.6854,6.9931,7.3269,7.4459,7.475,0.0,7.5534,7.5534,7.5098,7.6114,7.6462,7.6462,7.6462,7.6462,7.6462,7.6462,7.6462,7.6462,7.6283,7.5678,7.5306,7.5369,7.5215,7.4772,7.4069,7.3592,7.2777,7.0922,7.1035,7.1316,7.0501,7.1372,7.2018,7.1091,6.8161,6.4444,5.9686,5.7135,5.5543,5.5203,5.5386,5.5595,5.5647,5.551,5.4971,5.3984,5.4295,5.4289,0.0,0.0,5.3818,5.5211,5.4127,5.3912,5.5164,5.464,5.4234,5.4023,5.3828,5.3828,5.4043,5.4902,5.5312,5.5332,5.6191,5.6368,5.6134,5.5688,5.5299,5.4825,5.3522,5.2722,5.2305,5.0395,4.7238,4.3636,4.2774,4.0823,3.8664,6.0423,6.2604,6.4354,6.3835,6.6779,6.8597,6.6363,6.768,6.978,7.1953,7.5318,7.7421,7.7322,7.8725,7.9375,7.8835,7.8453,7.7719,7.645,7.7655,7.8291,7.7949,7.9147,8.0151,8.0863,7.8111,7.4557,7.0345,6.8023,6.4547,6.0206,5.9486,5.9147,5.9159,5.8596,6.0264,6.3951,6.9379,7.2195,7.3153,7.4924,7.5592,7.5563,7.6114,7.5998,7.5592,7.6143,7.6433,7.6579,7.6579,7.6637,7.6695,7.6608,7.6579,7.655,7.601,7.5526,7.5067,7.476,7.4719,7.4828,7.4912,7.5306,7.5278,7.3816,7.3479,7.3648,7.4266,7.3142,7.3114,7.6409,7.0666,6.3619,5.828,5.617,5.5308,5.5517,5.5804,5.5778,5.5177,5.5426,0.0,5.4193,0.0,0.0,0.0,0.0,5.2996,5.3464,5.3255,5.3526,5.4858,5.3874,5.3574,5.3848,5.3633,5.3672,5.3945,5.4922,5.539,5.541,5.6211,5.6368,5.5705,5.5609,5.4946,5.3904,5.3363,5.2509,5.1485,4.8225,4.5596,4.3421,4.0838,3.865,3.6941,6.2577,6.5061,6.6726,6.6088,6.8512,7.1059,7.2349,7.3668,7.4823,7.5393,7.8106,7.9793,7.9197,7.9749,7.9793,7.9232,7.9406,7.9037,7.7949,7.8665,7.9039,7.8694,7.8953,7.9406,8.0151,7.7366,7.4891,7.2972,6.9614,6.614,6.2682,6.1093,6.0138,5.9737,5.8801,6.1251,6.6447,7.0105,7.295,7.5069,7.594,7.5969,7.5534,7.5621,7.5592,7.5534,7.565,7.6346,7.7246,7.7246,7.7595,7.7972,7.742,7.7246,7.713,7.6608,7.5859,7.5249,7.5067,7.4719,7.4294,7.48,7.4631,7.4547,7.525,7.5418,7.5587,7.6205,7.6458,7.5988,7.3931,6.9493,6.501,6.0996,6.0509,6.111,6.2522,6.1607,6.0388,5.9523,5.9386,5.8345,5.5254,5.4497,0.0,0.0,0.0,0.0,5.5956,5.2374,5.1788,5.5254,5.4345,5.3594,5.2949,5.3945,5.4121,5.3496,5.5078,5.582,5.584,5.6348,5.6368,5.5686,5.4569,5.3817,5.3401,5.1899,5.1,5.0508,4.6587,4.4521,4.3206,3.9118,3.7356,3.6941,6.6022,6.7844,6.9334,6.9368,7.2084,7.4767,7.6225,7.7874,7.8503,7.7086,7.8113,7.8875,7.8511,7.9363,7.9749,7.9419,7.9276,7.9056,7.8756,7.8579,7.8648,7.9054,7.9004,7.9244,7.9957,7.8985,7.6686,7.3026,7.1278,6.8161,6.3676,6.2179,6.1247,6.0849,6.1498,6.3486,6.6651,7.0889,7.3182,7.414,7.5795,7.5679,7.4605,7.5243,7.5301,7.504,7.5388,7.6317,7.7391,7.7391,7.7624,7.7885,7.7914,7.7914,7.7703,7.7078,7.6272,7.5581,7.5116,7.4578,7.4097,7.4378,7.4238,7.4266,7.5193,7.5671,7.6064,7.6683,7.7273,7.6611,7.2849,6.8908,6.5414,6.3276,6.1868,6.1764,6.3803,6.3646,6.2918,6.1888,6.1906,6.0695,5.7638,5.6775,0.0,0.0,0.0,0.0,0.0,5.1897,5.1956,5.5297,5.458,5.3945,5.373,5.4141,5.4238,5.4062,5.5332,5.5937,5.5957,5.596,5.5725,5.5275,5.4232,5.3512,5.3174,5.1752,5.0697,4.9159,4.5676,4.3503,4.1707,3.8405,3.7088,3.6941,6.9599,7.0825,7.2051,7.278,7.5662,7.808,7.8676,8.0366,8.073,7.8411,7.798,7.7815,7.7682,7.8709,7.9471,7.9604,7.9107,7.8966,7.9397,7.854,7.8481,7.9284,7.9004,7.9244,7.9957,8.0507,7.8435,7.3642,7.2864,6.9885,6.4898,6.3128,6.2473,6.281,6.4035,6.5647,6.7903,7.1464,7.3095,7.3385,7.5272,7.5156,7.3908,7.4924,7.4982,7.4605,7.5272,7.623,7.7217,7.7362,7.7507,7.7711,7.8233,7.8407,7.8253,7.7419,7.6763,7.6208,7.5453,7.4688,7.421,7.421,7.4013,7.3985,7.4603,7.5137,7.5671,7.6289,7.6667,7.5734,7.1825,6.8945,6.645,6.4848,6.3045,6.2548,6.4508,6.4848,6.4665,6.3826,6.3124,6.1939,5.9642,5.8228,0.0,0.0,0.0,0.0,5.295,5.1892,5.23,5.4785,5.4062,5.373,5.3984,5.4199,5.4375,5.4551,5.5586,5.6074,5.5862,5.5785,5.5294,5.4666,5.4139,5.3396,5.2815,5.1745,5.0169,4.8158,4.5019,4.2319,4.0329,3.8167,3.7195,3.6941,7.2548,7.3873,7.5098,7.5794,7.7848,7.9438,7.9504,8.0233,8.0697,8.0432,7.9836,7.9173,7.8477,7.8544,7.8908,7.9571,7.9571,7.9727,8.0122,7.9866,7.9528,7.9382,7.9119,7.9244,7.9957,8.0021,7.9179,7.7301,7.4095,7.0889,6.7748,6.402,6.3725,6.6273,6.4215,6.6902,7.3059,7.1531,7.2631,7.5214,7.4837,7.4576,7.443,7.4547,7.4576,7.4605,7.5272,7.5969,7.6637,7.7217,7.7798,7.832,7.8378,7.8407,7.8253,7.776,7.7391,7.6864,7.6419,7.5651,7.4856,7.4856,7.4013,7.3339,7.3957,7.4154,7.4378,7.4969,7.4743,7.3482,7.0097,7.0198,6.9564,6.5214,6.6076,6.7514,6.8246,6.707,6.6146,6.6284,6.3278,6.0763,6.0292,5.6093,0.0,0.0,5.437,0.0,5.5377,5.2128,5.1375,5.3457,5.2715,5.209,5.1738,5.4023,5.4824,5.4121,5.5742,5.631,5.5667,5.5705,5.5079,5.3997,5.3606,5.2805,5.1832,4.9757,4.8625,4.7959,4.3499,4.1341,4.0385,3.8249,3.7195,3.6941,7.6291,7.6457,7.7053,7.8643,7.9339,8.0233,8.1989,8.1757,8.1525,8.1956,8.0631,7.967,7.9802,7.9836,7.9935,8.0233,8.0266,8.0399,8.0587,8.0142,7.9805,7.9691,7.9542,7.9665,7.9957,8.0378,7.9471,7.7204,7.4484,7.1666,6.8849,6.7701,6.8309,7.0423,6.9838,7.1182,7.3881,7.4131,7.4459,7.4953,7.5069,7.4663,7.4024,7.4372,7.475,7.5156,7.5417,7.5911,7.6491,7.6753,7.7275,7.7885,7.8291,7.8407,7.8311,7.8035,7.7549,7.7035,7.6798,7.614,7.5502,7.5502,7.4856,7.4266,7.4519,7.4856,7.5109,7.4969,7.4139,7.3068,7.1644,7.0013,6.8769,6.8664,6.8272,6.856,7.0154,7.0102,6.9709,6.929,6.7477,6.5633,6.3877,5.991,5.7393,0.0,0.0,0.0,5.3857,5.2169,5.1368,5.2148,5.3379,5.3555,5.2598,5.4394,5.5137,5.4805,5.5592,5.5939,5.5725,5.5079,5.4214,5.3544,5.3137,5.2793,5.2379,4.9465,4.7659,4.629,4.2976,4.0573,3.8972,3.7874,3.7448,3.7195,7.9405,7.9239,7.967,8.1658,8.1558,8.1856,8.3711,8.2916,8.232,8.2817,8.1359,8.0366,8.0664,8.0697,8.0763,8.0995,8.1028,8.1094,8.1326,8.088,8.0541,8.0427,8.0457,8.0398,8.028,8.0766,8.0151,7.837,7.5779,7.348,7.1472,7.0832,7.2151,7.4945,7.4426,7.4674,7.5565,7.6027,7.5597,7.4576,7.4837,7.4518,7.3937,7.4576,7.5098,7.5534,7.5708,7.6085,7.6462,7.6462,7.6753,7.7246,7.7914,7.7963,7.7925,7.775,7.7291,7.6934,7.6788,7.6373,7.5952,7.6121,7.5699,7.5221,7.5221,7.5418,7.5315,7.4362,7.3484,7.2798,7.2239,7.0004,6.856,6.9919,6.9501,6.9318,7.0259,7.087,7.094,7.0086,6.8194,6.656,6.586,6.1409,5.8545,5.8945,0.0,5.1026,5.2956,5.2025,5.1547,5.2148,5.373,5.416,5.3359,5.4648,5.5312,5.5312,5.5534,5.5725,5.551,5.4214,5.3563,5.3091,5.2815,5.24,5.1725,4.8803,4.6339,4.4417,4.1639,3.9415,3.7809,3.7809,3.7569,3.7235,8.1459,8.232,8.3314,8.4805,8.5037,8.4805,8.4109,8.338,8.2883,8.2883,8.2221,8.1492,8.0763,8.0697,8.0995,8.1724,8.179,8.2088,8.2817,8.251,8.228,8.1934,8.1701,8.1349,8.1025,8.1025,8.1382,8.2062,7.8499,7.6751,7.6653,7.2684,7.4026,7.9742,7.6494,7.6907,7.9694,7.6939,7.5283,7.4459,7.3879,7.3995,7.4576,7.5243,7.5504,7.5592,7.623,7.6462,7.6462,7.6462,7.6462,7.6579,7.7217,7.7116,7.6799,7.7091,7.6792,7.6487,7.6816,7.6373,7.6036,7.6654,7.6345,7.5896,7.5896,7.539,7.4465,7.2641,7.2315,7.2012,7.0808,7.0572,6.9814,6.7566,6.9527,7.0572,6.835,6.8669,6.8654,6.78,6.2777,6.0983,6.4881,5.8496,5.6415,6.1802,5.6663,5.3464,5.3914,5.1999,5.1715,5.3926,5.3183,5.2949,5.3359,5.4648,5.5312,5.5312,5.5534,5.551,5.4882,5.3563,5.3109,5.3109,5.3109,5.1761,4.9249,4.6665,4.4254,4.2046,3.9504,3.8076,3.7809,3.7809,3.7448,3.6927,8.3976,8.4241,8.4573,8.5037,8.4705,8.444,8.4705,8.3711,8.3248,8.4275,8.3778,8.3413,8.3678,8.2784,8.2287,8.2519,8.3016,8.3266,8.3268,8.3498,8.3408,8.3085,8.2845,8.2604,8.2515,8.2515,8.2612,8.2839,8.0248,7.9212,7.9665,7.7861,7.9204,8.2717,8.0745,8.0197,8.0563,7.8625,7.7039,7.5875,7.5218,7.5011,7.5214,7.5417,7.5766,7.6172,7.6375,7.6462,7.6462,7.6462,7.6312,7.601,7.6212,7.5981,7.5477,7.5467,7.5044,7.4649,7.5408,7.5727,7.6036,7.6654,7.6683,7.6514,7.6514,7.6036,7.5219,7.3786,7.321,7.2497,7.0887,7.0259,6.9866,6.9553,7.0259,7.0729,7.0363,7.062,7.0513,7.0009,6.803,6.7081,6.7995,6.2885,5.9639,5.9726,5.4795,5.2388,5.3569,5.3275,5.2581,5.1836,5.3555,5.3984,5.293,5.4512,5.5312,5.5312,5.5126,5.4647,5.3563,5.3327,5.3109,5.3091,5.2834,5.1493,4.9232,4.641,4.4239,4.2076,3.9494,3.8397,3.8116,3.8116,3.7742,3.7221,8.5103,8.5567,8.5931,8.5931,8.5765,8.56,8.55,8.497,8.4672,8.507,8.4705,8.4606,8.507,8.4275,8.3745,8.3745,8.4142,8.4292,8.4176,8.4339,8.4215,8.3857,8.3649,8.3407,8.3195,8.3195,8.3195,8.3195,8.1835,8.1543,8.2223,8.177,8.2644,8.4588,8.3642,8.2298,8.0494,7.9606,7.7794,7.5791,7.5656,7.5504,7.5534,7.5766,7.6114,7.6462,7.6462,7.6462,7.6462,7.6462,7.6132,7.583,7.5678,7.5096,7.4364,7.4306,7.3659,7.3252,7.3985,7.4716,7.539,7.6261,7.6654,7.6823,7.6823,7.6191,7.5207,7.3786,7.2798,7.1837,7.0309,6.9997,7.0076,7.0232,7.0807,7.1356,7.1696,7.1718,7.1214,7.0014,6.9205,6.817,6.7076,6.336,6.0435,5.9318,5.5548,5.3671,5.4379,5.3629,5.2936,5.2715,5.4258,5.4551,5.3457,5.4687,5.5312,5.5312,5.5126,5.4214,5.3109,5.3109,5.3109,5.3091,5.2852,5.1074,4.7899,4.6333,4.3716,4.0728,3.9386,3.8464,3.8076,3.8076,3.7716,3.6998,8.5103,8.6229,8.719,8.719,8.772,8.772,8.6362,8.6726,8.666,8.5368,8.5202,8.5202,8.5268,8.5268,8.5268,8.5268,8.5202,8.5202,8.5169,8.5119,8.4885,8.426,8.426,8.39,8.3325,8.3325,8.3325,8.3325,8.3325,8.3648,8.4296,8.4296,8.462,8.5268,8.5268,8.3353,7.9983,8.0014,7.7886,7.478,7.5301,7.5592,7.565,7.623,7.6462,7.6462,7.6462,7.6462,7.6462,7.6462,7.6132,7.5678,7.5374,7.4487,7.3671,7.3671,7.2913,7.2243,7.2861,7.3479,7.4266,7.5531,7.6373,7.6879,7.6879,7.6201,7.4856,7.2886,7.1847,7.0691,6.925,6.9893,7.0468,6.9893,7.1173,7.2245,7.2297,7.1856,7.0859,6.8732,6.7157,6.562,6.349,6.1079,5.9721,6.0176,5.8017,5.6533,5.6131,5.3161,5.2951,5.5723,5.5098,5.4668,5.4629,5.5058,5.5293,5.5142,5.4893,5.4195,5.3109,5.3109,5.3109,5.3109,5.2891,5.0186,4.5901,4.5692,4.3003,3.8718,3.8718,3.8357,3.7849,3.7849,3.7489,3.6759,8.5103,8.5832,8.6428,8.6428,8.656,8.656,8.6229,8.5865,8.5699,8.5898,8.5931,8.613,8.6693,8.6759,8.6759,8.6759,8.6229,8.5814,8.5578,8.5834,8.5767,8.5401,8.5154,8.4906,8.4782,8.4782,8.4782,8.4782,8.4782,8.4879,8.5041,8.5041,8.5106,8.5268,8.5268,8.3899,8.1516,8.0978,7.9141,7.6818,7.6386,7.623,7.6259,7.6404,7.6462,7.6462,7.6462,7.6462,7.6462,7.6462,7.5981,7.5374,7.5221,7.4362,7.324,7.324,7.2299,7.1597,7.2243,7.2861,7.362,7.4856,7.6317,7.7469,7.7469,7.6814,7.5626,7.4001,7.338,7.2361,7.0533,7.0755,7.1147,7.1017,7.1356,7.16,7.1692,7.1343,7.0681,6.979,6.908,6.7875,6.6232,6.425,6.1692,5.8905,5.6411,5.4775,5.426,5.2673,5.2916,5.4902,5.4785,5.4531,5.418,5.4609,5.4739,5.4531,5.4314,5.3915,5.3109,5.3109,5.3109,5.2891,5.1102,4.8617,4.5692,4.3883,4.1403,3.8718,3.8718,3.8504,3.8143,3.8143,3.7556,3.638,8.56,8.6196,8.666,8.666,8.6958,8.7057,8.6726,8.6627,8.6593,8.666,8.666,8.6825,8.7223,8.7289,8.7289,8.7289,8.6892,8.6693,8.6456,8.6699,8.6535,8.6046,8.5923,8.5642,8.53,8.5268,8.5268,8.5268,8.5268,8.5268,8.5268,8.5268,8.5268,8.5268,8.4603,8.3094,8.0955,8.0172,7.8566,7.665,7.6471,7.6637,7.6898,7.6898,7.7072,7.7333,7.7333,7.7159,7.6898,7.6747,7.5937,7.5249,7.4914,7.4225,7.3507,7.3507,7.2636,7.1737,7.2102,7.2833,7.3901,7.5418,7.6542,7.7194,7.7146,7.6373,7.5371,7.3878,7.2995,7.211,7.0926,7.1043,7.1409,7.1409,7.1644,7.1835,7.1904,7.1601,7.1065,7.0526,6.9232,6.7552,6.5495,6.3569,6.1021,5.8085,5.6283,5.4962,5.4542,5.3728,5.3659,5.4648,5.4492,5.4375,5.4336,5.4734,5.4647,5.4257,5.4232,5.3792,5.3109,5.3109,5.2454,5.1322,5.0151,4.7486,4.411,4.2761,4.0972,3.8718,3.8584,3.8397,3.8223,3.7969,3.721,3.6471,8.5997,8.6593,8.709,8.709,8.7687,8.7952,8.7355,8.7786,8.7952,8.7355,8.7289,8.7289,8.7289,8.7289,8.7289,8.7289,8.7289,8.7289,8.7289,8.7289,8.7017,8.6413,8.6291,8.5923,8.5425,8.53,8.5268,8.5268,8.5268,8.5268,8.5268,8.5268,8.5268,8.5268,8.3929,8.2339,8.0304,7.9395,7.7793,7.5975,7.6496,7.6927,7.742,7.7507,7.7914,7.8407,7.8291,7.7885,7.7239,7.6847,7.5985,7.5067,7.476,7.4296,7.4013,7.4013,7.3283,7.244,7.2355,7.3142,7.4463,7.6345,7.6823,7.6639,7.6429,7.5704,7.45,7.3059,7.2151,7.1356,7.0807,7.1173,7.1435,7.1069,7.1748,7.2148,7.1646,7.1422,7.1089,7.0342,6.8278,6.5872,6.3294,6.1215,5.9266,5.7215,5.6456,5.5869,5.5346,5.4951,5.4609,5.4687,5.4316,5.4336,5.4765,5.4858,5.482,5.4257,5.3971,5.3724,5.3109,5.3109,5.1761,4.9505,4.9062,4.6366,4.2304,4.1861,4.0498,3.8691,3.837,3.8263,3.8183,3.7595,3.6933,3.622,8.5268,8.5865,8.6328,8.6328,8.6958,8.7389,8.7289,8.7355,8.7389,8.7289,8.7289,8.7289,8.7289,8.7289,8.7289,8.7289,8.7289,8.7289,8.7289,8.7017,8.681,8.6689,8.6169,8.5799,8.5675,8.5425,8.5268,8.5268,8.5268,8.5268,8.5268,8.5268,8.5268,8.5268,8.5016,8.4123,8.2528,8.1138,7.9607,7.8176,7.7558,7.7333,7.7478,7.803,7.832,7.832,7.7769,7.7355,7.6876,7.6176,7.5459,7.4606,7.4606,7.4296,7.4013,7.4013,7.3901,7.362,7.3114,7.3479,7.4463,7.6345,7.6823,7.6639,7.6429,7.5704,7.45,7.3059,7.2494,7.1984,7.1382,7.1748,7.1513,6.9553,7.0964,7.114,6.7928,6.9065,6.9333,6.6787,6.6055,6.4671,6.1619,6.0351,5.8901,5.6815,5.5403,5.4564,5.4464,5.4293,5.4297,5.4668,5.4609,5.4785,5.5195,5.4703,5.4321,5.4257,5.3671,5.3446,5.3109,5.3109,5.1761,4.93,4.7263,4.4789,4.209,4.0051,3.8936,3.8691,3.837,3.8263,3.8183,3.7144,3.6259,3.5545,8.6262,8.6527,8.6759,8.6759,8.7057,8.7289,8.7289,8.7289,8.7289,8.7289,8.7289,8.7289,8.7289,8.7289,8.7289,8.7289,8.7289,8.7289,8.7289,8.717,8.6897,8.6535,8.6652,8.664,8.6687,8.656,8.6433,8.6433,8.6433,8.6239,8.5883,8.5883,8.5689,8.53,8.4475,8.3245,8.185,8.0339,7.9023,7.7976,7.7578,7.7827,7.8465,7.8756,7.9104,7.9394,7.9075,7.8214,7.727,7.6645,7.5609,7.4606,7.4324,7.4169,7.4013,7.4013,7.4013,7.4041,7.4069,7.4069,7.4378,7.5924,7.6317,7.6135,7.5268,7.5121,7.4608,7.2799,7.2463,7.2219,7.1931,7.2114,7.1958,7.0886,7.1157,7.0836,6.8802,6.8917,6.8221,6.5948,6.4663,6.3077,6.0768,5.9051,5.7403,5.6266,5.5525,5.4925,5.4521,5.4561,5.4805,5.5019,5.5234,5.5332,5.5312,5.4917,5.4489,5.4257,5.3606,5.3161,5.3109,5.1761,4.993,4.747,4.4999,4.2532,4.031,3.9181,3.8611,3.8437,3.8143,3.8036,3.7956,3.6696,3.5905,3.5533,8.7289,8.7289,8.7289,8.7289,8.7289,8.7289,8.7289,8.7289,8.7289,8.7289,8.7289,8.7289,8.7289,8.7289,8.7289,8.7289,8.7289,8.7289,8.7289,8.7289,8.7116,8.6643,8.7176,8.7456,8.7405,8.7437,8.7437,8.7437,8.7437,8.7081,8.6401,8.6401,8.6012,8.5268,8.4058,8.295,8.185,8.0072,7.9062,7.8417,7.8015,7.8436,7.9307,7.9481,7.9859,8.0294,7.9963,7.8954,7.7776,7.6992,7.5782,7.4649,7.4225,7.4013,7.4013,7.4013,7.4013,7.4182,7.4969,7.4716,7.4547,7.5811,7.5848,7.5365,7.414,7.4209,7.3962,7.2437,7.2193,7.2297,7.2297,7.2297,7.2114,7.1592,7.1218,7.0513,6.9322,6.9075,6.794,6.5359,6.3712,6.1818,5.9831,5.7852,5.6375,5.5582,5.5588,5.5224,5.4635,5.5129,5.5488,5.5605,5.582,5.582,5.5605,5.5203,5.4674,5.4257,5.3267,5.298,5.2962,5.0417,4.7972,4.566,4.3248,4.0831,3.8718,3.8571,3.8397,3.8223,3.7849,3.7702,3.7662,3.6236,3.5751,3.5456,8.7289,8.7289,8.7289,8.7289,8.7289,8.7289,8.7289,8.7289,8.7289,8.7289,8.7289,8.7289,8.7289,8.7289,8.7289,8.7289,8.7289,8.7289,8.7289,8.7289,8.7435,8.7732,8.7837,8.7724,8.7437,8.7437,8.7437,8.7437,8.7437,8.7081,8.6401,8.6401,8.6012,8.53,8.5142,8.5142,8.4795,8.2535,8.1568,8.1298,7.9834,7.922,7.9365,7.9975,8.0265,8.0207,7.9127,7.8552,7.782,7.6151,7.5227,7.4772,7.421,7.4013,7.4013,7.4013,7.4013,7.4294,7.5502,7.5362,7.5165,7.643,7.5643,7.4387,7.343,7.3084,7.2665,7.1634,7.1905,7.2297,7.2297,7.2297,7.1592,6.9448,7.0516,7.041,6.7246,6.8769,6.8346,6.3847,6.3279,6.1951,5.8398,5.7269,5.6177,5.5184,5.5387,5.5224,5.4023,5.5215,5.6074,5.6484,5.6133,5.6113,5.6484,5.549,5.4674,5.4238,5.3205,5.2559,5.2559,4.9751,4.7506,4.5644,4.2798,4.0434,3.8691,3.8103,3.8036,3.8183,3.7635,3.7422,3.7144,3.5738,3.5164,3.4954,8.7289,8.7289,8.7289,8.7289,8.7289,8.7289,8.7289,8.7289,8.7289,8.7289,8.7289,8.7289,8.7289,8.7289,8.7289,8.7289,8.7289,8.7289,8.7289,8.7687,8.8008,8.8119,8.8209,8.8441,8.8765,8.8765,8.8538,8.8085,8.8085,8.7535,8.6401,8.6401,8.6012,8.5268,8.5268,8.4988,8.4468,8.2616,8.1807,8.1473,7.9971,7.954,7.9946,8.0207,8.0294,8.0265,7.9531,7.871,7.7992,7.7031,7.5876,7.4884,7.4659,7.4322,7.4013,7.4013,7.4294,7.4772,7.5671,7.5418,7.4969,7.5053,7.4835,7.4387,7.3403,7.303,7.2718,7.2053,7.214,7.2297,7.2297,7.2297,7.201,7.1121,7.0714,7.0241,6.9373,6.804,6.632,6.3929,6.2404,6.0484,5.8058,5.709,5.6177,5.4984,5.5387,5.5224,5.4023,5.5234,5.6133,5.6582,5.6426,5.6076,5.5766,5.518,5.4326,5.3435,5.2842,5.1729,4.9933,4.7357,4.5027,4.3021,4.0348,3.8837,3.8143,3.7916,3.7782,3.7702,3.7462,3.7275,3.6879,3.5661,3.5164,3.4954,8.7289,8.7289,8.7289,8.7289,8.7289,8.7289,8.7289,8.7289,8.7289,8.7289,8.7289,8.7289,8.7289,8.7289,8.7289,8.7289,8.7289,8.7355,8.7587,8.8361,8.8877,8.8748,8.883,8.9057,8.9575,8.9348,8.8992,8.8506,8.8279,8.7567,8.6401,8.6401,8.6012,8.53,8.5527,8.5374,8.4751,8.3207,8.2367,8.2196,8.0411,7.9888,8.0294,8.0294,8.0136,7.9978,7.9632,7.8895,7.8044,7.7496,7.6253,7.5193,7.4997,7.4519,7.4069,7.4266,7.4603,7.5081,7.5727,7.5727,7.5259,7.468,7.438,7.4116,7.3099,7.2525,7.2375,7.2105,7.201,7.2088,7.2271,7.214,7.2088,7.2096,7.1056,7.0272,6.9912,6.7616,6.5282,6.3469,6.1597,5.9894,5.8079,5.7235,5.6383,5.5185,5.5588,5.5563,5.4609,5.5586,5.6269,5.6582,5.6582,5.5882,5.4705,5.4679,5.4043,5.2581,5.2222,5.0688,4.8221,4.5704,4.336,4.1324,3.872,3.7635,3.7809,3.7635,3.7489,3.7382,3.7275,3.7114,3.6484,3.5609,3.5151,3.4705,8.7289,8.7289,8.7289,8.7289,8.7289,8.7289,8.7289,8.7289,8.7289,8.7289,8.7289,8.7289,8.7289,8.7289,8.7289,8.7289,8.7289,8.7587,8.8283,8.9339,8.988,8.9502,8.9578,8.9575,8.9575,8.8862,8.8506,8.8474,8.7761,8.7081,8.6401,8.6401,8.6012,8.53,8.6077,8.6401,8.6243,8.4619,8.3911,8.3716,8.1344,8.0294,8.0294,8.0294,7.9978,7.9472,7.9181,7.8698,7.8318,7.721,7.643,7.5783,7.5137,7.4519,7.4154,7.4744,7.494,7.5081,7.5727,7.6345,7.6471,7.5626,7.4773,7.3776,7.2204,7.1676,7.1409,7.1409,7.1409,7.1592,7.2193,7.1801,7.1418,7.149,7.1214,7.0118,6.8006,6.7357,6.5847,6.2084,6.1314,6.0239,5.812,5.7504,5.6835,5.5628,5.605,5.6282,5.5898,5.6348,5.6582,5.6582,5.6582,5.5747,5.3632,5.403,5.359,5.2133,5.1522,5.0008,4.7844,4.5086,4.2913,4.1086,3.8266,3.7261,3.7782,3.7195,3.7128,3.7342,3.7048,3.6484,3.6041,3.5374,3.4705,3.4259,8.7289,8.7289,8.7289,8.7289,8.7289,8.7289,8.7289,8.7687,8.7819,8.7322,8.7687,8.7819,8.7322,8.772,8.7819,8.7322,8.8184,8.9078,8.9807,8.9775,8.9858,9.0222,9.0098,8.961,8.883,8.8603,8.802,8.7049,8.6822,8.6336,8.5624,8.5624,8.5494,8.53,8.6077,8.666,8.6889,8.4838,8.4188,8.436,8.1521,8.0294,8.0294,7.9949,7.9791,7.9472,7.8859,7.8565,7.8374,7.7661,7.702,7.6345,7.5278,7.4519,7.4069,7.4238,7.4603,7.5081,7.5727,7.5833,7.5679,7.4937,7.4444,7.3884,7.2712,7.1966,7.1513,7.1931,7.1696,7.1461,7.1644,7.1513,7.1288,7.0921,7.0957,7.0118,6.8191,6.618,6.4096,6.2084,5.9962,5.8683,5.7918,5.7102,5.6556,5.6071,5.569,5.5769,5.5898,5.6055,5.6269,5.6582,5.5863,5.5032,5.3632,5.403,5.3247,5.1099,5.1165,4.9001,4.5069,4.4114,4.1798,3.8266,3.7243,3.7048,3.7195,3.7008,3.6981,3.7048,3.6511,3.6263,3.6041,3.4941,3.447,3.4259,8.7289,8.7289,8.7289,8.7289,8.7289,8.7355,8.7654,8.8051,8.815,8.7753,8.8316,8.8482,8.7753,8.8316,8.8581,8.815,8.9177,9.0039,9.0502,9.0269,9.0252,9.0583,9.0064,8.9318,8.8506,8.7955,8.7243,8.6401,8.611,8.5721,8.5268,8.5268,8.543,8.5753,8.6498,8.6792,8.6779,8.5027,8.4123,8.3756,8.133,8.0294,8.0294,7.9791,7.9472,7.9341,7.8536,7.8212,7.8049,7.7858,7.7301,7.6598,7.5334,7.4688,7.4378,7.4378,7.4828,7.5446,7.6092,7.6033,7.5572,7.4856,7.4355,7.3613,7.2785,7.2095,7.1801,7.1931,7.1487,7.1069,7.1069,7.0886,7.0714,7.0462,7.0292,6.9254,6.679,6.4691,6.2607,6.0605,5.8704,5.7566,5.7401,5.6732,5.589,5.5566,5.514,5.5176,5.543,5.5605,5.5801,5.6074,5.5186,5.4436,5.3386,5.3402,5.2431,5.0725,5.0963,4.8579,4.3851,4.3851,4.1258,3.6941,3.6941,3.6941,3.6941,3.6941,3.6706,3.6484,3.6289,3.5831,3.5399,3.4482,3.406,3.3812,8.7289,8.7289,8.7289,8.7355,8.7355,8.762,8.8316,8.8449,8.8482,8.8415,8.9045,8.9244,8.8482,8.9078,8.9475,8.9409,9.0105,9.0569,9.0602,9.0856,9.0933,9.0484,8.9413,8.8765,8.8312,8.7081,8.6369,8.6304,8.5624,8.5268,8.5268,8.5268,8.5689,8.6433,8.7114,8.6979,8.6274,8.5335,8.402,8.2589,8.102,8.0294,8.0294,7.9791,7.9312,7.902,7.8536,7.8049,7.7694,7.7694,7.7301,7.6598,7.539,7.4969,7.494,7.494,7.5362,7.5952,7.6465,7.6398,7.5984,7.517,7.415,7.3316,7.2472,7.2271,7.2062,7.1513,7.0938,7.052,7.052,7.0076,6.9709,6.9958,6.9527,6.789,6.4334,6.3141,6.1346,5.801,5.7401,5.6987,5.6552,5.6136,5.5383,5.4184,5.4365,5.4648,5.4687,5.5039,5.5273,5.5312,5.4626,5.3996,5.2988,5.2324,5.1701,5.0725,5.0498,4.814,4.3851,4.3636,4.1041,3.6941,3.6941,3.6941,3.6941,3.6941,3.6484,3.6054,3.6054,3.5399,3.4271,3.4259,3.3812,3.3376,8.7289,8.7289,8.7455,8.7985,8.8084,8.8349,8.9078,8.9674,8.984,8.9244,8.9807,9.0006,8.9244,8.984,9.0039,8.9475,9.0105,9.0767,9.1297,9.0994,9.0448,8.9764,8.8407,8.7533,8.6887,8.6563,8.611,8.5527,8.5365,8.5268,8.5268,8.5268,8.5689,8.6433,8.7114,8.7664,8.785,8.576,8.4751,8.4167,8.1455,8.0294,8.0136,7.9501,7.902,7.8859,7.8184,7.7858,7.7694,7.7694,7.7301,7.6683,7.5924,7.5334,7.494,7.494,7.5025,7.5231,7.5648,7.5214,7.4431,7.4042,7.3316,7.2472,7.2297,7.1931,7.1565,7.1435,7.0598,6.9893,6.9893,6.9449,6.9238,6.9219,6.8922,6.7285,6.3572,6.2383,6.0584,5.685,5.6552,5.6531,5.6076,5.5556,5.4784,5.3561,5.3867,5.4316,5.4668,5.4765,5.4961,5.5293,5.3919,5.3292,5.2988,5.1627,5.1006,5.0725,4.8999,4.6627,4.3851,4.1909,3.9513,3.6941,3.6941,3.6941,3.6941,3.6941,3.6484,3.6054,3.5622,3.4941,3.4259,3.3824,3.3612,3.3376,8.8217,8.8283,8.8415,8.878,8.8846,8.9078,8.984,9.0271,9.037,9.0006,9.0569,9.0734,9.0039,9.0602,9.0867,9.0469,9.0801,9.1198,9.1562,9.0966,9.0255,8.9534,8.8179,8.7114,8.6433,8.6045,8.5689,8.5268,8.5268,8.5462,8.5818,8.5818,8.6401,8.7437,8.7794,8.792,8.7732,8.5743,8.446,8.3607,8.1301,8.0294,8.0136,7.9341,7.902,7.8859,7.8021,7.7694,7.7694,7.7694,7.7469,7.7076,7.6177,7.5671,7.5334,7.5025,7.5165,7.5427,7.5377,7.4992,7.4453,7.3726,7.2969,7.2297,7.2297,7.2062,7.167,7.1121,7.0546,6.9945,6.9396,6.8955,6.8732,6.9014,6.7441,6.5477,6.3013,6.1201,5.8962,5.6217,5.6097,5.586,5.5016,5.4416,5.3648,5.3027,5.3457,5.3906,5.4336,5.4375,5.4267,5.4274,5.3233,5.2496,5.227,5.1233,5.0725,5.0725,4.8351,4.5989,4.3636,4.1475,3.9089,3.6941,3.6941,3.6941,3.6941,3.6719,3.6289,3.5622,3.4954,3.4495,3.3836,3.3612,3.3376,3.3376,8.9277,8.9409,8.9442,8.9575,8.9608,8.984,9.0602,9.0701,9.0701,9.0701,9.1231,9.1364,9.0767,9.1231,9.1596,9.1596,9.1596,9.1596,9.1471,9.0834,9.0059,8.9211,8.7984,8.6919,8.6239,8.5591,8.5268,8.5268,8.5268,8.5656,8.6401,8.6401,8.7146,8.8506,8.8506,8.8171,8.7529,8.5614,8.4167,8.2891,8.102,8.0294,8.0136,7.9341,7.902,7.8859,7.8021,7.7694,7.7694,7.7694,7.7694,7.7469,7.6289,7.5896,7.5783,7.525,7.5474,7.5904,7.5434,7.5153,7.4689,7.3634,7.2795,7.2271,7.2167,7.2088,7.1748,7.0781,7.0442,6.9997,6.903,6.8345,6.8175,6.8835,6.5968,6.348,6.2526,5.9859,5.7414,5.5794,5.5641,5.515,5.3891,5.3286,5.2837,5.2578,5.3008,5.3437,5.3887,5.3906,5.3741,5.3185,5.2588,5.2176,5.1518,5.0914,5.0498,5.0081,4.7701,4.5776,4.3636,4.1041,3.8664,3.6941,3.6941,3.6941,3.6927,3.6276,3.5818,3.5151,3.4482,3.4035,3.3376,3.3376,3.3376,3.3376,8.9277,8.9409,8.9608,9.0271,9.037,9.0602,9.1331,9.143,9.143,9.143,9.1529,9.1529,9.143,9.1529,9.1596,9.1596,9.1596,9.1471,9.1219,9.0247,8.9178,8.8206,8.7142,8.6207,8.5462,8.5332,8.5268,8.5268,8.5268,8.5656,8.6401,8.6401,8.7146,8.8506,8.8506,8.8764,8.9145,8.6213,8.4751,8.4344,8.1455,8.0294,8.0136,7.9341,7.902,7.8859,7.8021,7.7694,7.7694,7.7694,7.7694,7.7469,7.6289,7.5896,7.5868,7.5783,7.584,7.5827,7.5265,7.4947,7.4518,7.2969,7.2472,7.2167,7.1644,7.1147,7.0781,7.0624,6.9788,6.903,6.8873,6.8177,6.7682,6.8322,6.557,6.2885,6.1579,5.9144,5.6811,5.488,5.4327,5.4066,5.3636,5.3286,5.2719,5.2168,5.2558,5.2988,5.3418,5.3457,5.341,5.3185,5.2588,5.2176,5.1518,5.0914,4.9645,4.7701,4.535,4.4066,4.3636,3.9309,3.7162,3.6941,3.6941,3.6941,3.6927,3.6276,3.5818,3.5151,3.4482,3.4035,3.3376,3.3376,3.3376,3.3376,9.0469,9.0635,9.0734,9.1066,9.1099,9.1231,9.1529,9.1596,9.1596,9.1596,9.1596,9.1596,9.1596,9.1596,9.1596,9.1596,9.1596,9.1272,9.05,8.9919,8.8851,8.7395,8.669,8.6045,8.53,8.5268,8.5268,8.5268,8.5268,8.5851,8.6984,8.6984,8.7729,8.9089,8.9089,8.9283,8.9443,8.6213,8.4896,8.4605,8.161,8.0136,7.9791,7.9181,7.8859,7.8536,7.7858,7.7694,7.7694,7.7694,7.7469,7.7048,7.6177,7.5896,7.5896,7.5896,7.5799,7.5596,7.5121,7.4689,7.3978,7.2647,7.2297,7.214,7.1539,7.099,7.0494,7.0154,6.9684,6.9045,6.8591,6.8009,6.7656,6.7877,6.4421,6.1585,6.1189,5.8105,5.543,5.4524,5.376,5.3266,5.3274,5.2736,5.2384,5.2422,5.2832,5.3262,5.3711,5.3527,5.3197,5.2775,5.2157,5.1537,5.1122,5.0725,4.9627,4.7262,4.4923,4.3206,4.1692,3.8445,3.6941,3.6941,3.6941,3.6733,3.6498,3.5831,3.5164,3.4718,3.4048,3.3588,3.3376,3.3376,3.3376,3.3164]},{"header":{"parameterUnit":"m.s-1","parameterCategory":1,"la1":30.6,"la2":28.766,"lo1":-90.7593,"lo2":-88.6598,"dx":0.0162,"dy":0.0183,"nx":116,"ny":114,"refTime":"2022-12-13T06:00:00:Z","depth":0,"parameterNumber":3,"parameterNumberName":"V-component_of_WINDS"},"data":[0.0,0.0,0.0,0.0,0.0,0.0,0.0,0.0,0.0,0.0,0.0,0.0,0.0,0.0,0.0,0.0,0.0,0.0,0.0,0.0,0.0,0.0,0.0,0.0,0.0,0.0,0.0,0.0,0.0,0.0,0.0,0.0,0.0,0.0,0.0,0.0,0.0,0.0,0.0,0.0,0.0,0.0,0.0,0.0,0.0,0.0,0.0,0.0,0.0,0.0,0.0,0.0,0.0,0.0,0.0,0.0,0.0,0.0,0.0,0.0,0.0,0.0,0.0,0.0,0.0,0.0,0.0,0.0,0.0,0.0,0.0,0.0,0.0,0.0,0.0,0.0,0.0,0.0,0.0,0.0,0.0,0.0,0.0,0.0,0.0,0.0,0.0,0.0,0.0,0.0,0.0,0.0,0.0,0.0,0.0,0.0,0.0,0.0,0.0,0.0,0.0,0.0,0.0,0.0,0.0,0.0,0.0,0.0,0.0,0.0,0.0,0.0,0.0,0.0,0.0,0.0,0.0,0.0,0.0,0.0,0.0,0.0,0.0,0.0,0.0,0.0,0.0,0.0,0.0,0.0,0.0,0.0,0.0,0.0,0.0,0.0,0.0,0.0,0.0,0.0,0.0,0.0,0.0,0.0,0.0,0.0,0.0,0.0,0.0,0.0,0.0,0.0,0.0,0.0,0.0,0.0,0.0,0.0,0.0,0.0,0.0,0.0,0.0,0.0,0.0,0.0,0.0,0.0,0.0,0.0,0.0,0.0,0.0,0.0,0.0,0.0,0.0,0.0,0.0,0.0,0.0,0.0,0.0,0.0,0.0,0.0,0.0,0.0,0.0,0.0,0.0,0.0,0.0,0.0,0.0,0.0,0.0,0.0,0.0,0.0,0.0,0.0,0.0,0.0,0.0,0.0,0.0,0.0,0.0,0.0,0.0,0.0,0.0,0.0,0.0,0.0,0.0,0.0,0.0,0.0,0.0,0.0,0.0,0.0,0.0,0.0,0.0,0.0,0.0,0.0,0.0,0.0,0.0,0.0,0.0,0.0,0.0,0.0,0.0,0.0,0.0,0.0,0.0,0.0,0.0,0.0,0.0,0.0,0.0,0.0,0.0,0.0,0.0,0.0,0.0,0.0,0.0,0.0,0.0,0.0,0.0,0.0,0.0,0.0,0.0,0.0,0.0,0.0,0.0,0.0,0.0,0.0,0.0,0.0,0.0,0.0,0.0,0.0,0.0,0.0,0.0,0.0,0.0,0.0,0.0,0.0,0.0,0.0,0.0,0.0,0.0,0.0,0.0,0.0,0.0,0.0,0.0,0.0,0.0,0.0,0.0,0.0,0.0,0.0,0.0,0.0,0.0,0.0,0.0,0.0,0.0,0.0,0.0,0.0,0.0,0.0,0.0,0.0,0.0,0.0,0.0,0.0,0.0,0.0,0.0,0.0,0.0,0.0,0.0,0.0,0.0,0.0,0.0,0.0,0.0,0.0,0.0,0.0,0.0,0.0,0.0,0.0,0.0,0.0,0.0,0.0,0.0,0.0,0.0,0.0,0.0,0.0,0.0,0.0,0.0,0.0,0.0,0.0,0.0,0.0,0.0,0.0,0.0,0.0,0.0,0.0,0.0,0.0,0.0,0.0,0.0,0.0,0.0,0.0,0.0,0.0,0.0,0.0,0.0,0.0,0.0,0.0,0.0,0.0,0.0,0.0,0.0,0.0,0.0,0.0,0.0,0.0,0.0,0.0,0.0,0.0,0.0,0.0,0.0,0.0,0.0,0.0,0.0,0.0,0.0,0.0,0.0,0.0,0.0,0.0,0.0,0.0,0.0,0.0,0.0,0.0,0.0,0.0,0.0,0.0,0.0,0.0,0.0,0.0,0.0,0.0,0.0,0.0,0.0,0.0,0.0,0.0,0.0,0.0,0.0,0.0,0.0,0.0,0.0,0.0,0.0,0.0,0.0,0.0,0.0,0.0,0.0,0.0,0.0,0.0,0.0,0.0,0.0,0.0,0.0,0.0,0.0,0.0,0.0,0.0,0.0,0.0,0.0,0.0,0.0,0.0,0.0,0.0,0.0,0.0,0.0,0.0,0.0,0.0,0.0,0.0,0.0,0.0,0.0,0.0,0.0,0.0,0.0,0.0,0.0,0.0,0.0,0.0,0.0,0.0,0.0,0.0,0.0,0.0,0.0,0.0,0.0,0.0,0.0,0.0,0.0,0.0,0.0,0.0,0.0,0.0,0.0,0.0,0.0,0.0,0.0,0.0,0.0,0.0,0.0,0.0,0.0,0.0,0.0,0.0,0.0,0.0,0.0,0.0,0.0,0.0,0.0,0.0,0.0,0.0,0.0,0.0,0.0,0.0,0.0,0.0,0.0,0.0,0.0,0.0,0.0,0.0,0.0,0.0,0.0,0.0,0.0,0.0,0.0,0.0,0.0,0.0,0.0,0.0,0.0,0.0,0.0,0.0,0.0,0.0,0.0,0.0,0.0,0.0,0.0,0.0,0.0,0.0,0.0,0.0,0.0,0.0,0.0,0.0,0.0,0.0,0.0,0.0,0.0,0.0,0.0,0.0,0.0,0.0,0.0,0.0,0.0,0.0,0.0,0.0,0.0,0.0,0.0,0.0,0.0,0.0,0.0,0.0,0.0,0.0,0.0,0.0,0.0,0.0,0.0,0.0,0.0,0.0,0.0,0.0,0.0,0.0,0.0,0.0,0.0,0.0,0.0,0.0,0.0,0.0,0.0,0.0,0.0,0.0,0.0,0.0,0.0,0.0,0.0,0.0,0.0,0.0,0.0,0.0,0.0,0.0,0.0,0.0,0.0,0.0,0.0,0.0,0.0,0.0,0.0,0.0,0.0,0.0,0.0,0.0,0.0,0.0,0.0,0.0,0.0,0.0,0.0,0.0,0.0,0.0,0.0,0.0,0.0,0.0,0.0,0.0,0.0,0.0,0.0,0.0,0.0,0.0,0.0,0.0,0.0,0.0,0.0,0.0,0.0,0.0,0.0,0.0,0.0,0.0,0.0,0.0,0.0,0.0,0.0,0.0,0.0,0.0,0.0,0.0,0.0,0.0,0.0,0.0,0.0,0.0,0.0,0.0,0.0,0.0,0.0,0.0,0.0,0.0,0.0,0.0,0.0,0.0,0.0,0.0,0.0,0.0,0.0,0.0,0.0,0.0,0.0,0.0,0.0,0.0,0.0,0.0,0.0,0.0,0.0,0.0,0.0,0.0,0.0,0.0,0.0,0.0,0.0,0.0,0.0,0.0,0.0,0.0,0.0,0.0,0.0,0.0,0.0,0.0,0.0,0.0,0.0,0.0,0.0,0.0,0.0,0.0,0.0,0.0,0.0,0.0,0.0,0.0,0.0,0.0,0.0,0.0,0.0,0.0,0.0,0.0,0.0,0.0,0.0,0.0,0.0,0.0,0.0,0.0,0.0,0.0,0.0,0.0,0.0,0.0,0.0,0.0,0.0,0.0,0.0,0.0,0.0,0.0,0.0,0.0,0.0,0.0,0.0,0.0,0.0,0.0,0.0,0.0,0.0,0.0,0.0,0.0,0.0,0.0,0.0,0.0,0.0,0.0,0.0,0.0,0.0,0.0,0.0,0.0,0.0,0.0,0.0,0.0,0.0,0.0,0.0,0.0,0.0,0.0,0.0,0.0,0.0,0.0,0.0,0.0,0.0,0.0,0.0,0.0,0.0,0.0,0.0,0.0,0.0,0.0,0.0,0.0,0.0,0.0,0.0,0.0,0.0,0.0,0.0,0.0,0.0,0.0,0.0,0.0,0.0,0.0,0.0,0.0,0.0,0.0,0.0,0.0,0.0,0.0,0.0,0.0,0.0,0.0,0.0,0.0,0.0,0.0,0.0,0.0,0.0,0.0,0.0,0.0,0.0,0.0,0.0,0.0,0.0,0.0,0.0,0.0,0.0,0.0,0.0,0.0,0.0,0.0,0.0,0.0,0.0,0.0,0.0,0.0,0.0,0.0,0.0,0.0,0.0,0.0,0.0,0.0,0.0,0.0,0.0,0.0,0.0,0.0,0.0,0.0,0.0,0.0,0.0,0.0,0.0,0.0,0.0,0.0,0.0,0.0,0.0,0.0,0.0,0.0,0.0,0.0,0.0,0.0,0.0,0.0,0.0,0.0,0.0,0.0,0.0,0.0,0.0,0.0,0.0,0.0,0.0,0.0,0.0,0.0,0.0,0.0,0.0,0.0,0.0,0.0,0.0,0.0,0.0,0.0,0.0,0.0,0.0,0.0,0.0,0.0,0.0,0.0,0.0,0.0,0.0,0.0,0.0,0.0,0.0,0.0,0.0,0.0,0.0,0.0,0.0,0.0,0.0,0.0,0.0,0.0,0.0,0.0,0.0,0.0,0.0,0.0,0.0,0.0,0.0,0.0,0.0,0.0,0.0,0.0,0.0,0.0,0.0,0.0,0.0,0.0,0.0,0.0,0.0,0.0,0.0,0.0,0.0,0.0,0.0,0.0,0.0,0.0,0.0,0.0,0.0,0.0,0.0,0.0,0.0,0.0,0.0,0.0,0.0,0.0,0.0,0.0,0.0,0.0,0.0,0.0,0.0,0.0,0.0,0.0,0.0,0.0,0.0,0.0,0.0,0.0,0.0,0.0,0.0,0.0,0.0,0.0,0.0,0.0,0.0,0.0,0.0,0.0,0.0,0.0,0.0,0.0,0.0,0.0,0.0,0.0,0.0,0.0,0.0,0.0,0.0,0.0,0.0,0.0,0.0,0.0,0.0,0.0,0.0,0.0,0.0,0.0,0.0,0.0,0.0,0.0,0.0,0.0,0.0,0.0,0.0,0.0,0.0,0.0,0.0,0.0,0.0,0.0,0.0,0.0,0.0,0.0,0.0,0.0,0.0,0.0,0.0,0.0,0.0,0.0,0.0,0.0,0.0,0.0,0.0,0.0,0.0,0.0,0.0,0.0,0.0,0.0,0.0,0.0,0.0,0.0,0.0,0.0,0.0,0.0,0.0,0.0,0.0,0.0,0.0,0.0,0.0,0.0,0.0,0.0,0.0,0.0,0.0,0.0,0.0,0.0,0.0,0.0,0.0,0.0,0.0,0.0,0.0,0.0,0.0,0.0,0.0,0.0,0.0,0.0,0.0,0.0,0.0,0.0,0.0,0.0,0.0,0.0,0.0,0.0,0.0,0.0,0.0,0.0,0.0,0.0,0.0,0.0,0.0,0.0,0.0,0.0,0.0,0.0,0.0,0.0,0.0,0.0,0.0,0.0,0.0,0.0,0.0,0.0,0.0,0.0,0.0,0.0,0.0,0.0,0.0,0.0,0.0,0.0,0.0,0.0,0.0,0.0,0.0,0.0,0.0,0.0,0.0,0.0,0.0,0.0,0.0,0.0,0.0,0.0,0.0,0.0,0.0,0.0,0.0,0.0,0.0,0.0,0.0,0.0,0.0,0.0,0.0,0.0,0.0,0.0,0.0,0.0,0.0,0.0,0.0,0.0,0.0,0.0,0.0,0.0,0.0,0.0,0.0,0.0,0.0,0.0,0.0,0.0,0.0,0.0,0.0,0.0,0.0,0.0,0.0,0.0,0.0,0.0,0.0,0.0,0.0,0.0,0.0,0.0,0.0,0.0,0.0,0.0,0.0,0.0,0.0,0.0,0.0,0.0,0.0,0.0,0.0,0.0,0.0,0.0,0.0,0.0,0.0,0.0,0.0,0.0,0.0,0.0,0.0,0.0,0.0,0.0,0.0,0.0,0.0,0.0,0.0,0.0,0.0,0.0,0.0,0.0,0.0,0.0,0.0,0.0,0.0,0.0,0.0,0.0,0.0,0.0,0.0,0.0,0.0,0.0,0.0,0.0,0.0,0.0,0.0,0.0,0.0,0.0,0.0,0.0,0.0,0.0,0.0,0.0,0.0,0.0,0.0,0.0,0.0,0.0,0.0,0.0,0.0,0.0,0.0,0.0,0.0,0.0,0.0,0.0,0.0,0.0,0.0,0.0,0.0,0.0,0.0,0.0,0.0,0.0,0.0,0.0,0.0,0.0,0.0,0.0,0.0,0.0,0.0,0.0,0.0,0.0,0.0,0.0,0.0,0.0,-4.2708,-3.9736,0.0,0.0,0.0,0.0,0.0,0.0,0.0,0.0,0.0,0.0,0.0,0.0,0.0,0.0,0.0,0.0,0.0,0.0,0.0,0.0,0.0,0.0,0.0,-2.0491,-2.0576,-2.0842,-2.0798,0.0,0.0,0.0,0.0,0.0,0.0,0.0,0.0,0.0,-2.1503,-2.2147,-2.2193,-2.361,-2.6185,-2.4449,-2.2938,-2.1663,0.0,0.0,0.0,0.0,0.0,0.0,0.0,0.0,0.0,0.0,0.0,0.0,0.0,0.0,0.0,0.0,0.0,0.0,0.0,0.0,0.0,0.0,0.0,0.0,0.0,0.0,0.0,0.0,0.0,0.0,0.0,0.0,0.0,0.0,0.0,0.0,0.0,0.0,0.0,0.0,0.0,0.0,0.0,0.0,0.0,0.0,0.0,0.0,0.0,0.0,0.0,0.0,0.0,0.0,0.0,0.0,0.0,0.0,0.0,0.0,0.0,0.0,0.0,0.0,0.0,0.0,0.0,0.0,0.0,0.0,-4.6933,-4.5221,0.0,0.0,0.0,0.0,0.0,0.0,0.0,0.0,0.0,0.0,0.0,0.0,0.0,0.0,0.0,0.0,0.0,0.0,0.0,0.0,0.0,-2.0497,-2.125,-2.1341,-2.1606,-2.2315,-2.2214,-2.2134,-2.2244,-2.2154,0.0,0.0,0.0,0.0,-2.1695,-2.2111,-2.2904,-2.4124,-2.5402,-2.7037,-2.9118,-2.9355,-2.8354,-2.6329,-2.4247,0.0,0.0,0.0,0.0,0.0,0.0,0.0,0.0,0.0,0.0,0.0,0.0,0.0,0.0,0.0,0.0,0.0,0.0,0.0,0.0,0.0,0.0,0.0,0.0,0.0,0.0,0.0,0.0,0.0,0.0,0.0,0.0,0.0,0.0,0.0,0.0,0.0,0.0,0.0,0.0,0.0,0.0,0.0,0.0,0.0,0.0,0.0,0.0,0.0,0.0,0.0,0.0,0.0,0.0,0.0,0.0,0.0,0.0,0.0,0.0,0.0,0.0,0.0,-4.6799,-4.7998,-4.8872,-5.0145,-5.1935,-5.3727,-5.1136,-5.1238,-5.2702,-4.7585,0.0,0.0,0.0,0.0,0.0,0.0,0.0,0.0,0.0,0.0,0.0,0.0,0.0,0.0,0.0,0.0,0.0,0.0,0.0,-2.1386,-2.2586,-2.2627,-2.3141,-2.4511,-2.3872,-2.3696,-2.4458,-2.3872,0.0,0.0,0.0,-2.2957,-2.1724,-2.3839,-2.522,-2.5866,-3.0105,-3.2471,-3.2882,-3.3352,-3.3404,-3.2935,-2.8699,-2.6817,-2.6661,0.0,0.0,0.0,0.0,0.0,0.0,0.0,0.0,0.0,0.0,0.0,0.0,0.0,0.0,0.0,0.0,0.0,0.0,0.0,0.0,0.0,0.0,0.0,0.0,0.0,0.0,0.0,0.0,0.0,0.0,0.0,0.0,0.0,0.0,0.0,0.0,0.0,0.0,0.0,0.0,0.0,-3.8263,-3.9469,0.0,0.0,0.0,0.0,0.0,0.0,0.0,0.0,0.0,0.0,0.0,0.0,0.0,-4.373,-4.4436,-4.794,-5.0087,-5.1033,-5.3343,-5.5278,-5.6995,-5.7016,-5.7871,-5.9138,-5.9279,0.0,-5.3952,-5.2479,0.0,0.0,0.0,0.0,0.0,0.0,0.0,0.0,0.0,0.0,0.0,0.0,0.0,0.0,0.0,0.0,0.0,0.0,0.0,0.0,0.0,-2.5227,-2.635,-2.9307,-2.889,-2.8263,-2.7739,-2.7073,0.0,0.0,-2.3713,-2.3743,-2.3879,-2.5575,-2.768,-3.0321,-3.4099,-3.5989,-3.6018,-3.6567,-3.6828,-3.6724,-3.4397,-3.1914,-2.9405,-2.8255,0.0,0.0,0.0,0.0,0.0,0.0,0.0,0.0,0.0,0.0,0.0,0.0,0.0,0.0,0.0,0.0,0.0,0.0,0.0,0.0,0.0,0.0,0.0,0.0,0.0,0.0,0.0,0.0,0.0,0.0,0.0,0.0,0.0,0.0,0.0,0.0,0.0,0.0,0.0,-3.691,-3.9718,-4.0135,-3.8822,-3.7268,0.0,0.0,0.0,0.0,0.0,0.0,0.0,0.0,0.0,-4.786,-4.8627,-5.0001,-5.2127,-5.3507,-5.4594,-5.546,-5.6238,-5.737,-5.8852,-5.9214,-5.9753,-6.0428,-6.1267,-6.0505,-5.8471,-5.6286,-5.3982,-5.1678,0.0,0.0,0.0,0.0,-5.184,-5.3057,0.0,0.0,0.0,0.0,0.0,0.0,0.0,0.0,0.0,0.0,0.0,0.0,-2.788,-2.8373,-2.9985,-3.3658,-3.3478,-3.257,-3.1329,-2.994,-2.8052,-2.5558,-2.4551,-2.4702,-2.6141,-2.828,-3.1086,-3.4659,-3.7085,-3.8344,-3.8344,-3.8762,-3.8945,-3.8919,-3.837,-3.6123,-3.2672,-3.1522,-3.0032,-2.8307,0.0,0.0,0.0,0.0,0.0,0.0,0.0,0.0,0.0,0.0,0.0,0.0,0.0,0.0,0.0,0.0,0.0,0.0,0.0,0.0,0.0,0.0,0.0,0.0,0.0,0.0,0.0,0.0,0.0,0.0,0.0,0.0,0.0,0.0,0.0,0.0,0.0,-3.9156,-4.1536,-4.0895,-4.1059,-4.0354,0.0,0.0,0.0,0.0,0.0,0.0,-4.689,-4.7486,-4.9577,-5.3495,-5.4051,-5.547,-5.806,-5.7598,-5.7716,-5.8438,-5.8048,-5.8649,-6.0116,-6.0457,-6.1079,-6.1664,-6.2515,-6.2839,-6.263,-5.9787,-5.8052,-5.6974,-5.4999,-5.4643,-5.5318,-5.6622,-5.7895,-5.9548,0.0,0.0,0.0,0.0,0.0,0.0,0.0,0.0,0.0,0.0,0.0,-2.73,-3.0632,-3.1879,-3.3545,-3.6076,-3.5695,-3.5235,-3.5003,-3.1779,-2.9243,-2.7868,-2.6123,-2.591,-2.764,-3.2577,-3.6034,-3.7639,-3.8893,-3.952,-3.952,-3.9547,-3.9573,-3.9547,-3.8945,-3.8266,-3.7482,-3.6279,-3.4789,-3.3012,-3.0189,0.0,0.0,0.0,0.0,0.0,0.0,0.0,0.0,0.0,0.0,0.0,0.0,0.0,0.0,0.0,0.0,0.0,0.0,0.0,0.0,0.0,0.0,0.0,0.0,0.0,0.0,0.0,0.0,0.0,0.0,0.0,0.0,0.0,0.0,0.0,0.0,0.0,0.0,-4.324,-4.5416,0.0,0.0,0.0,0.0,-4.5022,-4.5427,-4.7728,-5.2582,-5.3101,-5.4977,-5.8665,-5.8789,-5.8516,-5.7963,-5.8261,-5.889,-5.9698,-5.932,-6.0384,-6.2694,-6.2203,-6.2943,-6.4367,-6.4755,-6.4874,-6.4784,-6.3348,-6.1642,-5.9877,-5.9757,-5.9213,-5.9037,-6.2027,-6.3934,-6.5587,0.0,0.0,0.0,-2.4317,-2.3651,-2.3345,-2.3887,-2.3243,-2.3356,-2.5032,-2.6872,-2.9327,-3.2942,-3.4728,-3.7143,-4.0755,-4.0454,-3.9612,-3.8586,-3.5309,-3.3142,-3.257,-2.975,-2.9826,-3.3328,-3.5829,-3.7772,-3.8998,-4.0514,-4.1246,-4.1272,-4.2396,-4.2709,-4.2343,-4.2134,-4.1716,-4.1036,-3.837,-3.6462,-3.5077,-3.3718,-3.1313,0.0,0.0,0.0,0.0,0.0,0.0,0.0,0.0,0.0,0.0,0.0,0.0,0.0,0.0,0.0,0.0,0.0,0.0,0.0,0.0,0.0,0.0,0.0,0.0,0.0,0.0,0.0,0.0,0.0,0.0,0.0,0.0,0.0,0.0,0.0,0.0,0.0,-4.5903,-4.7882,0.0,-4.6021,-4.7674,-4.9314,-5.0125,-5.2428,-5.4914,-5.7494,-5.7205,-5.8045,-6.0572,-5.988,-6.0321,-6.2175,-6.1568,-6.191,-6.3271,-6.3471,-6.3914,-6.4571,-6.6057,-6.6607,-6.6189,-6.7516,-6.7728,-6.6909,-6.6909,-6.5473,-6.3374,-6.4114,-6.4738,-6.5324,-6.7228,-6.8663,-6.9971,0.0,0.0,0.0,-2.4317,-2.3836,-2.3682,-2.4225,-2.4009,-2.4487,-2.6427,-2.8909,-3.1879,-3.546,-3.7732,-4.0247,-4.331,-4.3254,-4.2475,-4.1168,-3.8279,-3.6287,-3.5491,-3.3216,-3.3674,-3.747,-3.8983,-4.0027,-4.0749,-4.2393,-4.3153,-4.3075,-4.4199,-4.4539,-4.4173,-4.4173,-4.3964,-4.3441,-4.1193,-3.9416,-3.8057,-3.7142,-3.5025,-3.2254,0.0,0.0,0.0,0.0,0.0,0.0,0.0,0.0,0.0,0.0,0.0,0.0,0.0,0.0,0.0,0.0,0.0,0.0,0.0,0.0,0.0,0.0,0.0,0.0,0.0,0.0,0.0,0.0,0.0,0.0,0.0,0.0,0.0,0.0,-4.6079,-4.8984,-4.6824,-4.9938,-5.1331,-4.9156,-5.178,-5.3979,-5.484,-5.7479,-5.9425,-6.0505,-6.036,-6.1121,-6.2762,-6.1846,-6.2606,-6.5543,-6.4672,-6.4797,-6.6098,-6.6573,-6.6853,-6.6914,-6.8658,-6.9325,-6.9059,-7.0539,-7.0699,-6.9976,-7.0183,-6.9302,-6.7638,-6.7542,-6.8467,-7.0046,-7.0812,-7.2118,-7.3541,0.0,0.0,-2.4317,-2.4317,-2.4317,-2.4317,-2.4317,-2.4872,-2.6287,-2.9058,-3.1767,-3.4752,-3.8169,-4.083,-4.2732,-4.3556,-4.3823,-4.367,-4.2725,-4.0484,-3.833,-3.6438,-3.634,-3.7425,-3.9733,-4.1993,-4.303,-4.3075,-4.4572,-4.5178,-4.4853,-4.4879,-4.4905,-4.4905,-4.4879,-4.4853,-4.4826,-4.4879,-4.3912,-4.2186,-4.0435,-3.8684,-3.6802,0.0,0.0,0.0,0.0,0.0,0.0,0.0,0.0,0.0,0.0,0.0,0.0,0.0,0.0,0.0,0.0,0.0,0.0,0.0,0.0,0.0,0.0,0.0,0.0,0.0,0.0,0.0,0.0,0.0,0.0,0.0,0.0,0.0,-4.5068,-4.8198,-4.9456,-4.6301,-5.1703,-5.4969,-5.2903,-5.5852,-5.8116,-5.8793,-5.9942,-6.0927,-6.1613,-6.284,-6.4184,-6.5606,-6.4795,-6.5451,-6.7723,-6.7372,-6.7451,-6.8,-6.8345,-6.907,-6.9852,-6.9975,-7.098,-7.2843,-7.3623,-7.3939,-7.3854,-7.3228,-7.3015,-7.2768,-7.0145,-7.0678,-7.2748,-7.2863,-7.4361,-7.6424,0.0,-2.3979,-2.4317,-2.4317,-2.4276,-2.4234,-2.4317,-2.4817,-2.6228,-2.9058,-3.2198,-3.546,-3.8877,-4.1607,-4.3556,-4.4233,-4.4403,-4.4127,-4.3371,-4.087,-3.9573,-3.9833,-4.1396,-4.3009,-4.4499,-4.4327,-4.4282,-4.4304,-4.5983,-4.663,-4.6656,-4.7885,-4.8277,-4.7911,-4.7885,-4.7649,-4.7231,-4.7257,-4.697,-4.6316,-4.3729,-4.1402,-3.9337,0.0,0.0,0.0,0.0,0.0,0.0,0.0,0.0,0.0,0.0,0.0,0.0,0.0,0.0,0.0,0.0,0.0,0.0,0.0,0.0,0.0,0.0,0.0,0.0,0.0,0.0,0.0,0.0,0.0,0.0,0.0,-4.662,-4.9216,-4.9508,-5.2332,-5.4321,-5.4449,-5.6097,-5.7156,-5.7052,-5.8585,-5.9904,-6.0788,-6.1777,-6.277,-6.3696,-6.3944,-6.4945,-6.6997,-6.6517,-6.7724,-7.0631,-7.08,-7.098,-7.1196,-7.2151,-7.2291,-7.1813,-7.3098,-7.347,-7.2925,-7.4063,-7.4625,-7.4625,-7.4467,-7.4905,-7.5613,-7.387,-7.3578,-7.4405,-7.615,-7.7675,-7.8709,0.0,-2.3609,-2.3979,-2.4256,-2.4276,-2.4234,-2.4317,-2.5351,-2.7134,-2.9889,-3.346,-3.6938,-4.0047,-4.254,-4.4141,-4.4541,-4.4572,-4.4048,-4.2817,-4.1454,-4.1801,-4.4325,-4.492,-4.593,-4.7362,-4.6704,-4.631,-4.6212,-4.7817,-4.8524,-4.8433,-4.9427,-4.9714,-4.9427,-4.9427,-4.9218,-4.8904,-4.8904,-4.8773,-4.8407,-4.6734,-4.48,-4.2814,-4.1533,-4.0252,-3.8998,-3.7612,-3.6933,-3.6645,-3.607,0.0,0.0,0.0,0.0,0.0,0.0,0.0,0.0,0.0,0.0,0.0,0.0,0.0,0.0,0.0,0.0,0.0,0.0,0.0,0.0,0.0,0.0,0.0,0.0,-5.0341,-5.2793,-5.3668,-5.5425,-5.6849,-5.7425,-5.8224,-5.8885,-5.9562,-6.0546,-6.1525,-6.2623,-6.3756,-6.4758,-6.5555,-6.5929,-6.7166,-6.9304,-6.908,-7.0451,-7.3538,-7.3735,-7.3874,-7.3664,-7.4439,-7.459,-7.4211,-7.5527,-7.5932,-7.587,-7.7141,-7.7722,-7.7754,-7.6932,-7.7307,-7.8403,0.0,0.0,0.0,0.0,-7.9703,-8.0067,-2.3209,-2.3302,-2.3609,-2.4194,-2.4317,-2.4317,-2.4317,-2.6072,-2.8381,-3.1151,-3.4937,-3.8477,-4.1401,-4.3371,-4.4479,-4.4572,-4.4664,-4.3956,-4.2171,-4.248,-4.4516,-4.8581,-4.705,-4.7024,-4.9098,-4.8624,-4.8409,-4.8486,-4.9797,-5.0375,-5.0185,-5.0263,-5.0289,-5.0289,-5.0211,-5.0185,-5.0185,-5.0106,-4.9819,-4.9374,-4.9296,-4.8224,-4.6447,-4.4304,-4.318,-4.2552,-4.0958,-4.0043,-3.952,-3.9024,0.0,0.0,0.0,0.0,0.0,0.0,0.0,0.0,0.0,0.0,0.0,0.0,0.0,0.0,0.0,0.0,0.0,0.0,0.0,0.0,0.0,0.0,0.0,0.0,-5.3856,-5.6413,-5.7222,-5.7782,-5.7983,-5.7408,-5.8875,-6.0167,-6.0948,-6.2093,-6.3326,-6.4537,-6.5808,-6.6915,-6.7746,-6.8657,0.0,0.0,0.0,-7.3507,-7.6066,-7.6098,-7.6018,-7.5682,-7.5556,-7.5839,-7.6615,-7.7073,-7.8066,-7.9806,-8.0803,-8.144,-8.1586,-7.9611,-7.9713,-8.0788,-7.8251,-7.813,-7.9447,-8.0464,-8.0796,-8.0796,-2.2594,-2.3363,-2.4164,-2.4287,-2.4317,-2.4317,-2.4317,-2.6072,-2.8565,-3.1767,-3.4814,-3.8138,-4.1986,-4.3217,-4.3987,-4.4541,-4.5064,-4.5218,-4.4849,-4.5154,-4.6166,-4.8089,-4.7671,-4.8354,-5.0271,-4.9373,-4.9363,-5.0289,-5.1066,-5.1518,-5.2014,-5.2485,-5.272,-5.2694,-5.2197,-5.1988,-5.1962,-5.1465,-5.1204,-5.1073,-5.0629,-4.9427,-4.7754,-4.6839,-4.6421,-4.6238,-4.5428,-4.5088,-4.4957,-4.4853,-4.3493,-4.1847,-4.1716,-4.02,0.0,0.0,0.0,0.0,0.0,0.0,0.0,0.0,0.0,0.0,0.0,0.0,0.0,0.0,0.0,0.0,0.0,0.0,0.0,-5.1987,-5.4134,-5.6449,-5.9161,-6.0007,-6.0096,-5.9458,-5.9627,-6.053,-6.2257,-6.4243,-6.5747,-6.6324,-6.8263,-6.9947,-7.0866,-7.1642,-7.2717,-7.4233,-7.4866,-7.5687,-7.6793,-7.6793,-7.6734,-7.6707,-7.5808,0.0,-7.7586,-7.6776,-7.7434,-7.8994,-7.8125,-7.9094,-8.0971,-7.9468,-7.9942,-8.1539,-8.0496,-8.0978,-8.2015,-8.1678,-8.1591,-8.1492,-2.2871,-2.3332,-2.3917,-2.4256,-2.4317,-2.441,-2.4748,-2.6287,-2.8596,-3.1951,-3.4783,-3.7646,-4.0724,-4.1648,-4.2048,-4.2048,-4.2663,-4.3618,-4.5003,-4.6154,-4.7555,-4.9218,-4.9359,-4.9885,-5.0901,-5.0228,-5.0175,-5.1204,-5.1779,-5.2354,-5.2955,-5.3243,-5.34,-5.34,-5.3086,-5.2955,-5.2903,-5.2302,-5.204,-5.1988,-5.1413,-5.0681,-4.9766,-4.8643,-4.8198,-4.8094,-4.7231,-4.6917,-4.6865,-4.6578,-4.5715,-4.4748,-4.4748,-4.3363,-4.1298,0.0,0.0,0.0,0.0,0.0,0.0,0.0,0.0,0.0,0.0,0.0,0.0,0.0,0.0,-4.7,-4.8973,0.0,-5.2801,-5.4664,-5.6249,-5.7678,-5.9345,-5.9787,-6.0312,-6.1213,-6.1619,-6.2067,-6.2754,-6.4623,-6.6534,-6.8212,-6.9876,-7.1284,-7.2432,-7.343,-7.406,-7.4617,-7.5541,-7.6319,-7.6983,-7.6983,-7.6738,-7.6213,-7.6213,-7.6369,-7.6651,-7.7394,-7.8231,-7.9387,-7.9003,-7.9979,-8.1868,-8.0743,-8.0503,-8.082,-8.082,-8.1195,-8.1757,-8.1393,-8.1227,-8.1194,-2.3486,-2.3486,-2.3671,-2.4225,-2.4317,-2.4533,-2.521,-2.6503,-2.8565,-3.1767,-3.4352,-3.6661,-3.8723,-3.9431,-3.9677,-3.9524,-4.0385,-4.2017,-4.4603,-4.6751,-4.8667,-5.0436,-5.0714,-5.0982,-5.1481,-5.0891,-5.0986,-5.1904,-5.225,-5.2798,-5.34,-5.34,-5.34,-5.34,-5.3269,-5.3217,-5.3191,-5.2694,-5.2485,-5.2459,-5.2093,-5.1884,-5.1622,-5.0263,-4.961,-4.927,-4.8224,-4.7832,-4.7728,-4.7179,-4.6917,-4.6787,-4.6682,-4.5689,-4.4199,-4.25,-4.1638,0.0,0.0,0.0,0.0,0.0,0.0,0.0,0.0,-4.3694,-4.511,-4.7731,-4.8979,-5.0308,-5.2479,-5.4047,-5.5594,-5.7221,-5.8374,-5.9173,-5.9659,-5.9718,-6.0543,-6.2937,-6.3326,-6.3319,-6.3101,-6.4758,-6.6872,-6.9547,-7.0953,-7.2148,-7.3386,-7.4487,-7.4922,-7.4563,-7.5644,-7.6446,-7.6983,-7.6856,-7.6272,-7.5244,-7.5992,-7.5992,-7.559,-7.754,-7.8901,-7.9899,-8.0484,-8.1248,-8.2048,-8.1877,-8.0997,-7.987,-8.0497,-8.0598,-8.0498,-8.0498,-8.0498,-8.0465,-2.4194,-2.4194,-2.4225,-2.4287,-2.4317,-2.4533,-2.521,-2.6503,-2.8381,-3.1151,-3.2813,-3.4537,-3.6599,-3.6907,-3.7646,-3.937,-4.1278,-4.3248,-4.5341,-4.7558,-4.9194,-4.9998,-5.0382,-5.101,-5.1932,-5.1653,-5.2017,-5.2886,-5.2586,-5.2798,-5.34,-5.34,-5.34,-5.3373,-5.2825,-5.2589,-5.2589,-5.2537,-5.2485,-5.2537,-5.3008,-5.2877,-5.238,-5.2171,-5.1492,-5.0498,-4.9845,-4.961,-4.9531,-4.8982,-4.8433,-4.7911,-4.7388,-4.71,-4.6604,-4.4879,-4.433,-4.3755,-4.1533,-4.1209,-4.2027,-4.369,-4.4671,-4.6544,0.0,-5.1359,-5.1502,-5.3917,-5.4514,-5.5003,-5.6332,-5.6759,-5.7275,-5.8557,-5.8934,-5.9819,-6.204,-6.2313,-6.2942,-6.43,-6.3028,-6.268,-6.4277,-6.6236,-6.808,-6.9637,-7.1598,-7.3138,-7.4253,-7.533,-7.5675,-7.5432,-7.6366,-7.6888,-7.6983,-7.6382,-7.5581,-7.4501,-7.4035,-7.4404,-7.5487,-7.6268,-7.7745,-7.9903,-8.0398,-8.0175,-7.9282,-8.1077,-8.0918,-7.9683,-8.0465,-8.0299,-7.9736,-7.9736,-7.9736,-7.9637,-2.4317,-2.4317,-2.4441,-2.481,-2.4564,-2.4656,-2.5689,-2.6411,-2.7765,-3.0474,-3.1643,-3.2721,-3.3983,-3.3767,-3.4168,-3.583,-3.8569,-4.1247,-4.3679,-4.6966,-4.8833,-4.901,-4.9433,-4.9792,-5.0308,-5.0381,-5.0963,-5.2213,-5.2455,-5.2798,-5.34,-5.34,-5.34,-5.34,-5.3138,-5.3008,-5.3008,-5.2642,-5.2485,-5.2485,-5.238,-5.2197,-5.1962,-5.1962,-5.1675,-5.1152,-5.0211,-4.9897,0.0,-4.927,-4.8904,-4.8721,-4.8799,-4.8355,-4.7675,-4.697,-4.6525,-4.6264,-4.6737,-4.672,-4.6941,-4.823,-4.9293,-5.0492,-5.2404,-5.2848,-5.3537,-5.5952,-5.6441,-5.6821,-5.8015,-5.8232,-5.853,-5.9371,-5.9806,-6.0566,-6.1904,-6.2453,-6.2866,-6.3746,-6.3499,-6.3474,-6.3886,-6.5488,-6.7334,-6.9207,-7.1138,-7.2834,-7.4078,-7.5153,-7.5465,-7.4842,-7.4716,-7.5029,-7.575,-7.4863,-7.4219,-7.3819,-7.4589,-7.4898,-7.4903,-7.6856,-7.8762,-8.0365,-8.1017,-8.0728,-7.9964,-8.0344,-8.0167,-7.9604,-7.9471,-7.9504,-7.9637,-7.9637,-7.9902,-8.02,0.0,-2.4317,-2.4533,-2.521,-2.4748,-2.4841,-2.638,-2.6503,-2.7303,-2.9827,-3.0381,-3.0812,-3.149,-3.0966,-3.1182,-3.2721,-3.5984,-3.9185,-4.214,-4.5926,-4.8238,-4.8761,-4.9362,-4.961,-4.9721,-5.0005,-5.0719,-5.1716,-5.1977,-5.2328,-5.2903,-5.2903,-5.2903,-5.2903,-5.2903,-5.2903,-5.2877,-5.2616,-5.2485,-5.2485,-5.2197,-5.1988,-5.1858,-5.1858,-5.1544,-5.1021,-5.0185,-4.9897,-4.9714,-4.8538,-4.8433,-4.8826,-4.8747,-4.8355,-4.8015,-4.8329,-4.7911,-4.7712,-4.9558,-5.0057,-5.0335,-5.1573,-5.289,-5.3999,-5.3916,-5.4526,-5.5573,-5.7336,-5.7689,-5.8015,-5.9046,-5.9371,-5.967,-6.0267,-6.0864,-6.1461,-6.2031,-6.2655,-6.3252,-6.3849,-6.4409,-6.4608,-6.393,-6.514,-6.672,-6.8688,-7.0266,-7.1565,-7.2892,-7.3956,-7.4248,-7.363,-7.2998,-7.335,-7.4671,-7.4032,-7.3509,-7.3068,-7.4718,-7.4842,-7.393,-7.6998,-7.9072,-8.0212,-8.0851,-8.0763,-8.0067,-7.9968,-7.9802,-7.9604,-7.9471,-7.9769,-8.0233,-8.0233,-8.0531,-8.0962,0.0,-2.4317,-2.4533,-2.521,-2.4748,-2.4995,-2.7057,-2.6811,-2.7119,-2.9181,-2.8873,-2.875,-2.9427,-2.8904,-2.9273,-3.1274,-3.4568,-3.7984,-4.1401,-4.4787,-4.7588,-4.9566,-5.0655,-5.1333,-5.1482,-5.1699,-5.185,-5.2007,-5.1255,-5.1126,-5.1648,-5.1648,-5.1648,-5.1648,-5.1648,-5.1648,-5.1675,-5.225,-5.2485,-5.2537,-5.3112,-5.2981,-5.2459,-5.2459,-5.1413,-4.9949,-4.9897,-4.9897,-4.9453,-4.6682,-4.6839,-4.7937,-4.6264,-4.6499,-4.7597,-4.8721,-4.825,-4.7336,-4.7872,-4.9037,-5.0639,-5.2621,-5.5051,-5.7201,-5.777,-5.8395,-5.8856,-5.8937,-5.8937,-5.9127,-5.9751,-6.0321,-6.0891,-6.1461,-6.2085,-6.2682,-6.3279,-6.3876,-6.4473,-6.507,-6.5882,-6.6029,-6.5217,-6.5828,-6.6845,-6.8033,-6.8817,-6.9648,-7.0397,-7.1435,-7.1947,-7.1916,-7.1916,-7.2727,-7.4346,-7.4377,-7.3675,-7.2403,-7.3436,-7.3466,-7.2403,-7.5777,-7.7788,-7.8789,-7.9342,-7.9272,-7.8709,-8.0101,-8.0266,-7.9769,-8.1161,-8.1691,-8.1724,-8.1724,-8.1757,-8.1658,0.0,0.0,-2.5333,-2.6503,-2.6503,-2.6749,-2.7888,-2.7088,-2.6934,-2.8535,-2.8535,0.0,0.0,0.0,0.0,0.0,-3.346,-3.6415,-3.937,-4.3125,-4.5905,-4.7256,-4.8328,-4.869,-4.8522,-4.8755,-4.8834,-4.8868,-4.9403,-4.974,-4.9949,-5.0707,-5.0864,-5.0472,-5.089,-5.0838,-5.0472,-5.0681,-5.076,-5.0786,-5.0995,-5.0943,-5.0864,-5.1596,-5.0368,-4.8198,0.0,-4.7963,-4.7362,-4.5611,-4.5689,-4.6447,-4.6264,-4.5924,-4.5794,-4.6552,-4.7974,-4.9772,-5.1296,-5.2861,-5.4423,-5.6482,-5.7798,-5.8449,-5.8639,-5.8856,-5.91,-5.9507,-5.9589,-5.9778,-6.0375,-6.0945,-6.1379,-6.1569,-6.2465,-6.3333,-6.393,-6.4174,-6.4527,-6.5124,-6.5427,-6.5382,-6.4609,-6.5352,-6.5866,-6.6342,-6.7702,-6.8788,-6.9486,-7.0439,-7.1298,-7.2395,-7.1255,-7.1553,-7.3913,-7.3265,-7.3516,-7.4409,-7.5895,-7.6837,-7.7496,-7.8617,-7.9473,-8.0099,-8.0358,-8.0266,-8.0001,-8.0498,-8.0531,-8.0432,-8.1426,-8.179,-8.1856,-8.2353,-8.285,-8.3148,0.0,0.0,0.0,-2.7211,-2.718,0.0,0.0,0.0,0.0,0.0,0.0,0.0,0.0,0.0,0.0,0.0,0.0,-3.4876,-3.7615,-4.1124,-4.3716,-4.5142,-4.6092,-4.6488,-4.6367,-4.6278,-4.6501,-4.7242,-4.7702,-4.839,-4.9113,-4.9845,-5.008,-4.9897,-5.0289,-5.0263,-4.9897,-4.9897,-5.0263,-5.0734,-4.9688,-4.9662,-5.0159,-4.9662,-4.8068,0.0,-4.5401,-4.48,-4.4173,-4.3206,-4.3833,-4.4983,-4.4957,-4.5428,-4.6107,-4.6795,-4.8811,-5.1387,-5.3726,-5.5364,-5.6677,-5.8856,-5.9643,-5.9941,-5.9941,-6.0104,-6.0375,-6.0755,-6.0511,-6.0321,-6.0701,-6.1407,-6.1949,-6.1949,-6.3333,-6.4527,-6.4907,-6.5151,-6.5423,-6.5802,-6.583,-6.5694,-6.5314,-6.5561,-6.5747,-6.5862,-6.7207,-6.8276,-6.8981,-6.9751,-7.074,-7.2209,-7.0914,-7.1219,-7.3563,-7.2924,-7.3714,-7.563,-7.632,-7.7524,-7.913,-7.985,-8.0288,-8.0508,-8.1492,-8.1652,-8.1128,-8.1658,-8.1889,-8.1956,-8.2684,-8.2817,-8.2651,-8.3115,-8.3413,-8.3579,0.0,0.0,0.0,0.0,0.0,0.0,0.0,0.0,0.0,0.0,0.0,0.0,0.0,0.0,0.0,0.0,0.0,0.0,-3.6107,-3.8816,-4.1247,-4.3279,-4.411,-4.4665,-4.5026,-4.4472,-4.4957,-4.6785,-4.6141,-4.6781,-4.8813,-4.8747,-4.9035,-4.9531,-4.961,-4.9584,-4.9531,-4.9557,-5.0524,-5.1779,-4.8982,-4.8878,-5.0002,-4.6734,-4.4722,-4.3441,-4.1873,-4.088,-4.0252,-3.9834,-4.1611,-4.3939,-4.2944,-4.5276,-4.8498,-4.9482,-5.0657,-5.2236,-5.5156,-5.6542,-5.759,-5.9589,-6.0837,-6.1651,-6.1651,-6.2112,-6.2519,-6.2438,-6.1515,-6.0701,-6.0593,-6.1624,-6.2492,-6.2492,-6.4527,-6.6128,-6.6155,-6.6617,-6.6969,-6.6996,-6.6942,-6.6915,-6.6915,-6.6372,-6.6295,-6.6595,-6.7321,-6.8011,-6.8721,-6.9437,-7.0331,-7.1273,-7.0975,-7.148,-7.3201,-7.3337,-7.4316,-7.5863,-7.4886,-7.5459,-7.7667,-7.9543,-8.0219,-8.0139,-8.2774,-8.3068,-8.1956,-8.3413,-8.401,-8.4142,-8.4871,-8.4705,-8.4076,-8.4109,-8.3645,-8.3115,0.0,0.0,0.0,0.0,0.0,0.0,0.0,0.0,0.0,0.0,0.0,0.0,0.0,0.0,0.0,0.0,0.0,0.0,-3.3336,-3.5984,-3.8446,-4.0478,-4.1791,-4.2663,-4.3049,-4.2941,-4.3121,-4.3361,-4.293,-4.3291,-4.422,-4.4467,-4.4643,-4.48,-4.5689,-4.5584,-4.48,-4.5218,-4.5428,-4.5323,-4.4173,-4.3964,-4.433,-4.3859,-4.2448,-4.0749,-4.1167,-4.0383,-3.9311,-4.0488,-4.3284,-4.642,-4.745,-4.8885,-5.0498,-5.1656,-5.3539,-5.5719,-5.7354,-5.9103,-6.0564,-6.1624,-6.2085,-6.2302,-6.2302,-6.2438,-6.2166,-6.0837,-6.0321,-5.9697,-5.834,-6.0158,-6.1841,-6.1841,-6.4256,-6.6291,-6.6725,-6.6535,-6.6508,-6.6969,-6.6209,-6.5667,-6.5667,-6.5683,-6.6076,-6.7241,-6.7383,-6.7834,-6.867,-6.9395,-7.033,-7.1539,-7.1464,-7.1871,-7.2765,-7.4403,-7.5443,-7.5863,-7.6396,-7.7593,-7.9446,-7.9186,-7.9637,-8.0734,-8.1999,-8.2491,-8.2684,-8.3612,-8.4341,-8.4904,-8.5633,-8.5467,-8.4904,-8.5434,-8.5169,-8.4639,0.0,0.0,0.0,0.0,0.0,0.0,0.0,0.0,0.0,0.0,0.0,0.0,0.0,0.0,0.0,0.0,0.0,0.0,0.0,-3.3952,-3.5922,-3.7677,-3.875,-3.9559,-4.004,-3.9974,-4.0383,-4.1142,-4.0392,-4.0723,-4.2151,-4.1723,-4.1794,-4.2291,-4.2971,-4.2892,-4.2291,-4.2605,-4.2997,0.0,0.0,-4.1481,-4.203,-4.0827,-3.9573,-3.8553,-3.9181,-4.0095,-4.1272,-4.3284,-4.5463,-4.7774,-4.9548,-5.1096,-5.2471,-5.4207,-5.6068,-5.789,-5.9454,-6.0699,-6.1759,-6.2383,-6.2736,-6.2709,-6.1949,-6.1949,-6.1705,-6.0185,-5.9263,-5.8557,-5.8069,-5.9968,-6.1705,-6.1976,-6.4771,-6.7024,-6.7349,-6.7105,-6.6942,-6.6996,-6.6399,-6.5992,-6.5992,-6.611,-6.6615,-6.7675,-6.7946,-6.8455,-6.9441,-7.0176,-7.0947,-7.1644,-7.1934,-7.2253,-7.2602,-7.3842,-7.4916,-7.5863,-7.6834,-7.8257,-8.0111,-8.0424,-8.0903,-8.1479,-8.2789,-8.3572,-8.391,-8.4639,-8.5401,-8.6097,-8.6494,-8.6196,-8.5666,-8.6395,-8.5997,-8.5302,0.0,0.0,0.0,0.0,0.0,0.0,0.0,0.0,0.0,0.0,-2.875,-2.8535,-2.8535,-2.8535,0.0,0.0,0.0,0.0,0.0,0.0,-3.371,-3.5093,-3.5676,-3.6316,-3.6987,-3.6874,-3.7664,-3.9509,-3.8025,-3.8504,-4.0761,-3.9453,-3.9494,-4.0514,-4.0671,-4.0697,-4.0644,-4.0723,-4.1559,-4.2605,-4.0069,-3.9939,-4.0932,0.0,-3.6698,-3.6802,-3.7116,-4.0043,-4.4121,-4.6447,-4.7801,-4.8901,-5.0883,-5.2827,-5.4634,-5.6877,-5.8134,-5.9156,-6.1132,-6.1732,-6.1895,-6.2601,-6.317,-6.3062,-6.1298,-6.1325,-6.1298,-5.9724,-5.8232,-5.7418,-5.815,-5.986,-6.1407,-6.2166,-6.5233,-6.762,-6.7865,-6.7892,-6.7729,-6.7295,-6.7186,-6.7132,-6.7132,-6.7051,-6.7298,-6.8142,-6.8481,-6.9247,-7.0523,-7.1382,-7.1702,-7.1789,-7.2398,-7.2718,-7.2602,-7.2974,-7.4099,-7.6014,-7.6726,-7.8297,-8.0427,-8.2111,-8.2617,-8.2264,-8.4259,-8.5089,-8.5185,-8.5931,-8.6593,-8.7289,-8.7389,-8.7024,-8.656,-8.7289,-8.6759,-8.5931,0.0,0.0,0.0,0.0,0.0,0.0,0.0,0.0,0.0,0.0,-3.0597,-2.9243,0.0,0.0,0.0,0.0,0.0,0.0,0.0,0.0,0.0,-3.3389,-3.4394,-3.5269,-3.5967,-3.682,-3.7149,-3.6896,-3.6003,-3.5703,-3.6035,-3.5526,-3.5678,-3.6384,-3.7325,-3.7482,-3.7037,-3.7534,-3.7639,-3.7377,-3.6436,-3.6227,-3.6384,-3.526,0.0,0.0,-3.7743,-4.0461,-4.352,-4.5846,-4.9062,-5.249,-5.4839,-5.6425,-5.7892,-5.9317,-5.9938,-6.0728,-6.2031,-6.2383,-6.2628,-6.374,-6.4093,-6.3686,-6.1868,-6.1922,-6.1352,-5.7662,-5.7065,-5.6631,-5.4867,-5.6794,-5.9209,-6.081,-6.3659,-6.6182,-6.7675,-6.7892,-6.8028,-6.8435,-6.8028,-6.7729,-6.7729,-6.7295,-6.7599,-6.9056,-6.9269,-6.9647,-7.0507,-7.1333,-7.1905,-7.2427,-7.3095,-7.3182,-7.2631,-7.4902,-7.6274,-7.6682,-7.7745,-7.9483,-8.185,-8.1221,-8.1747,-8.2969,-8.3978,-8.4626,-8.5254,-8.5861,-8.6593,-8.7322,-8.7919,-8.8051,-8.8018,-8.878,-8.8879,-8.8647,0.0,0.0,0.0,0.0,0.0,0.0,0.0,-3.2074,-3.3367,-3.5737,-3.4629,-3.309,-3.1643,-3.0514,-2.9817,0.0,0.0,0.0,0.0,0.0,0.0,-3.2938,-3.3759,-3.4512,-3.5175,-3.5974,-3.6432,-3.6419,0.0,-3.4399,-3.4941,-3.3993,-3.3822,-3.445,-3.5286,-3.5495,-3.5234,-3.5521,-3.5495,-3.5182,-3.4946,-3.4816,-3.4789,-3.4502,0.0,0.0,-3.7978,-4.0749,-4.3729,-4.5454,-4.9022,-5.308,-5.5129,-5.6824,-5.8241,-5.9334,-6.0204,-6.1027,-6.1939,-6.2405,-6.2818,-6.4012,-6.431,-6.3605,-6.0864,-6.0484,-5.9778,-5.6522,-5.5545,-5.5355,-5.5437,-5.6902,-5.8666,-6.0484,-6.3252,-6.5613,-6.6806,-6.7756,-6.8353,-6.8326,-6.8326,-6.8217,-6.7919,-6.7648,-6.7762,-6.8489,-6.9384,-7.0412,-7.1596,-7.2343,-7.2834,-7.3124,-7.3763,-7.3937,-7.3618,-7.4857,-7.6275,-7.738,-7.8291,-7.9893,-8.2197,-8.2018,-8.2612,-8.37,-8.4075,-8.5042,-8.6369,-8.6608,-8.7389,-8.8415,-8.8747,-8.8879,-8.8979,-8.9707,-8.9741,-8.9475,0.0,0.0,0.0,0.0,0.0,0.0,0.0,-3.426,-3.5984,-3.9,-3.8662,-3.7277,-3.4908,-3.2492,-3.093,0.0,0.0,0.0,0.0,0.0,0.0,0.0,0.0,0.0,-3.466,0.0,0.0,-3.5769,-3.4168,0.0,0.0,0.0,0.0,0.0,-3.4162,-3.4397,-3.4397,-3.4397,-3.4397,0.0,0.0,-3.4397,-3.4397,0.0,0.0,0.0,0.0,-4.0592,-4.3572,-4.5114,-4.8198,-5.1727,-5.3713,-5.5842,-5.7759,-5.8599,-5.9739,-6.0889,-6.1798,-6.2263,-6.2818,-6.4012,-6.431,-6.3387,-5.9806,-5.91,-5.8395,-5.56,-5.4351,-5.4324,-5.6088,-5.7011,-5.8123,-6.0077,-6.2655,-6.4826,-6.5965,-6.7539,-6.8516,-6.8299,-6.8814,-6.8923,-6.8353,-6.8299,-6.8317,-6.8225,-6.982,-7.1357,-7.2691,-7.3443,-7.3792,-7.3792,-7.4401,-7.4663,-7.4518,-7.5072,-7.6397,-7.8079,-7.9147,-8.0606,-8.2418,-8.2987,-8.3576,-8.4176,-8.4463,-8.5719,-8.7368,-8.7687,-8.8382,-8.9442,-8.9575,-8.9641,-8.9741,-9.0469,-9.037,-9.0006,0.0,0.0,0.0,0.0,0.0,0.0,0.0,-3.506,-3.7738,-4.1709,-4.1063,-3.9856,-3.8861,-3.5798,-3.3077,0.0,0.0,0.0,0.0,0.0,0.0,0.0,0.0,0.0,0.0,0.0,0.0,-3.3507,-3.3874,0.0,0.0,0.0,0.0,0.0,0.0,-3.4397,-3.4397,-3.4397,0.0,0.0,0.0,0.0,0.0,0.0,0.0,0.0,0.0,-3.952,-4.1977,-4.4696,-4.6604,-4.8277,-5.1047,-5.4393,-5.7456,-5.7861,-5.907,-6.0585,-6.208,-6.2546,-6.2818,-6.4012,-6.431,-6.3387,-5.9806,-5.9426,-5.8666,-5.4596,-5.4107,-5.4297,-5.3999,-5.4867,-5.6441,-5.8774,-6.0728,-6.2926,-6.5721,-6.7186,-6.8353,-6.9411,-7.0063,-7.0198,-6.9601,-6.9547,-6.9397,-6.904,-7.0959,-7.26,-7.3531,-7.4111,-7.443,-7.443,-7.5069,-7.5127,-7.4518,-7.7039,-7.8468,-7.8777,-8.0915,-8.2382,-8.3145,-8.3208,-8.3571,-8.4283,-8.5565,-8.652,-8.7397,-8.8702,-8.931,-8.9475,-9.0171,-9.0436,-9.0502,-9.1231,-9.143,-9.1297,0.0,0.0,0.0,0.0,0.0,0.0,-3.4722,-3.5953,-3.8262,-4.3156,-4.2529,-4.1281,-4.0506,-3.7953,-3.5063,-3.1931,0.0,0.0,0.0,0.0,0.0,0.0,0.0,0.0,0.0,0.0,-3.4146,-3.3775,-3.3595,0.0,0.0,0.0,0.0,0.0,0.0,-3.4397,-3.4397,-3.4397,0.0,0.0,0.0,0.0,0.0,0.0,0.0,0.0,0.0,0.0,-4.1533,-4.3049,-4.5218,-4.7466,-4.8277,-5.1014,-5.4288,-5.6156,-5.8156,-5.9989,-6.1407,-6.2364,-6.3279,-6.4093,-6.3767,-6.2492,-5.9643,-5.8612,-5.7472,-5.4704,-5.4026,-5.4216,-5.5057,-5.503,-5.5762,-5.8557,-5.9887,-6.1352,-6.3659,-6.5613,-6.7268,-6.8462,-6.9466,-7.0117,-7.0225,-6.9927,-6.9798,-7.0294,-7.1888,-7.3385,-7.4603,-7.4982,-7.5098,-7.5098,-7.5737,-7.6238,-7.6681,-7.7789,-7.9194,-8.0418,-8.1403,-8.2481,-8.3841,-8.3841,-8.4723,-8.6147,-8.6694,-8.7815,-8.9273,-8.9816,-9.0337,-9.0801,-9.1529,-9.1562,-9.1231,-9.1993,-9.196,-9.1529,0.0,0.0,0.0,0.0,0.0,-3.162,-3.5277,-3.6506,-3.8591,-4.2969,-4.2602,-4.1614,-4.0837,-3.8409,-3.5752,-3.3002,-3.2043,0.0,0.0,0.0,0.0,0.0,0.0,0.0,0.0,0.0,-3.3833,-3.3779,-3.3574,-3.3603,0.0,0.0,-3.4068,-3.3849,0.0,0.0,0.0,0.0,0.0,0.0,0.0,0.0,0.0,0.0,0.0,0.0,0.0,0.0,0.0,0.0,0.0,-4.6525,-4.629,-4.8224,-5.1152,-5.4184,-5.677,-5.9073,-6.0749,-6.1997,-6.3046,-6.383,-6.3127,-6.1782,-5.94,-5.7911,-5.6631,-5.4623,-5.389,-5.3999,-5.5274,-5.5084,-5.5518,-5.7825,-5.9154,-6.0511,-6.2302,-6.4609,-6.6508,-6.7512,-6.9004,-7.0008,-7.0063,-6.9846,-7.0146,-7.1333,-7.244,-7.3908,-7.5617,-7.5795,-7.5795,-7.5795,-7.623,-7.6911,-7.7623,-7.8063,-7.919,-8.0956,-8.1584,-8.2671,-8.4283,-8.4504,-8.562,-8.7373,-8.7599,-8.8757,-9.0536,-9.0767,-9.1132,-9.1629,-9.2159,-9.2192,-9.196,-9.249,-9.2358,-9.196,0.0,0.0,0.0,0.0,0.0,0.0,-3.3931,-3.6501,-3.8857,-4.0785,-4.1023,-4.0661,-3.9665,-3.673,-3.4753,-3.4505,-3.2855,0.0,0.0,0.0,0.0,0.0,0.0,0.0,0.0,0.0,-3.2996,-3.3023,-3.419,-3.4392,-3.3587,-3.5009,-3.5169,-3.4397,0.0,0.0,0.0,0.0,0.0,0.0,0.0,0.0,0.0,0.0,0.0,0.0,0.0,0.0,0.0,0.0,0.0,0.0,0.0,-4.6813,-4.8917,-5.22,-5.5096,-5.757,-5.9888,-6.1211,-6.2077,-6.2965,-6.2523,-6.1333,-5.8967,-5.7779,-5.6495,-5.4107,-5.3592,-5.3619,-5.3619,-5.4596,-5.56,-5.6224,-5.834,-6.0511,-6.2302,-6.4609,-6.6345,-6.6942,-6.914,-7.0117,-6.8923,-6.9357,-7.0466,-7.2131,-7.2721,-7.4079,-7.6404,-7.6462,-7.6462,-7.6462,-7.6462,-7.6462,-7.6462,-7.7623,-7.8759,-7.9839,-8.1664,-8.3139,-8.4315,-8.4978,-8.6066,-8.7405,-8.8117,-8.9215,-9.0569,-9.1297,-9.1562,-9.1596,-9.1596,-9.2026,-9.2689,-9.2689,-9.2689,-9.2788,0.0,0.0,0.0,0.0,0.0,0.0,0.0,-3.3125,-3.4505,-3.7828,-3.7375,-3.6793,-3.7028,-3.4787,-3.3128,-3.2587,-3.1503,0.0,0.0,0.0,0.0,0.0,0.0,0.0,0.0,-3.255,-3.3315,-3.3966,-3.4759,-3.5384,-3.5913,-3.591,-3.5621,-3.4999,-3.458,-3.4397,0.0,0.0,0.0,0.0,0.0,0.0,-3.4397,0.0,0.0,0.0,0.0,0.0,0.0,0.0,0.0,0.0,0.0,0.0,0.0,-4.9075,-5.2807,-5.6399,-5.7539,-5.9253,-6.0715,-6.0548,-5.9642,-5.8642,-5.829,-5.6665,-5.5111,-5.4351,-5.389,-5.3727,-5.4134,-5.4189,-5.5193,-5.8259,-5.9046,-6.0185,-6.2763,-6.488,-6.6345,-6.6942,-6.9493,-7.104,-7.066,-7.0795,-7.1701,-7.324,-7.3564,-7.4533,-7.6433,-7.6462,-7.6462,-7.6462,-7.6462,-7.6882,-7.7623,-7.8759,-8.0113,-8.1664,-8.3182,-8.4487,-8.5705,-8.5926,-8.7087,-8.8862,-8.9089,-8.9966,-9.1264,-9.1496,-9.1596,-9.1629,-9.2126,-9.2159,-9.1993,-9.249,-9.2358,-9.2026,0.0,0.0,0.0,0.0,0.0,0.0,0.0,-3.0776,-3.1599,-3.4273,-3.3732,-3.3578,-3.4708,-3.2645,-3.1352,-3.1905,-3.0403,0.0,0.0,0.0,0.0,0.0,0.0,0.0,-3.1048,-3.2266,-3.3569,-3.5051,-3.5652,-3.6515,-3.7639,-3.7273,-3.6541,-3.5574,-3.5208,-3.4789,0.0,0.0,0.0,0.0,0.0,0.0,-3.4397,0.0,0.0,0.0,0.0,0.0,0.0,0.0,0.0,0.0,0.0,0.0,0.0,0.0,-5.0427,-5.3813,-5.5287,-5.7194,-5.8746,-5.8586,-5.7705,-5.6977,-5.7158,-5.5934,-5.4581,-5.4243,-5.3863,-5.37,-5.408,-5.4026,-5.4867,-5.7743,-5.8449,-5.9697,-6.2682,-6.4636,-6.6427,-6.8163,-6.9818,-7.0985,-7.1447,-7.1474,-7.2277,-7.3801,-7.3957,-7.476,-7.6462,-7.6462,-7.6462,-7.6462,-7.6462,-7.706,-7.8209,-7.9143,-8.0588,-8.2558,-8.3807,-8.5076,-8.6369,-8.6895,-8.8059,-8.951,-8.9773,-9.055,0.0,-9.1596,-9.1728,-9.2026,-9.2192,-9.249,-9.2854,-9.3053,-9.2821,-9.2556,0.0,0.0,0.0,0.0,0.0,0.0,0.0,-2.9289,-2.9842,-3.034,-3.039,-3.1002,-3.2526,-3.0199,-2.9504,-3.1847,0.0,0.0,0.0,0.0,0.0,0.0,0.0,0.0,-3.1026,-3.2123,-3.3822,-3.6175,-3.6802,-3.7743,-3.8893,-3.8893,-3.7952,-3.6227,-3.6175,-3.5521,-3.4397,0.0,0.0,0.0,-3.4397,-3.4397,0.0,0.0,0.0,0.0,0.0,0.0,0.0,0.0,0.0,0.0,0.0,0.0,0.0,0.0,0.0,0.0,0.0,-5.505,-5.6396,-5.6897,-5.6633,-5.6213,-5.5854,-5.523,0.0,-5.3768,-5.3619,-5.3646,-5.3754,-5.4162,-5.4758,-5.5654,-5.7174,-5.9317,-6.2302,-6.4337,-6.6806,-7.0253,-7.0225,-7.0334,-7.1447,-7.1528,-7.2332,-7.3885,-7.3985,-7.476,-7.6462,-7.6491,-7.6521,-7.6521,-7.6579,-7.7148,-7.8122,-7.9039,-8.0502,-8.2574,-8.4155,-8.5369,-8.66,-8.7916,-8.8846,-8.9641,-9.0325,-9.0966,-9.1596,-9.1596,-9.1993,-9.2556,-9.1861,-9.2888,-9.4643,-9.3981,-9.3716,-9.3914,0.0,0.0,0.0,0.0,0.0,0.0,0.0,0.0,0.0,0.0,-2.8441,-2.8181,-2.7776,-2.7412,-2.7285,0.0,0.0,0.0,0.0,0.0,0.0,0.0,0.0,0.0,-3.1601,-3.2333,-3.4031,-3.6802,-3.7821,-3.9128,-4.0697,-4.0697,-3.9547,-3.7456,-3.6985,-3.5887,-3.4397,-3.4397,0.0,0.0,-3.4397,-3.4397,0.0,0.0,0.0,0.0,-3.6384,-3.7743,0.0,0.0,0.0,0.0,0.0,0.0,0.0,0.0,-4.6865,-4.7728,-4.974,0.0,-5.439,-5.4459,-5.4299,-5.4506,0.0,-5.4611,-5.3589,-5.3874,-5.3795,-5.4026,-5.541,-5.503,-5.5573,-5.8964,-5.986,-6.1162,-6.4147,-6.6915,-6.9303,-7.1067,-7.1555,-7.1854,-7.2125,-7.2152,-7.2963,-7.4558,-7.4238,-7.476,-7.6462,-7.6927,-7.7188,-7.7188,-7.7682,-7.7863,-7.7641,-7.9988,-8.1698,-8.2824,-8.5011,-8.6759,-8.7948,-8.8411,-8.9113,-9.0325,-9.0583,-9.0966,-9.1596,-9.1596,-9.1695,-9.1828,-9.1662,-9.2258,-9.3186,-9.302,-9.2954,-9.3153,0.0,0.0,0.0,0.0,0.0,0.0,0.0,0.0,0.0,0.0,0.0,-2.68,-2.6728,-2.6727,0.0,0.0,0.0,0.0,0.0,0.0,0.0,0.0,0.0,-3.0241,-3.1418,-3.2254,-3.4241,-3.7403,-3.8292,-3.986,-4.2082,-4.1821,-4.0488,-3.8214,-3.6541,-3.5286,-3.4397,-3.4397,-3.4397,-3.4397,-3.4397,0.0,0.0,0.0,0.0,0.0,-3.6384,-3.7743,0.0,-4.2004,-4.352,-4.4382,0.0,0.0,0.0,0.0,-4.5663,-4.6342,-4.7571,-5.0097,-5.247,-5.2501,-5.2721,-5.3349,-5.4324,-5.3895,-5.3412,-5.3712,-5.3687,-5.3972,-5.5247,-5.5844,-5.6956,-5.9534,-6.1108,-6.3035,-6.602,-6.8787,-7.0768,-7.1392,-7.1989,-7.2369,-7.2369,-7.2369,-7.3155,-7.4782,-7.4322,-7.476,-7.6462,-7.7072,-7.7391,-7.7391,-7.832,-7.8802,-7.8587,-8.1089,-8.2771,-8.3716,-8.579,-8.7444,-8.8475,-8.8846,-8.951,-9.0583,-9.0966,-9.1219,-9.1596,-9.1596,-9.1794,-9.2059,-9.1728,-9.2457,-9.3649,-9.3318,-9.3418,-9.3943,0.0,0.0,0.0,0.0,0.0,0.0,0.0,0.0,0.0,0.0,0.0,0.0,0.0,0.0,0.0,0.0,0.0,0.0,0.0,0.0,0.0,0.0,-2.9928,-3.0555,-3.1496,-3.228,-3.4397,-3.79,-3.8632,-4.0305,-4.2892,-4.2762,-4.1324,-3.8736,-3.6018,-3.4659,-3.4397,-3.4397,-3.4397,-3.4397,-3.4397,0.0,0.0,0.0,0.0,0.0,0.0,0.0,0.0,-4.2291,-4.3964,-4.48,-4.5114,0.0,0.0,0.0,0.0,0.0,-4.6761,-4.9101,-5.1145,-5.1408,-5.203,-5.2791,-5.3369,-5.361,-5.3619,-5.3727,-5.3863,-5.4216,-5.5355,-5.7011,-5.8612,-5.9887,-6.2356,-6.5043,-6.7783,-7.009,-7.1474,-7.1474,-7.1989,-7.2315,-7.2233,-7.2478,-7.3127,-7.4642,-7.4422,-7.4942,-7.6608,-7.7217,-7.7595,-7.7682,-7.8843,-7.981,-8.0437,-8.2136,-8.358,-8.4758,-8.6648,-8.7931,-8.8744,-8.9378,-9.0033,-9.0839,-9.1312,-9.1596,-9.1596,-9.1596,-9.196,-9.2457,-9.1828,-9.2888,-9.4643,-9.4014,-9.4179,-9.4838,0.0,0.0,0.0,0.0,0.0,0.0,0.0,0.0,0.0,0.0,0.0,0.0,0.0,0.0,0.0,0.0,0.0,0.0,0.0,0.0,0.0,-3.0712,-3.0346,-3.1313,-3.3822,-3.3091,-3.4397,-3.79,-3.9416,-4.088,-4.2343,-4.4225,-4.3075,-3.939,-3.7456,-3.5783,-3.4397,-3.4397,-3.4397,-3.4397,-3.4397,0.0,0.0,0.0,0.0,0.0,0.0,0.0,0.0,-4.0435,-4.2631,-4.4565,-4.3702,0.0,0.0,0.0,0.0,0.0,-4.8695,-5.1005,-5.2596,-5.2147,-5.266,-5.3605,-5.4773,-5.4533,-5.434,-5.4638,-5.4862,-5.6251,-5.986,-5.9616,-6.0213,-6.4364,-6.6264,-6.7729,-6.9221,-7.0605,-7.1474,-7.1474,-7.1989,-7.2179,-7.1664,-7.2692,-7.355,-7.4154,-7.4634,-7.5727,-7.7217,-7.7885,-7.8494,-7.8988,-7.9743,-8.0688,-8.1803,-8.304,-8.4252,-8.544,-8.7423,-8.8744,-8.9378,-9.0066,-9.0839,-9.1471,-9.1596,-9.1596,-9.1596,-9.1596,-9.1662,-9.1728,-9.1629,-9.2556,-9.3948,-9.3848,-9.4009,-9.439,0.0,0.0,0.0,0.0,0.0,0.0,0.0,0.0,0.0,0.0,0.0,0.0,0.0,0.0,0.0,0.0,0.0,0.0,0.0,0.0,0.0,-3.2333,-3.1836,-3.228,-3.3927,-3.4345,-3.6096,-3.9259,-4.0984,-4.2579,-4.4016,-4.3206,-4.1481,-3.9024,-3.6645,-3.5155,-3.4397,-3.4397,-3.4397,-3.4397,0.0,0.0,0.0,0.0,0.0,0.0,0.0,0.0,0.0,0.0,-4.2448,-4.3781,-4.3546,0.0,0.0,0.0,0.0,0.0,-4.7989,-4.9887,-5.1759,-5.3229,-5.5287,-5.7115,-5.824,-5.8536,-5.8295,-5.7752,-5.7694,-5.8503,-6.0755,-6.1542,-6.3333,-6.781,-6.8733,-6.9194,-7.0063,-7.0931,-7.1609,-7.1935,-7.2505,-7.264,-7.2016,-7.3566,-7.4542,-7.4519,-7.5555,-7.6673,-7.7914,-7.8553,-7.9017,-7.9278,-7.9946,-8.1175,-8.2951,-8.3519,-8.4405,-8.5595,-8.7593,-8.8846,-8.951,-9.0325,-9.0966,-9.1596,-9.1596,-9.1596,-9.1596,-9.1596,-9.1596,-9.1629,-9.2026,-9.2854,-9.3848,-9.4502,-9.4656,-9.4566,0.0,0.0,0.0,0.0,0.0,0.0,0.0,0.0,0.0,0.0,0.0,0.0,0.0,0.0,0.0,0.0,0.0,0.0,0.0,0.0,-3.1052,-3.3091,-3.3117,-3.3692,-3.4972,-3.5992,-3.8004,-4.1036,-4.2631,-4.4251,-4.5767,-4.2526,-4.0278,-3.8815,-3.6175,-3.4789,-3.4397,-3.4397,-3.4397,-3.4397,0.0,0.0,0.0,0.0,0.0,0.0,0.0,0.0,0.0,0.0,0.0,0.0,0.0,0.0,0.0,-4.4748,-4.5323,-4.6525,-4.7937,-4.9599,-5.1636,-5.4839,-5.7088,-5.8982,-6.0957,-6.1306,-6.1145,-6.0916,-6.0701,-6.081,-6.1841,-6.3849,-6.6454,-6.9846,-7.0117,-7.0117,-7.0714,-7.1202,-7.1691,-7.2288,-7.2776,-7.2939,-7.2613,-7.4361,-7.5476,-7.5165,-7.6507,-7.7875,-7.8814,-7.9278,-7.9598,-7.9743,-8.0381,-8.178,-8.3816,-8.3998,-8.4705,-8.6307,-8.7867,-8.921,-9.0032,-9.0648,-9.1191,-9.1828,-9.1662,-9.1596,-9.1596,-9.1596,-9.1596,-9.1629,-9.2192,-9.2888,-9.3744,-9.4889,-9.4942,-9.4613,0.0,0.0,0.0,0.0,0.0,0.0,0.0,0.0,0.0,0.0,0.0,0.0,0.0,0.0,0.0,0.0,0.0,0.0,0.0,0.0,-3.0686,-3.1914,-3.3456,-3.5809,-3.9102,-3.8266,-3.9442,-4.284,-4.4016,-4.5218,-4.6369,-4.3964,-4.1664,-3.9468,-3.7639,-3.5913,-3.4397,-3.4397,-3.4397,-3.4397,-3.4397,0.0,0.0,0.0,0.0,0.0,0.0,0.0,0.0,0.0,0.0,0.0,0.0,0.0,-4.6395,-4.6316,-4.71,-4.8486,-5.0681,-5.2423,-5.4311,-5.7267,-5.6367,-5.5893,-6.0843,-6.0355,-5.998,-6.3298,-6.3116,-6.3035,-6.5314,-6.7241,-6.876,-6.9628,-7.0198,-7.0741,-7.1338,-7.1447,-7.1691,-7.2288,-7.2396,-7.264,-7.3183,-7.4712,-7.584,-7.5755,-7.7391,-7.893,-8.0091,-8.0207,-8.0468,-8.1049,-8.1717,-8.2694,-8.3847,-8.4454,-8.5926,-8.8307,-8.9113,-9.013,-9.1566,-9.1516,-9.196,-9.2556,-9.1894,-9.1596,-9.1596,-9.1596,-9.1596,-9.1596,-9.1629,-9.2376,-9.3357,-9.4499,-9.4546,-9.4274,0.0,0.0,0.0,0.0,0.0,0.0,0.0,0.0,0.0,0.0,0.0,0.0,0.0,0.0,0.0,0.0,0.0,0.0,0.0,-2.9483,-3.0738,-3.3326,-3.4058,-3.5861,-3.8972,-4.0043,-4.1899,-4.4643,-4.5794,-4.6395,-4.6395,-4.2997,-4.0566,-3.8945,-3.6488,-3.5234,-3.492,-3.4554,-3.4607,-3.492,-3.4554,-3.4397,0.0,0.0,0.0,0.0,0.0,0.0,0.0,0.0,-4.0932,-4.2291,-4.3101,-4.4774,-4.6552,-4.6917,-4.731,-4.8172,-5.0472,-5.2686,-5.4943,-5.6686,-5.7557,-5.899,-6.3258,-6.4506,-6.4936,-6.5762,-6.5911,-6.602,-6.6589,-6.8136,-6.9547,-7.0171,-7.0443,-7.0795,-7.1392,-7.1474,-7.1854,-7.283,-7.2939,-7.3348,-7.4582,-7.6089,-7.7118,-7.723,-7.871,-7.9946,-8.0817,-8.0846,-8.1165,-8.1804,-8.2837,-8.3741,-8.4484,-8.585,-8.7529,-8.9113,-8.9378,-9.0066,-9.0976,-9.1444,-9.1728,-9.1993,-9.1695,-9.1596,-9.1596,-9.1596,-9.1596,-9.1629,-9.2343,-9.3365,-9.4649,-9.4982,-9.4993,-9.4813,0.0,0.0,0.0,0.0,0.0,0.0,0.0,0.0,0.0,0.0,0.0,0.0,0.0,0.0,0.0,0.0,0.0,0.0,-2.9222,-2.9457,-3.0764,-3.3456,-3.411,-3.5495,-3.7848,-4.0697,-4.3127,-4.5062,-4.6421,-4.6578,-4.5584,-4.2265,-4.0174,-3.9128,-3.6619,-3.573,-3.607,-3.526,-3.5077,-3.526,-3.4842,-3.4685,0.0,0.0,0.0,0.0,0.0,0.0,0.0,0.0,-4.0514,-4.1847,-4.3154,-4.5036,-4.6865,-4.744,-4.8629,-4.9913,-5.1478,-5.3523,-5.5763,-5.7459,-5.8778,-6.0721,-6.4411,-6.6039,-6.6872,-6.763,-6.7892,-6.7838,-6.762,-6.8435,-6.9466,-7.0443,-7.0605,-7.0795,-7.1392,-7.1474,-7.1935,-7.3156,-7.3292,-7.3922,-7.5682,-7.695,-7.7823,-7.8363,-7.956,-8.0643,-8.1455,-8.1514,-8.1804,-8.25,-8.3932,-8.4898,-8.5147,-8.7063,-8.8683,-9.0261,-8.9902,-9.0424,-9.1624,-9.1543,-9.1828,-9.2258,-9.1794,-9.1596,-9.1596,-9.1596,-9.1728,-9.1993,-9.2866,-9.4082,-9.5276,-9.5508,-9.5473,-9.5157,0.0,0.0,0.0,0.0,0.0,0.0,0.0,0.0,0.0,0.0,0.0,0.0,0.0,0.0,0.0,0.0,0.0,0.0,-2.9248,-2.9823,-3.066,-3.181,-3.3483,-3.492,-3.607,-4.0043,-4.2709,-4.3859,-4.5584,-4.5558,-4.3807,-4.2082,-4.0984,-4.0305,-3.8658,-3.7926,-3.7821,-3.6619,-3.5809,-3.5312,-3.5312,-3.5312,-3.5365,0.0,0.0,0.0,0.0,0.0,0.0,0.0,-3.9965,-4.0932,-4.3807,-4.5924,-4.744,-4.8015,-5.1268,-5.4678,-5.4149,-5.5287,-5.73,-5.9914,-5.9934,-6.0164,-6.3794,-6.3888,-6.4477,-6.8794,-6.8733,-6.8082,-6.8679,-6.8299,-6.8516,-7.0307,-7.0605,-7.0822,-7.1392,-7.1474,-7.1935,-7.3156,-7.3292,-7.4086,-7.629,-7.7201,-7.7993,-7.8963,-7.9791,-8.0846,-8.2123,-8.2181,-8.25,-8.3197,-8.5023,-8.5924,-8.5973,-8.785,-8.9723,-9.1664,-9.0943,-9.1722,-9.3749,-9.2258,-9.2391,-9.3683,-9.2225,-9.1596,-9.1596,-9.1596,-9.2026,-9.2689,-9.3066,-9.3907,-9.4924,-9.6002,-9.573,-9.4823,0.0,0.0,0.0,0.0,0.0,0.0,0.0,0.0,0.0,0.0,0.0,0.0,0.0,0.0,0.0,0.0,0.0,0.0,-2.9849,-3.0032,-3.0817,-3.2359,-3.3326,-3.4162,-3.4894,-3.7299,-4.0278,-4.3859,-4.399,-4.3154,-4.1428,-4.054,-3.9599,-3.8658,-3.8972,-3.8423,-3.7273,-3.7351,-3.7273,-3.7142,-3.7142,-3.6881,-3.6593,0.0,0.0,0.0,0.0,0.0,0.0,0.0,0.0,0.0,-4.3467,-4.5611,-4.7519,-4.8538,-4.9782,-5.1163,-5.2481,-5.5551,-5.8396,-5.8838,-6.1966,-6.4878,-6.5232,-6.542,-6.612,-6.8496,-6.8435,-6.8082,-6.8679,-6.9004,-6.9493,-7.0443,-7.0958,-7.1284,-7.1447,-7.1474,-7.1935,-7.3156,-7.376,-7.5047,-7.709,-7.8155,-7.8992,-7.9791,-8.0136,-8.0846,-8.2123,-8.2181,-8.316,-8.5052,-8.6479,-8.7738,-8.8567,-9.0538,-9.1868,-9.2385,-9.218,-9.2463,-9.2987,-9.2556,-9.2324,-9.2258,-9.2324,-9.2358,-9.2391,-9.2921,-9.308,-9.3132,-9.4007,-9.4924,-9.5968,-9.6574,-9.6156,-9.5499,0.0,0.0,0.0,0.0,0.0,0.0,0.0,0.0,0.0,0.0,-2.7523,-2.7523,0.0,0.0,0.0,0.0,0.0,0.0,-3.0111,-3.0346,-3.1026,-3.2306,-3.2908,-3.3927,-3.5391,-3.6698,-3.8606,-4.1141,-4.1507,-4.1115,-4.0095,-4.0461,-4.0383,-3.9991,-4.1141,-4.0671,-3.9076,-3.9207,-3.8998,-3.8606,-3.8815,-3.8684,-3.8423,0.0,0.0,0.0,0.0,0.0,0.0,0.0,0.0,0.0,-4.2997,-4.4957,-4.7074,-4.9377,-5.1259,-5.3203,-5.5895,-5.9035,-6.172,-6.2683,-6.476,-6.6676,-6.6585,-6.6801,-6.7233,-6.8272,-6.8326,-6.8435,-6.9032,-6.9656,-7.0253,-7.085,-7.1257,-7.1474,-7.1474,-7.1691,-7.2206,-7.3183,-7.428,-7.5623,-7.7582,-7.848,-7.9312,-8.0294,-8.0294,-8.1004,-8.2896,-8.2503,-8.354,-8.6697,-8.7763,-8.8648,-8.9765,-9.1974,-9.3037,-9.2677,-9.2761,-9.2689,-9.2689,-9.2689,-9.2623,-9.2457,-9.2623,-9.2689,-9.2689,-9.2854,-9.3073,-9.3257,-9.4398,-9.5508,-9.6395,-9.6764,-9.6413,-9.577,0.0,0.0,0.0,0.0,0.0,0.0,0.0,0.0,0.0,-2.7523,-2.7523,-2.7523,0.0,0.0,0.0,-2.8464,-2.9483,-3.0163,-3.0215,-3.0712,-3.1261,-3.1888,-3.2568,-3.4162,-3.6802,-3.7325,-3.7351,-3.6854,-3.8553,-3.9364,-3.9416,-4.1246,-4.2369,-4.2918,-4.4225,-4.3755,-4.1977,-4.1455,-4.0592,-3.9651,-4.0252,-4.0435,-4.0357,-4.0461,0.0,0.0,0.0,0.0,0.0,0.0,0.0,0.0,-4.2552,-4.4251,-4.6264,-4.9983,-5.4166,-5.8212,-6.1495,-6.3834,-6.6137,-6.874,-6.7611,-6.6191,-6.7648,-6.7892,-6.7892,-6.7892,-6.8353,-6.8977,-6.9601,-7.0198,-7.0795,-7.1392,-7.1474,-7.1501,-7.1555,-7.2016,-7.2586,-7.3237,-7.4609,-7.6176,-7.7554,-7.8451,-7.9472,-8.0294,-8.0294,-8.1321,-8.3815,-8.2954,-8.3991,-8.7763,-8.8655,-8.9325,-8.9934,-9.2631,-9.3598,-9.2888,-9.2888,-9.2888,-9.2888,-9.2755,-9.3053,-9.3649,-9.3053,-9.2722,-9.2556,-9.1993,-9.2376,-9.3415,-9.4432,-9.5542,-9.6518,-9.6764,-9.6413,-9.5702,0.0,0.0,0.0,0.0,0.0,0.0,0.0,0.0,-2.7523,-2.7523,-2.7523,-2.7523,-2.7523,-2.8046,0.0,-2.9039,-2.9719,-3.032,-3.079,-3.0921,-3.1444,-3.2463,-3.3927,-3.5025,-3.5652,-3.5338,-3.5312,-3.5678,-3.6933,-3.756,-3.7612,-4.0252,-4.1559,-4.1794,-4.4304,-4.3702,-4.0775,-4.0671,-4.0226,-3.9703,-4.0723,-4.0592,-3.9886,-4.0775,-3.986,0.0,0.0,0.0,0.0,0.0,0.0,0.0,-4.3154,-4.4591,-4.595,-4.7712,-5.097,-5.4596,-5.6771,-6.1051,-6.5355,-6.6783,-6.7584,-6.8009,-6.7946,-6.7892,-6.7892,-6.7892,-6.8353,-6.8977,-6.9601,-7.0198,-7.0795,-7.1392,-7.1474,-7.1636,-7.2098,-7.2288,-7.2586,-7.3237,-7.5266,-7.6661,-7.6964,-7.8866,-8.0136,-8.0294,-8.0294,-8.1004,-8.2576,-8.3272,-8.4909,-8.7763,-8.9443,-9.0983,-9.2047,-9.3747,-9.4618,-9.4411,-9.4411,-9.4411,-9.4378,-9.3219,-9.2788,-9.2954,-9.3384,-9.2888,-9.1894,-9.3173,-9.3715,-9.3696,-9.5407,-9.6383,-9.6764,-9.6886,-9.6413,-9.5702,0.0,0.0,0.0,0.0,0.0,0.0,0.0,0.0,-2.7837,-2.7575,-2.7523,-2.7523,-2.7523,-2.8046,0.0,0.0,-2.9379,-2.998,-3.0529,-3.0581,-3.1209,-3.262,-3.4371,-3.5025,-3.4502,-3.4424,-3.4424,-3.4476,-3.5077,-3.607,-3.7482,-3.9808,-4.1611,-4.3023,-4.4513,-4.3885,-4.1638,-4.1376,-4.0932,-4.0514,-4.1664,-4.1611,-4.088,-4.1193,-4.0043,-3.8292,-3.8292,0.0,0.0,0.0,0.0,0.0,0.0,0.0,-4.5349,-4.8379,-5.0933,-5.3827,-5.8689,-6.2587,-6.5705,-6.7909,-6.8821,-6.9059,-6.8462,-6.8109,-6.7973,-6.8245,-6.8814,-6.9411,-7.0008,-7.0605,-7.1121,-7.1419,-7.1474,-7.1691,-7.2288,-7.2369,-7.2859,-7.4252,-7.5759,-7.7041,-7.7808,-7.9271,-8.0294,-8.0294,-8.0294,-8.1291,-8.3785,-8.4031,-8.5843,-8.9474,-9.035,-9.1284,-9.223,-9.4023,-9.4518,-9.3848,-9.4577,-9.4345,-9.3318,-9.3252,-9.3219,-9.3186,-9.2888,-9.2616,-9.2376,-9.2567,-9.3172,-9.4064,-9.5296,-9.6101,-9.6345,-9.6345,-9.5905,-9.5161,0.0,0.0,0.0,0.0,0.0,0.0,0.0,0.0,0.0,-2.7602,-2.7523,-2.7523,-2.7523,-2.7941,-2.8281,0.0,0.0,0.0,-2.9954,-3.0163,-3.0947,-3.2489,-3.4136,-3.4554,-3.3613,-3.3927,-3.3979,-3.3744,-3.3535,-3.5077,-3.824,-3.9834,-4.2056,-4.4722,-4.4617,-4.3938,-4.2814,-4.1951,-4.1298,-4.0958,-4.2004,-4.2082,-4.1533,-4.1167,-4.0069,-3.871,-3.871,-3.8841,-3.9181,-4.0331,0.0,0.0,0.0,0.0,-4.4909,-4.9191,-5.1266,-5.3668,-6.0897,-6.413,-6.6379,-6.9846,-7.0144,-6.9547,-6.8923,-6.8326,-6.8082,-6.8787,-6.9357,-6.99,-7.0497,-7.1067,-7.1474,-7.1474,-7.1555,-7.1799,-7.2288,-7.2451,-7.3186,-7.5019,-7.6029,-7.7118,-7.8592,-7.956,-8.0178,-8.0294,-8.0294,-8.1889,-8.5455,-8.4778,-8.6549,-9.1185,-9.1128,-9.1237,-9.162,-9.3795,-9.4213,-9.2888,-9.4113,-9.3616,-9.1629,-9.2722,-9.3219,-9.3186,-9.2192,-9.2376,-9.3124,-9.2025,-9.2781,-9.4476,-9.5305,-9.5663,-9.5804,-9.5939,-9.5432,-9.462,0.0,0.0,0.0,0.0,0.0,0.0,0.0,0.0,0.0,0.0,-2.7523,-2.7523,-2.7523,-2.7602,-2.7837,-2.8333,-2.8438,-2.8752,-2.9353,0.0,0.0,-3.1914,-3.3143,-3.3744,-3.3587,-3.3143,-3.3378,-3.4293,-3.33,-3.5077,-3.9416,-4.0618,-4.2474,-4.4748,-4.4225,-4.3363,-4.2134,-4.0043,-3.9128,-3.9128,-3.9782,-3.9703,-3.9233,-3.9677,-3.9364,-3.871,-3.871,-3.9337,-4.0357,-4.1533,-4.2317,0.0,0.0,0.0,-4.4853,-4.5976,-4.8837,-5.1954,-5.4118,-6.0087,-6.6558,-6.9846,-7.0144,-6.9547,-6.8923,-6.8326,-6.8217,-6.9357,-6.9656,-6.99,-7.0497,-7.1067,-7.1474,-7.1474,-7.1908,-7.2288,-7.2342,-7.283,-7.335,-7.3726,-7.5107,-7.63,-7.7335,-7.8636,-7.9685,-8.0265,-8.0294,-8.1449,-8.4283,-8.524,-8.706,-8.99,-9.1578,-9.2204,-9.1534,-9.3792,-9.4478,-9.3649,-9.3848,-9.3119,-9.1562,-9.1165,-9.0966,-9.1032,-9.2093,-9.2841,-9.3224,-9.394,-9.4613,-9.5217,-9.6325,-9.6345,-9.5872,-9.6514,-9.5872,-9.4687,0.0,0.0,0.0,0.0,0.0,0.0,0.0,0.0,0.0,0.0,0.0,-2.7523,-2.7523,-2.7523,-2.7628,-2.7889,-2.7915,-2.8307,-2.9222,-3.0346,-3.1235,-3.181,-3.2646,-3.2934,-3.262,-3.2359,-3.262,-3.3456,-3.3273,-3.5547,-4.0069,-4.0932,-4.2892,-4.5663,-4.4095,-4.3127,-4.25,-4.02,-3.9024,-3.8762,-3.9364,-4.0618,-4.1925,-4.0252,-4.0644,-4.1873,-4.0252,-4.02,-4.1063,-4.1899,-4.2762,-4.3572,-4.4095,0.0,0.0,0.0,-4.7267,-5.0311,-5.592,-6.1613,-6.7017,-7.0334,-7.0632,-7.0063,-6.9439,-6.8814,-6.8652,-6.952,-6.971,-7.0008,-7.0931,-7.1311,-7.1474,-7.1474,-7.1691,-7.1989,-7.2315,-7.2776,-7.3371,-7.4696,-7.5492,-7.6693,-7.8192,-7.8977,-7.9569,-8.0236,-8.0893,-8.2355,-8.4996,-8.5937,-8.7694,-9.0668,-9.1225,-9.1656,-9.2254,-9.3561,-9.4312,-9.4411,-9.3153,-9.1993,-9.0933,-8.9409,-8.9376,-9.0569,-9.1413,-9.2425,-9.3472,-9.4177,-9.5149,-9.6257,-9.6311,-9.6311,-9.6379,-9.6311,-9.5601,-9.4721,0.0,0.0,0.0,0.0,0.0,0.0,0.0,0.0,0.0,0.0,0.0,-2.7523,-2.7523,0.0,0.0,0.0,-2.7523,-2.7968,-2.8987,-2.998,-3.0817,-3.1315,-3.1967,-3.2071,-3.1627,-3.1757,-3.2202,-3.2908,-3.3666,-3.6358,-4.088,-4.1481,-4.3598,-4.6813,-4.4487,-4.3389,-4.3075,-4.0801,-3.9547,-3.9233,-4.0278,-4.2239,-4.4382,-4.2814,-4.3912,-4.5898,-4.2997,-4.2343,-4.284,-4.284,-4.3284,-4.3912,-4.4225,-4.4513,0.0,0.0,0.0,-4.8839,-5.7144,-6.1621,-6.4978,-6.92,-7.0008,-6.9683,-6.971,-6.9221,-6.895,-6.9574,-6.971,-7.0063,-7.1257,-7.1474,-7.1474,-7.1474,-7.1609,-7.1799,-7.2098,-7.2661,-7.3515,-7.5091,-7.5725,-7.6731,-7.8959,-7.9075,-7.9423,-8.0236,-8.1632,-8.3337,-8.5516,-8.6644,-8.8455,-9.1173,-9.0963,-9.1336,-9.2711,-9.3426,-9.408,-9.4577,-9.2358,-9.0933,-9.0171,-8.8349,-8.8515,-9.0393,-9.097,-9.2337,-9.4143,-9.4724,-9.5899,-9.7123,-9.6582,-9.6582,-9.6853,-9.648,-9.5669,-9.4721,0.0,0.0,0.0,0.0,0.0,0.0,0.0,0.0,0.0,0.0,0.0,-2.7523,-2.7523,-2.7523,-2.7523,-2.7523,-2.7523,-2.7785,-2.8386,-2.9013,-2.9614,-3.0189,-3.0764,0.0,-3.1026,-3.1548,-3.2411,-3.3535,-3.4659,-3.756,-4.2082,-4.2657,-4.4774,-4.7989,-4.5715,-4.4356,-4.3676,-4.135,-4.0357,-4.0514,-4.2762,-4.3755,-4.433,-4.7963,-4.9819,-5.0106,-4.7205,-4.6525,-4.6787,-4.5166,-4.4304,-4.4068,-4.5192,-4.5166,-4.4748,0.0,0.0,0.0,-5.4054,-5.6209,-5.8563,-6.5491,-6.7213,-6.7648,-6.933,-6.9221,-6.895,-6.9574,-6.971,-7.0063,-7.1257,-7.1474,-7.1474,-7.1474,-7.1962,-7.2125,-7.1609,-7.2743,-7.3682,-7.4126,-7.4817,-7.6071,-7.8166,-7.8465,-7.8959,-8.0207,-8.2045,-8.3606,-8.4909,-8.7352,-8.9273,-9.051,-9.1141,-9.1923,-9.2755,-9.3451,-9.3815,-9.3815,-9.1629,-9.0204,-8.9442,-8.8614,-8.8834,-9.0027,-9.1425,-9.3228,-9.5351,-9.6731,-9.762,-9.7935,-9.7901,-9.7461,-9.6954,-9.7631,-9.6548,-9.4823,0.0,0.0,0.0,0.0,0.0,0.0,0.0,0.0,0.0,0.0,0.0,0.0,0.0,-2.8647,-2.849,-2.8098,-2.8072,-2.849,-2.9431,-2.9719,-3.0085,-3.066,-3.1235,-3.1522,-3.1522,-3.2097,-3.2777,-3.3587,-3.4737,-3.709,-4.054,-4.1847,-4.3938,-4.6499,-4.5297,-4.4643,-4.4278,-4.1559,-4.0409,-4.0697,-4.3755,-4.6316,-4.8512,-5.0315,-5.2746,-5.4785,-5.1518,-4.974,-4.8878,-4.8277,-4.6944,-4.5558,-4.5611,-4.5741,-4.5924,-4.629,-4.7231,-4.9075,-5.3402,-5.5679,-5.8,-6.266,-6.5437,-6.7186,-6.7838,-6.8706,-6.9547,-7.0144,-6.9981,-7.0063,-7.1257,-7.1474,-7.1474,-7.1474,-7.1664,-7.188,-7.2277,-7.321,-7.4053,-7.476,-7.5526,-7.6479,-7.7682,-7.8146,-7.8756,-7.9598,-8.2011,-8.3914,-8.4818,-8.7293,-8.9243,-9.0514,-9.0783,-9.1558,-9.2689,-9.3881,-9.4014,-9.3053,-9.1331,-9.037,-9.0072,-8.9087,-8.946,-9.1055,-9.2769,-9.4098,-9.5385,-9.7148,-9.7879,-9.7969,-9.7461,-9.7428,-9.7563,-9.736,-9.648,-9.5432,0.0,0.0,0.0,0.0,0.0,0.0,0.0,0.0,-2.8255,-2.8621,0.0,0.0,0.0,0.0,-2.998,-2.9588,-2.9353,-2.9588,-3.0372,-3.0607,-3.0869,-3.1261,-3.181,-3.2123,-3.2123,-3.2881,-3.3456,-3.3875,-3.5417,-3.7351,-3.9651,-4.135,-4.331,-4.5297,-4.433,-4.4434,-4.5192,-4.3075,-4.2056,-4.2213,-4.629,-4.8956,-5.0786,-5.3478,-5.57,-5.7085,-5.4759,-5.306,-5.1884,-5.1701,-5.0629,-4.9087,-4.7545,-4.6656,-4.6316,-4.6865,-4.7728,-4.9101,-5.1751,-5.3768,-5.5996,-6.015,-6.2722,-6.4907,-6.7105,-6.8217,-6.914,-7.0361,-7.028,-7.0307,-7.1284,-7.1474,-7.1474,-7.1474,-7.1474,-7.1796,-7.254,-7.3488,-7.4268,-7.5039,-7.5981,-7.6724,-7.7333,-7.7798,-7.832,-7.8959,-8.199,-8.4055,-8.4564,-8.7462,-8.9698,-9.0816,-9.14,-9.2044,-9.2689,-9.3914,-9.3914,-9.2656,-9.0966,-9.0138,-9.0228,-8.9507,-8.9933,-9.1361,-9.3581,-9.4934,-9.5663,-9.7271,-9.8003,-9.7969,-9.7461,-9.7563,-9.7935,-9.7428,-9.665,-9.5804,0.0,0.0,0.0,0.0,0.0,0.0,-2.9379,-2.9353,-2.9353,-2.9405,0.0,0.0,0.0,0.0,0.0,-3.1863,-3.1392,-3.1078,-3.1078,-3.1575,-3.1785,-3.1785,-3.2411,-3.2725,-3.2751,-3.3822,-3.4397,-3.4424,-3.6724,-3.8423,-3.9573,-4.1298,-4.2997,-4.4591,-4.2918,-4.3755,-4.6369,-4.5767,-4.5218,-4.5218,-5.0368,-5.1492,-5.0786,-5.7634,-5.8915,-5.7033,-5.7033,-5.6615,-5.5987,-5.5465,-5.5203,-5.4471,-5.0995,-4.7937,-4.5767,-4.6342,-4.6944,-4.7623,0.0,0.0,0.0,-5.7784,-5.9022,-6.062,-6.7024,-6.7648,-6.7566,-7.0008,-7.0497,-7.0687,-7.1365,-7.1474,-7.1474,-7.1474,-7.1474,-7.1796,-7.254,-7.3488,-7.4268,-7.5192,-7.5981,-7.6695,-7.7333,-7.7391,-7.7682,-7.832,-8.1751,-8.3923,-8.3911,-8.8163,-9.0848,-9.1629,-9.302,-9.3418,-9.2689,-9.3418,-9.3384,-9.2623,-9.0469,-8.9597,-8.9993,-8.996,-9.0319,-9.1144,-9.4039,-9.5528,-9.5905,-9.7394,-9.8003,-9.8003,-9.8003,-9.8003,-9.8003,-9.8003,-9.7089,-9.5804,0.0,0.0,0.0,0.0,0.0,-3.1261,-3.1679,-3.1052,-3.0973,0.0,0.0,0.0,-3.3352,-3.3587,-3.3875,-3.4293,-3.343,-3.2881,-3.2881,-3.262,-3.2463,-3.2463,-3.3038,-3.3535,-3.3927,-3.4241,-3.4607,-3.5051,-3.6096,-3.6985,-3.7769,-3.9494,-4.101,-4.2265,-4.2213,-4.3075,-4.4513,-4.3101,-4.3624,-4.5715,-4.9662,-5.2223,-5.4184,-5.9019,-6.1502,-6.2391,-6.2391,-6.1215,-5.9725,-5.9986,-5.7582,-5.3922,-5.0864,-4.8224,-4.6447,-4.7414,-4.812,-4.8669,-4.9101,0.0,0.0,0.0,0.0,0.0,-6.1081,-6.279,-6.469,-6.7973,-6.8299,-6.8706,-7.104,-7.1474,-7.1474,-7.1474,-7.1929,-7.2727,-7.3488,-7.4423,-7.5192,-7.5981,-7.6312,-7.6521,-7.6695,-7.713,-7.7753,-7.8802,-8.1627,-8.3725,-8.5073,-8.8557,-9.1137,-9.2358,-9.2788,-9.2888,-9.2689,-9.2888,-9.2623,-9.1861,-9.0734,-9.0891,-9.2258,-9.1435,-9.1897,-9.3365,-9.4954,-9.5683,-9.5905,-9.7394,-9.8003,-9.8003,-9.8003,-9.8003,-9.8003,-9.8003,-9.7089,-9.5804,0.0,0.0,-3.228,-3.2515,-3.2751,-3.3117,-3.3692,-3.3221,-3.3143,0.0,0.0,0.0,-3.5704,-3.6488,-3.6776,-3.641,-3.5547,-3.4816,-3.4345,-3.3979,-3.3666,-3.3404,-3.3979,-3.445,-3.4763,-3.5234,-3.5521,-3.5626,-3.6462,-3.6907,-3.7037,-3.8527,-3.973,-4.0618,-4.0958,-4.2004,-4.3441,-4.2186,-4.3467,-4.6734,-5.1152,-5.3635,-5.5229,-5.9751,-6.1711,-6.2208,-6.3646,-6.2705,-6.1084,-6.3358,-6.0483,-5.5621,-5.3452,-5.0707,-4.8224,-4.7911,-4.8773,-4.9688,-4.9218,-5.0379,-5.1976,-5.2988,0.0,0.0,-6.1081,-6.2465,-6.4147,-6.8489,-6.9303,-6.9764,-7.1528,-7.1854,-7.2016,-7.2312,-7.2865,-7.3247,-7.362,-7.4561,-7.5411,-7.5935,-7.6288,-7.6462,-7.6462,-7.7233,-7.8035,-7.8743,-8.1775,-8.4886,-8.7541,-8.9773,-9.1417,-9.2225,-9.2523,-9.2556,-9.2225,-9.2523,-9.2324,-9.1562,-9.099,-9.1503,-9.2938,-9.2346,-9.2976,-9.4516,-9.5683,-9.6244,-9.6345,-9.7529,-9.8003,-9.8003,-9.8003,-9.8003,-9.7969,-9.7664,-9.6907,-9.5976,0.0,0.0,-3.3064,-3.3666,-3.4345,-3.4999,-3.5678,-3.573,-3.5757,0.0,-3.6123,-3.6776,-3.8397,-3.9782,-4.0017,-3.8501,-3.7665,-3.6724,-3.5652,-3.5469,-3.5155,-3.4607,-3.5103,-3.5417,-3.5495,-3.641,-3.6671,-3.6201,-3.7273,-3.7534,-3.7037,-3.8109,-3.8945,-3.952,-3.952,-4.0775,-4.2892,-4.2579,-4.4513,-4.825,-5.3373,-5.5125,-5.5203,-6.0117,-6.0849,-5.9673,-6.2757,-6.2574,-6.1502,-6.5475,-6.3358,-5.881,-5.7294,-5.4393,-5.1073,-4.8538,-4.9453,-5.0995,-4.9793,-5.0696,-5.2455,-5.4533,-5.4826,0.0,-6.3279,-6.374,-6.4147,-6.9167,-7.0714,-7.1229,-7.1419,-7.1582,-7.1932,-7.2409,-7.3219,-7.3592,-7.3268,-7.4334,-7.542,-7.5443,-7.6056,-7.6462,-7.6462,-7.7475,-7.8354,-7.847,-8.2574,-8.6742,-9.0356,-9.1219,-9.1629,-9.1695,-9.2258,-9.2291,-9.1728,-9.2291,-9.2225,-9.1687,-9.1303,-9.1803,-9.2936,-9.3111,-9.3908,-9.5026,-9.6311,-9.6886,-9.6954,-9.7698,-9.8003,-9.8003,-9.8003,-9.8003,-9.7901,-9.7157,-9.6655,-9.6113,-3.2411,-3.3352,-3.4267,-3.4868,-3.6227,-3.756,-3.8606,-3.837,-3.871,-4.0592,-4.1219,-4.1821,-4.2631,-4.2186,-4.169,-4.135,-3.952,-3.8109,-3.7429,-3.6488,-3.5887,-3.5783,-3.5887,-3.6175,-3.6671,-3.641,-3.6462,-3.6828,-3.7063,-3.7116,-3.7011,-3.7717,-3.8344,-3.8893,-3.8893,-4.0174,-4.2422,-4.3676,-4.6761,-5.0864,-5.1988,-5.455,-5.8,-6.0875,-6.2835,-6.4116,-6.4796,-6.5083,-6.5083,-6.5057,-6.3985,-6.1999,-5.8052,-5.6588,-5.5595,-5.1858,-5.2433,-5.3896,-5.2276,-5.249,-5.3281,-5.3734,-5.453,0.0,-5.6522,-5.7608,-5.91,-6.1624,-6.298,-6.4147,-6.5613,-6.6671,-6.7024,-6.6169,-6.9687,-7.2913,-7.3947,-7.5305,-7.6051,-7.5592,-7.6056,-7.6462,-7.6462,-7.7475,-7.8729,-8.023,-8.4878,-8.8502,-9.0517,-9.1219,-9.1861,-9.2457,-9.2026,-9.2026,-9.2457,-9.2026,-9.1853,-9.1968,-9.1925,-9.2927,-9.4724,-9.424,-9.4954,-9.648,-9.6751,-9.6886,-9.6954,-9.7698,-9.8003,-9.8003,-9.8003,-9.8003,-9.7901,-9.7157,-9.6655,-9.6113,-3.2885,-3.4115,-3.5626,-3.6802,-3.7978,-3.9337,-4.1036,-4.1063,-4.1376,-4.2814,-4.3781,-4.4095,-4.352,-4.3467,-4.2997,-4.1847,-4.0148,-3.8789,-3.7952,-3.7063,-3.641,-3.6123,-3.6384,-3.6698,-3.6985,-3.7011,-3.7142,-3.7456,-3.7456,-3.7456,-3.7456,-3.8031,-3.9364,-4.1246,-4.0069,-4.1638,-4.514,-4.4539,-4.663,-5.0603,-5.3452,-5.6876,-6.0483,-6.2783,-6.4378,-6.5423,-6.5737,-6.639,-6.6965,-6.5789,-6.4456,-6.2914,-6.0875,-5.9437,-5.7843,-5.4367,-5.4785,-5.5804,-5.3191,-5.3414,-5.4453,-5.4746,-5.5122,0.0,0.0,-5.7852,-5.8856,-6.1542,-6.279,-6.3767,-6.4988,-6.545,-6.5706,-6.5847,-6.9235,-7.1878,-7.205,-7.4885,-7.6695,-7.6056,-7.6259,-7.6579,-7.6898,-7.7652,-7.9543,-8.3057,-8.6469,-8.9169,-9.0994,-9.1471,-9.1761,-9.2126,-9.1761,-9.1761,-9.2126,-9.1761,-9.172,-9.2092,-9.2214,-9.315,-9.4745,-9.4867,-9.5717,-9.6886,-9.7292,-9.7428,-9.7461,-9.7867,-9.8003,-9.8003,-9.8003,-9.8003,-9.7867,-9.6873,-9.6555,-9.6315,-3.3512,-3.4663,-3.6187,-3.7893,-3.9025,-4.0197,-4.1904,-4.2499,-4.3098,-4.3773,-4.507,-4.5322,-4.4028,-4.4583,-4.4258,-4.2413,-4.1105,-3.9902,-3.8652,-3.8007,-3.765,-3.7456,-3.7273,-3.7482,-3.8135,-3.8004,-3.79,-3.79,-3.8004,-3.8057,-3.8083,-3.8632,-4.0488,-4.331,-4.2004,-4.3755,-4.7571,-4.5898,-4.7283,-5.0995,-5.5752,-5.8915,-6.111,-6.3855,-6.49,-6.5005,-6.5946,-6.6887,-6.7488,-6.6338,-6.477,-6.3254,-6.294,-6.1868,-6.0013,-5.6458,-5.6954,-5.7869,-5.4288,-5.4601,-5.5972,-5.6132,-5.6144,-5.6712,0.0,0.0,0.0,-6.2031,-6.317,-6.3794,-6.431,-6.4174,-6.4409,-6.5369,-6.8239,-6.9838,-6.8966,-7.295,-7.5969,-7.5592,-7.6317,-7.684,-7.684,-7.7417,-8.0072,-8.5349,-8.6887,-8.8644,-9.1297,-9.1496,-9.1529,-9.1397,-9.1529,-9.1596,-9.1596,-9.172,-9.1844,-9.2214,-9.2714,-9.336,-9.4361,-9.548,-9.6311,-9.692,-9.7698,-9.8003,-9.8003,-9.8003,-9.8003,-9.8003,-9.8003,-9.7935,-9.7753,-9.6639,-9.6383,-9.6427,-3.4641,-3.4535,-3.4646,-3.6282,-3.8386,-3.9697,-3.934,-4.0947,-4.2604,-4.3664,-4.549,-4.6778,-4.7104,-4.6382,-4.5862,-4.5621,-4.4386,-4.2879,-4.1171,-4.0475,-4.0786,-4.2136,-3.939,-3.9233,-4.2265,-3.9416,-3.79,-3.79,-3.8397,-3.8632,-3.8632,-3.9233,-4.0252,-4.1716,-4.4016,-4.5349,-4.6107,-4.8852,-5.2302,-5.604,-5.719,-5.7242,-5.7085,-6.145,-6.3123,-6.3384,-6.5528,-6.6364,-6.6286,-6.5136,-6.49,-6.4482,-6.0953,-6.2443,-6.4325,-5.8366,-5.9281,-6.1372,-5.7399,-5.7319,-5.8023,-5.6505,-5.7354,-5.7988,-5.5708,0.0,-5.6577,-5.6441,0.0,-5.8123,-5.8178,0.0,0.0,-5.9206,-6.3304,-6.6144,-6.5521,-6.8871,-7.1673,-7.2166,-7.5737,-7.7304,-7.5069,-7.5862,-7.9039,-8.5253,-8.4828,-8.6249,-9.0379,-9.1231,-9.1297,-9.0668,-9.1264,-9.1596,-9.1596,-9.1844,-9.2214,-9.2581,-9.3527,-9.426,-9.4636,-9.6142,-9.6819,-9.692,-9.7698,-9.8003,-9.8003,-9.8003,-9.8003,-9.8003,-9.8003,-9.7719,-9.7405,-9.6555,-9.616,-9.6131,-3.2986,-3.4102,-3.5199,-3.6284,-3.7742,-3.9168,-4.0566,-4.3609,-4.5502,-4.5238,-4.625,-4.6736,-4.6088,-4.4996,-4.4761,-4.5538,-4.4247,-4.278,-4.1571,-4.1212,-4.1089,-4.1001,-3.9602,-3.9573,-4.101,-3.9625,-3.871,-3.837,-3.9259,-3.9703,-3.973,-4.0644,-4.2605,-4.5349,-4.6578,-4.8773,-5.157,-5.1361,-5.2825,-5.5334,-5.5935,-5.6066,-5.6536,-6.2156,-6.4299,-6.4482,-6.5815,-6.6286,-6.6259,-6.6076,-6.5083,-6.3959,-6.4273,-6.3881,-6.2888,-6.0901,-6.0771,-6.0588,-5.719,-5.7867,-5.8918,-5.6611,-5.741,-5.8022,-5.5627,-5.541,-5.5817,-5.5898,0.0,0.0,0.0,0.0,0.0,0.0,-6.1808,-6.437,-6.3384,-6.758,-7.0947,-7.1586,-7.2689,-7.3705,-7.4459,-7.6813,-8.013,-8.495,-8.521,-8.6952,-9.0966,-9.143,-9.143,-9.1132,-9.143,-9.172,-9.1844,-9.2092,-9.2337,-9.2856,-9.3716,-9.4328,-9.4755,-9.621,-9.6886,-9.692,-9.7698,-9.8003,-9.8003,-9.8003,-9.7889,-9.7604,-9.7604,-9.7556,-9.7235,-9.6364,-9.6063,-9.6028,-3.1269,-3.2959,-3.4606,-3.558,-3.6868,-3.8711,-4.1554,-4.413,-4.559,-4.4937,-4.5601,-4.591,-4.5195,-4.4701,-4.4844,-4.6102,-4.5341,-4.4318,-4.3121,-4.2639,-4.2341,-4.2332,-4.0555,-4.0262,-4.1877,-4.0333,-3.9447,-3.9416,-4.0252,-4.0906,-4.1376,-4.2239,-4.446,-4.7754,-4.8695,-5.1309,-5.4889,-5.3739,-5.4445,-5.6353,-5.6641,-5.7451,-5.8967,-6.3097,-6.4979,-6.5449,-6.5867,-6.6024,-6.6024,-6.5946,-6.4639,-6.341,-6.5449,-6.4351,-6.2365,-6.2731,-6.2365,-6.1389,-5.8366,-5.9236,-6.019,-5.7037,-5.7277,-5.7647,-5.5366,-5.5301,-5.579,-5.6224,-5.7038,0.0,0.0,0.0,-5.7955,-5.8494,0.0,-6.2849,-6.2078,-6.5601,-6.8799,-6.996,-6.9757,-7.0715,-7.3734,-7.5806,-7.8924,-8.39,-8.4499,-8.6534,-9.0767,-9.1364,-9.1397,-9.0999,-9.1488,-9.1844,-9.2092,-9.2337,-9.2581,-9.3096,-9.4159,-9.4651,-9.4755,-9.6447,-9.7089,-9.692,-9.7698,-9.8003,-9.8003,-9.8003,-9.7808,-9.7405,-9.7525,-9.7252,-9.6979,-9.62,-9.6106,-9.6352,-3.0385,-3.0787,-3.1695,-3.3617,-3.5821,-3.8104,-4.053,-4.0083,-3.9956,-4.1453,-4.2821,-4.418,-4.5622,-4.6691,-4.7773,-4.8737,-4.9613,-4.9383,-4.7512,-4.5617,-4.6035,-4.9486,-4.2877,-4.1904,-4.7857,-4.2227,-3.9956,-4.1246,-4.1272,-4.2134,-4.3755,-4.3807,-4.4774,-4.6682,-5.0002,-5.191,-5.2825,-5.6092,-5.9124,-6.1685,-6.1136,-6.26,-6.4926,-6.3463,-6.3933,-6.5371,-6.5397,-6.5423,-6.5162,-6.3515,-6.3254,-6.3384,-6.1842,-6.3149,-6.4926,-6.3306,-6.4663,-6.5897,-6.2699,-6.2709,-6.2507,-5.797,-5.7542,-5.7309,-5.4324,-5.5003,-5.6278,-5.6305,-5.7716,-5.8937,-5.8964,-5.8964,-5.9203,-5.9835,-6.0543,0.0,0.0,-6.2179,-6.3312,-6.5809,-6.7725,-6.9873,-7.2427,-7.1407,-7.3693,-8.1619,-8.1342,-8.3291,-8.9122,-9.0801,-9.0933,-8.9542,-9.1236,-9.2092,-9.2092,-9.2702,-9.3096,-9.3096,-9.494,-9.5398,-9.4789,-9.6988,-9.7563,-9.692,-9.7698,-9.8003,-9.8003,-9.8003,-9.7808,-9.7405,-9.7729,-9.7042,-9.5972,-9.6052,-9.6393,-9.7039,-3.0831,-3.1295,-3.1823,-3.2325,-3.3823,-3.6063,-3.8984,-4.1211,-4.2856,-4.3739,-4.4323,-4.527,-4.6743,-4.6679,-4.7332,-4.9235,-4.9388,-4.8846,-4.768,-4.6433,-4.6329,-4.7536,-4.342,-4.307,-4.7035,-4.3771,-4.2595,-4.3598,-4.399,-4.467,-4.5584,-4.5584,-4.6525,-4.8329,-5.0995,-5.3583,-5.6013,-5.7556,-5.9673,-6.1947,-6.1764,-6.294,-6.4848,-6.5031,-6.5475,-6.6024,-6.639,-6.6521,-6.6416,-6.5841,-6.5266,-6.49,-6.5475,-6.5031,-6.4378,-6.4953,-6.5162,-6.4946,-6.3844,-6.5149,-6.5761,-6.0951,-6.0473,-6.0019,-5.5718,-5.6197,-5.7146,-5.5952,-5.8395,-6.024,-5.8666,-5.9046,-5.9721,-5.9945,-6.018,-6.0526,0.0,-6.1264,-6.1977,-6.3254,-6.6244,-6.8363,-6.877,-7.2641,-7.698,-8.1189,-8.3692,-8.6711,-9.0668,-9.1331,-9.1488,-9.1236,-9.1825,-9.2337,-9.2702,-9.2976,-9.3216,-9.3487,-9.5093,-9.5669,-9.5499,-9.7225,-9.7867,-9.7631,-9.7901,-9.8003,-9.8003,-9.8249,-9.7779,-9.7013,-9.7248,-9.667,-9.5702,-9.6184,-9.6576,-9.7106,-3.1902,-3.2053,-3.2102,-3.1971,-3.3337,-3.5391,-3.8619,-4.1515,-4.3502,-4.4096,-4.4932,-4.6131,-4.7377,-4.713,-4.7777,-5.0,-4.9838,-4.9359,-4.8558,-4.7898,-4.7678,-4.8037,-4.5576,-4.5459,-4.8228,-4.5381,-4.4664,-4.595,-4.5628,-4.615,-4.7414,-4.7414,-4.8224,-4.9766,-5.1439,-5.421,-5.7712,-5.8497,-6.0509,-6.3201,-6.341,-6.4299,-6.5554,-6.6521,-6.6495,-6.6076,-6.6834,-6.7096,-6.7096,-6.7096,-6.6599,-6.6181,-6.7305,-6.6547,-6.5423,-6.6547,-6.6713,-6.6342,-6.5788,-6.7267,-6.7872,-6.37,-6.3361,-6.2857,-5.8263,-5.8693,-5.9589,-5.8232,-6.0077,-6.1868,-6.1597,-6.1247,-6.1109,-6.1586,-6.1155,-6.058,0.0,-6.0576,-6.099,-6.1367,-6.4241,-6.6679,-6.813,-7.1283,-7.5745,-8.2042,-8.3699,-8.6369,-9.0966,-9.1554,-9.1712,-9.1725,-9.2203,-9.2702,-9.3096,-9.3216,-9.3335,-9.3605,-9.5093,-9.5804,-9.5838,-9.7326,-9.8003,-9.8003,-9.8003,-9.8003,-9.8215,-9.8099,-9.761,-9.6871,-9.7104,-9.6519,-9.5544,-9.6324,-9.7254,-9.8264,-3.3299,-3.2797,-3.2622,-3.2769,-3.4224,-3.6324,-3.9333,-4.0862,-4.2,-4.2624,-4.4654,-4.6502,-4.7512,-4.8136,-4.9196,-5.0905,-5.1238,-5.0941,-5.048,-4.9978,-5.0152,-5.1135,-4.8864,-4.883,-5.1492,-4.7258,-4.606,-4.8248,-4.6238,-4.6577,-4.9072,-4.902,-4.974,-5.0864,-5.1335,-5.3844,-5.7765,-5.8862,-6.1685,-6.5475,-6.6076,-6.6625,-6.7174,-6.7749,-6.6939,-6.5632,-6.6808,-6.72,-6.7174,-6.7174,-6.7174,-6.7174,-6.7174,-6.7566,-6.8037,-6.8037,-6.9063,-6.9931,-6.8354,-6.8866,-6.9119,-6.646,-6.5991,-6.5341,-6.1786,-6.2356,-6.3469,-6.2818,-6.2818,-6.3903,-6.7078,-6.5026,-6.3169,-6.4271,-6.313,-6.1643,-6.0435,-6.0293,-6.0322,-6.0351,-6.2157,-6.5146,-6.9722,-6.7241,-7.0652,-8.341,-8.1242,0.0,-9.0114,-9.1403,-9.1592,-9.1092,-9.2366,-9.3096,-9.3096,-9.3453,-9.3571,-9.3605,-9.5093,-9.5804,-9.5838,-9.7326,-9.8003,-9.8003,-9.7969,-9.8215,-9.8425,-9.7643,-9.7252,-9.7219,-9.715,-9.645,-9.5695,-9.6625,-9.8264,-10.0137,-3.4004,-3.4533,-3.5218,-3.5907,-3.6746,-3.7754,-3.9044,-4.1034,-4.2947,-4.4507,-4.6202,-4.7906,-5.0036,-5.057,-5.106,-5.1633,-5.2237,-5.2407,-5.1966,-5.1157,-5.1288,-5.2599,-5.0021,-4.9826,-5.2673,-4.8794,-4.7609,-4.9517,-4.6867,-4.6882,-4.9267,-4.8556,-4.9281,-5.1387,-5.1126,-5.3713,-5.8314,-5.8601,-6.1555,-6.6103,-6.6652,-6.673,-6.6599,-6.7619,-6.7436,-6.6834,-6.7985,-6.8403,-6.8403,-6.8403,-6.8403,-6.8403,-6.8403,-6.8507,-6.8612,-6.8612,-6.938,-7.0198,-7.0166,-7.104,-7.1311,-6.9661,-6.876,-6.7512,-6.526,-6.5775,-6.6318,-6.4826,-6.6644,-6.7729,-6.507,-6.4971,-6.4858,-6.3566,-6.3079,-6.2485,-6.1745,-6.16,-6.1803,-6.2296,-6.5162,-6.6129,-6.3535,-6.9114,-7.4319,-7.7881,-8.1532,-8.5861,-9.1032,-8.9274,-8.928,-9.2091,-9.2722,-9.3216,-9.3453,-9.3571,-9.3571,-9.3605,-9.5093,-9.5804,-9.5838,-9.7326,-9.8003,-9.7969,-9.7672,-9.7862,-9.8391,-9.7575,-9.7275,-9.715,-9.6795,-9.7074,-9.7711,-9.7972,-9.8928,-10.0137,-3.5666,-3.6874,-3.8005,-3.8208,-3.9714,-4.0872,-4.0444,-4.1988,-4.376,-4.5264,-4.7153,-4.8672,-5.0061,-5.0586,-5.1075,-5.1488,-5.1509,-5.1701,-5.1542,-5.1412,-5.1884,-5.2861,-5.1747,-5.1905,-5.3907,-5.0905,-4.9518,-5.0133,-4.7865,-4.7194,-4.8084,-4.838,-4.9292,-5.0689,-5.1294,-5.3844,-5.7921,-6.0195,-6.2966,-6.5972,-6.7044,-6.7305,0.0,-6.8011,-6.8011,-6.7619,-6.8533,-6.8847,-6.8847,-6.8847,-6.8847,-6.8847,-6.8847,-6.8847,-6.8847,-6.8988,-6.9651,-7.0224,-7.09,-7.1688,-7.2206,-7.1528,-7.1067,-7.028,-6.8489,-6.8597,-6.8869,-6.8082,-6.8923,-6.9547,-6.8652,-6.7569,-6.5866,-6.3448,-6.2352,-6.1687,-6.1309,-6.1513,-6.1745,-6.1803,-6.4422,-6.4934,-6.1557,-6.9808,-7.576,0.0,0.0,-8.4885,-8.922,-8.8328,-8.9282,-9.2722,-9.276,-9.2997,-9.3571,-9.3233,-9.3233,-9.3605,-9.5093,-9.5804,-9.5838,-9.7326,-9.8126,-9.8215,-9.793,-9.824,-9.8907,-9.8064,-9.7609,-9.7345,-9.6809,-9.739,-9.8587,-9.8964,-9.9785,-10.0724,-3.7757,-3.95,-4.0605,-3.9889,-4.2543,-4.4123,-4.2686,-4.3743,-4.4884,-4.5618,-4.7752,-4.9322,-4.9259,-4.9672,-5.0325,-5.0952,-5.0463,-5.0231,-5.0601,-5.1399,-5.2066,-5.2577,-5.3385,-5.4062,-5.4543,-5.2686,-5.1242,-5.0176,-4.852,-4.7328,-4.6407,-4.8386,-4.9411,-4.964,-5.1613,-5.4262,-5.7582,-6.2469,-6.5005,-6.5867,-6.7462,-6.8063,-6.8037,-6.8533,-6.8429,-6.8063,-6.856,-6.8821,-6.8952,-6.8952,-6.9004,-6.9056,-6.8978,-6.8952,-6.8926,-6.9346,-6.9816,-7.0308,-7.0635,-7.1528,-7.2261,-7.2342,-7.2722,-7.2695,-7.1284,-7.0958,-7.1121,-7.1718,-7.0632,-7.0605,-7.411,-7.0975,-6.704,-6.4162,-6.2383,-6.1425,-6.1658,-6.1977,-6.1948,-6.128,-6.3201,0.0,-6.2618,0.0,0.0,0.0,0.0,-8.1606,-8.6397,-8.7762,-8.9969,-9.313,-9.2845,-9.2793,-9.3267,-9.2895,-9.2962,-9.3436,-9.5127,-9.5939,-9.5973,-9.736,-9.8126,-9.8459,-9.8289,-9.8617,-9.9279,-9.8283,-9.7724,-9.734,-9.7255,-9.7782,-9.8682,-9.9821,-10.0688,-10.1494,-3.9102,-4.0655,-4.1897,-4.1296,-4.3019,-4.4619,-4.5429,-4.6706,-4.7438,-4.734,-4.9043,-5.0102,-4.9729,-5.0318,-5.0833,-5.0477,-5.1075,-5.1573,-5.1593,-5.2067,-5.2563,-5.308,-5.3254,-5.356,-5.4062,-5.2184,-5.0753,-4.9685,-4.7399,-4.6312,-4.6171,-4.7303,-4.8698,-5.0348,-5.1794,-5.5151,-5.983,-6.3123,-6.5684,-6.7592,-6.8377,-6.8403,-6.8011,-6.8089,-6.8063,-6.8011,-6.8115,-6.8743,-6.9553,-6.9553,-6.9866,-7.0206,-6.971,-6.9553,-6.9448,-6.8978,-6.9512,-7.0171,-7.0308,-7.0906,-7.1745,-7.2233,-7.2071,-7.1989,-7.2668,-7.283,-7.2993,-7.359,-7.3834,-7.3702,-7.3289,-7.1962,-7.002,-6.7447,-6.7202,-6.787,-6.9437,-6.8421,-6.7363,-6.6984,-7.046,-7.0464,-6.4694,-6.8206,0.0,0.0,0.0,0.0,-8.6577,-8.505,-8.7048,-9.3803,-9.3656,-9.2827,-9.1711,-9.3436,-9.374,-9.2658,-9.5398,-9.6683,-9.6717,-9.7597,-9.8126,-9.8425,-9.744,-9.759,-9.8352,-9.6588,-9.5917,-9.6,-9.8223,-9.8833,-9.8776,-10.0591,-10.1258,-10.1494,-4.1255,-4.2393,-4.3325,-4.3346,-4.5043,-4.672,-4.7631,-4.8898,-4.9292,-4.8169,-4.881,-4.9287,-4.9059,-4.9832,-5.0318,-5.011,-5.0262,-5.0607,-5.1145,-5.1274,-5.181,-5.2822,-5.3038,-5.3451,-5.3931,-5.3276,-5.1725,-4.9257,-4.8077,-4.6409,-4.4587,-4.58,-4.7423,-4.9495,-5.3695,-5.7163,-6.0013,-6.3829,-6.5894,-6.6756,-6.8246,-6.8141,-6.7174,-6.7749,-6.7802,-6.7566,-6.788,-6.8716,-6.9684,-6.9684,-6.9893,-7.0128,-7.0154,-7.0154,-7.0271,-7.032,-7.0505,-7.0789,-7.1282,-7.1393,-7.1555,-7.1826,-7.1691,-7.1718,-7.2613,-7.3075,-7.3455,-7.4051,-7.4621,-7.4631,-7.3487,-7.1982,-7.0764,-6.9967,-6.8712,-6.8596,-7.086,-7.0686,-7.0184,-6.9951,-7.2163,-7.2013,-6.7486,-6.8873,0.0,0.0,0.0,0.0,0.0,-8.5524,-8.7766,-9.4819,-9.4061,-9.3436,-9.3064,-9.3774,-9.3943,-9.3639,-9.5838,-9.6886,-9.692,-9.791,-9.8493,-9.8701,-9.8342,-9.8558,-9.8962,-9.7331,-9.6872,-9.753,-9.908,-9.9456,-9.9461,-10.1367,-10.1898,-10.1494,-4.3491,-4.4256,-4.5022,-4.5478,-4.7279,-4.879,-4.9162,-5.0218,-5.0446,-4.8997,-4.8728,-4.8624,-4.8541,-4.9183,-4.9659,-4.9742,-4.9431,-4.9583,-5.0582,-5.0761,-5.121,-5.2477,-5.3038,-5.3451,-5.3931,-5.4303,-5.2905,-4.9672,-4.9148,-4.7138,-4.3774,-4.4821,-4.6651,-4.9294,-5.542,-5.885,-6.0076,-6.4065,-6.5815,-6.6076,-6.7775,-6.7671,-6.6547,-6.7462,-6.7514,-6.7174,-6.7775,-6.8638,-6.9527,-6.9657,-6.9788,-6.9971,-7.0442,-7.0598,-7.0769,-7.1566,-7.1583,-7.1376,-7.2231,-7.2125,-7.1664,-7.1664,-7.1474,-7.1447,-7.2044,-7.2559,-7.3075,-7.3672,-7.4685,-7.5076,-7.4053,-7.2971,-7.22,-7.1706,-7.0018,-6.9466,-7.1644,-7.2021,-7.2133,-7.246,-7.2297,-7.1567,-7.0141,-6.9086,0.0,0.0,0.0,0.0,-8.5567,-8.5938,-8.8788,-9.489,-9.3639,-9.3064,-9.3503,-9.3876,-9.418,-9.4485,-9.6277,-9.7123,-9.7245,-9.8099,-9.8735,-9.9129,-9.9195,-9.9375,-9.9331,-9.8351,-9.8463,-9.9288,-9.9937,-10.0305,-10.0448,-10.2082,-10.2191,-10.1494,-4.5333,-4.6161,-4.6927,-4.7361,-4.8645,-4.9638,-4.968,-5.0135,-5.0425,-5.0259,-4.9887,-4.9473,-4.9038,-4.908,-4.9307,-4.9721,-4.9721,-5.0061,-5.1043,-5.1371,-5.1893,-5.2542,-5.2866,-5.3451,-5.3931,-5.3975,-5.3407,-5.214,-4.9978,-4.7815,-4.5696,-4.5455,-4.7585,-5.1778,-5.5331,-5.8671,-6.1576,-6.3285,-6.5397,-6.7723,-6.7383,-6.7148,-6.7017,-6.7122,-6.7148,-6.7174,-6.7775,-6.8403,-6.9004,-6.9527,-7.0049,-7.052,-7.0572,-7.0598,-7.0769,-7.1253,-7.1539,-7.1991,-7.2519,-7.242,-7.2288,-7.2288,-7.1474,-7.0822,-7.1419,-7.1609,-7.1826,-7.2396,-7.4743,-7.6092,-7.4516,-7.6608,-7.692,-7.2427,-7.3385,-7.4982,-7.5795,-7.4488,-7.411,-7.5916,-7.2473,-7.0518,-7.1536,-6.6849,0.0,0.0,-7.4834,0.0,-8.1714,-8.4238,-8.7655,-9.259,-9.1305,-9.0222,-8.9613,-9.3571,-9.4958,-9.374,-9.6548,-9.8024,-9.8391,-9.8459,-9.8855,-9.945,-9.8729,-9.8274,-9.7996,-9.8716,-9.9147,-9.9428,-10.1246,-10.1683,-10.1225,-10.2302,-10.2191,-10.1494,-4.7672,-4.7775,-4.8148,-4.9142,-4.9576,-5.0135,-5.1232,-5.1087,-5.0943,-5.1212,-5.0384,-4.9783,-4.9866,-4.9887,-4.9949,-5.0135,-5.0156,-5.0239,-5.0601,-5.1302,-5.1826,-5.2,-5.3148,-5.3735,-5.3931,-5.4215,-5.3604,-5.2075,-5.024,-4.8339,-4.6439,-4.6529,-4.8724,-5.2587,-5.757,-6.0528,-6.1994,-6.5298,-6.7044,-6.7488,-6.7592,-6.7227,-6.6652,-6.6965,-6.7305,-6.7671,-6.7906,-6.835,-6.8873,-6.9108,-6.9579,-7.0128,-7.0494,-7.0598,-7.0822,-7.182,-7.2,-7.2151,-7.3198,-7.3207,-7.2912,-7.2912,-7.2288,-7.1718,-7.1962,-7.2288,-7.2532,-7.2396,-7.4463,-7.6328,-7.6493,-7.6406,-7.6375,-7.6259,-7.5824,-7.6143,-7.7914,-7.7856,-7.8103,-7.9359,-7.7623,-7.6171,-7.6125,-7.1398,-6.9933,0.0,0.0,0.0,-8.1369,-8.4304,-8.7206,-9.0324,-9.2455,-9.2759,-9.1102,-9.4214,-9.5499,-9.4924,-9.7265,-9.8371,-9.8493,-9.8855,-9.9332,-9.9651,-9.8894,-9.8768,-9.9032,-9.9212,-9.9919,-10.099,-10.2487,-10.3,-10.2865,-10.3357,-10.2889,-10.2191,-4.9618,-4.9514,-4.9783,-5.1025,-5.0963,-5.115,-5.2309,-5.1812,-5.1439,-5.175,-5.0839,-5.0218,-5.0404,-5.0425,-5.0466,-5.0611,-5.0632,-5.0673,-5.0818,-5.1526,-5.2054,-5.223,-5.3253,-5.3975,-5.415,-5.4477,-5.4062,-5.2861,-5.1114,-4.9563,-4.8208,-4.8455,-5.0053,-5.3211,-5.841,-6.1283,-6.2291,-6.5799,-6.7178,-6.7148,-6.7383,-6.7096,-6.6573,-6.7148,-6.7619,-6.8011,-6.8168,-6.8507,-6.8847,-6.8847,-6.9108,-6.9553,-7.0154,-7.0507,-7.0782,-7.2186,-7.2391,-7.2372,-7.383,-7.3753,-7.3346,-7.3509,-7.3102,-7.264,-7.264,-7.283,-7.3049,-7.3075,-7.4452,-7.6046,-7.7807,-7.6732,-7.6143,-7.7653,-7.7188,-7.6985,-7.803,-7.9056,-7.9831,-8.0271,-7.8448,-7.7588,-7.8489,-7.4165,-7.2621,-7.5446,0.0,-7.4942,-8.233,-8.4897,-8.7509,-9.0324,-9.3064,-9.3808,-9.2421,-9.4654,-9.5804,-9.5804,-9.7658,-9.8493,-9.8614,-9.9332,-9.9685,-9.9849,-9.9331,-9.9595,-10.0431,-10.0061,-10.1097,-10.2765,-10.3711,-10.4034,-10.388,-10.388,-10.3219,-10.2301,-5.0901,-5.1439,-5.206,-5.2992,-5.3137,-5.2992,-5.2557,-5.2102,-5.1791,-5.1791,-5.1377,-5.0922,-5.0466,-5.0425,-5.0611,-5.1067,-5.1108,-5.1294,-5.175,-5.2312,-5.2671,-5.3209,-5.3566,-5.4099,-5.4652,-5.4652,-5.4893,-5.5351,-5.2948,-5.1769,-5.1703,-5.1131,-5.2075,-5.404,-5.6861,-5.9548,-6.2263,-6.3142,-6.4868,-6.7044,-6.6521,-6.6625,-6.7148,-6.7749,-6.7985,-6.8063,-6.8638,-6.8847,-6.8847,-6.8847,-6.8847,-6.8952,-6.9527,-7.0047,-7.0682,-7.1575,-7.2238,-7.2901,-7.3857,-7.3753,-7.3427,-7.4024,-7.3726,-7.3292,-7.3292,-7.2803,-7.2858,-7.4568,-7.4884,-7.5554,-7.7954,-7.8378,-7.7537,-7.504,-7.7217,-7.8378,-7.5911,-7.6937,-7.7942,-7.7652,-7.2856,-7.1718,-7.7322,-7.3211,-7.2861,-7.9459,-8.0923,-8.2327,-8.4222,-8.5691,-8.8678,-9.3402,-9.2116,-9.1711,-9.2421,-9.4654,-9.5804,-9.5804,-9.7658,-9.8614,-9.9009,-9.9685,-9.9883,-9.9883,-9.9883,-10.05,-10.1538,-10.1807,-10.3005,-10.4726,-10.496,-10.4614,-10.388,-10.388,-10.2889,-10.1457,-5.2474,-5.264,-5.2847,-5.3137,-5.293,-5.2764,-5.293,-5.2309,-5.2019,-5.2661,-5.235,-5.2122,-5.2288,-5.1729,-5.1419,-5.1564,-5.1874,-5.2283,-5.2793,-5.345,-5.4166,-5.4732,-5.5094,-5.5455,-5.5657,-5.5657,-5.5723,-5.5875,-5.4128,-5.3429,-5.3735,-5.3263,-5.3928,-5.6056,-5.8128,-5.9343,-6.016,-6.3669,-6.5218,-6.5378,-6.684,-6.754,-6.7723,-6.7906,-6.822,-6.8586,-6.8769,-6.8847,-6.8847,-6.8847,-6.9014,-6.9346,-6.953,-6.932,-6.9465,-7.0682,-7.0904,-7.1149,-7.2503,-7.3129,-7.3427,-7.4024,-7.4051,-7.3889,-7.3889,-7.3427,-7.3596,-7.5743,-7.5811,-7.6063,-7.8041,-7.803,-7.7595,-7.7246,-7.803,-7.8553,-7.8146,-7.9123,-8.0052,-8.0183,-7.8952,-7.889,-8.1033,-7.8704,-7.7724,-7.9619,-7.8987,-7.9904,-8.3282,-8.7795,-9.0163,-8.9782,-9.2759,-9.3503,-9.1677,-9.4417,-9.5804,-9.5804,-9.7933,-9.9095,-9.9685,-9.9767,-9.9883,-9.9849,-9.9366,-9.9979,-10.1503,-10.1837,-10.2969,-10.4798,-10.5631,-10.5495,-10.4724,-10.4724,-10.3696,-10.2265,-5.3178,-5.3468,-5.3696,-5.3696,-5.3592,-5.3489,-5.3427,-5.3095,-5.2909,-5.3157,-5.293,-5.2868,-5.3157,-5.2661,-5.2329,-5.2329,-5.2578,-5.2927,-5.3111,-5.373,-5.4429,-5.4979,-5.5366,-5.5731,-5.6116,-5.6116,-5.6116,-5.6116,-5.5198,-5.5002,-5.546,-5.5155,-5.5744,-5.7055,-5.8295,-5.9246,-6.0382,-6.3321,-6.4988,-6.5594,-6.7229,-6.7985,-6.8011,-6.822,-6.8533,-6.8847,-6.8847,-6.8847,-6.8847,-6.8847,-6.9154,-6.9485,-6.9651,-6.9418,-6.9345,-7.0206,-7.0206,-7.0124,-7.1447,-7.2152,-7.2803,-7.3644,-7.4024,-7.4187,-7.4187,-7.4222,-7.4554,-7.5743,-7.6046,-7.6365,-7.7405,-7.774,-7.7827,-7.8001,-7.864,-7.9249,-7.9627,-8.0707,-8.1204,-8.0541,-8.0672,-8.1242,-8.2098,-8.1463,-8.1673,-8.316,-8.3528,-8.4654,-8.7024,-8.8814,-9.0317,-9.1305,-9.3977,-9.4485,-9.259,-9.4721,-9.5804,-9.5804,-9.7933,-9.9332,-9.9883,-9.9883,-9.9883,-9.9849,-9.94,-10.0238,-10.2138,-10.2258,-10.3616,-10.5413,-10.6047,-10.5678,-10.4614,-10.4614,-10.3623,-10.2346,-5.3178,-5.3882,-5.4482,-5.4482,-5.4813,-5.4813,-5.3965,-5.4192,-5.4151,-5.3344,-5.324,-5.324,-5.3282,-5.3282,-5.3282,-5.3282,-5.324,-5.324,-5.322,-5.3447,-5.3818,-5.4719,-5.4719,-5.5269,-5.6203,-5.6203,-5.6203,-5.6203,-5.6203,-5.6422,-5.6858,-5.6858,-5.7077,-5.7514,-5.7514,-5.9181,-6.2209,-6.2233,-6.4204,-6.7037,-6.7802,-6.8063,-6.8115,-6.8638,-6.8847,-6.8847,-6.8847,-6.8847,-6.8847,-6.8847,-6.9154,-6.9651,-6.998,-7.0071,-6.9911,-6.9911,-6.9799,-6.9764,-7.0361,-7.0958,-7.1718,-7.2939,-7.3753,-7.4241,-7.4241,-7.4882,-7.5512,-7.5147,-7.5711,-7.6473,-7.6573,-7.7624,-7.8262,-7.7624,-7.9046,-8.0236,-8.0294,-8.1576,-8.1514,-7.9067,-7.8979,-7.9604,-8.1263,-8.2168,-8.4503,-8.8796,-9.2397,-9.4087,-9.3418,-8.8913,-8.9447,-9.6514,-9.5432,-9.4687,-9.462,-9.5364,-9.577,-9.5992,-9.8019,-9.9298,-9.9883,-9.9883,-9.9883,-9.9883,-9.9999,-10.1209,-10.3095,-10.323,-10.4463,-10.6376,-10.6376,-10.5385,-10.399,-10.399,-10.2999,-10.1684,-5.3178,-5.3633,-5.4006,-5.4006,-5.4089,-5.4089,-5.3882,-5.3654,-5.3551,-5.3675,-5.3696,-5.382,-5.4172,-5.4213,-5.4213,-5.4213,-5.3882,-5.3883,-5.4257,-5.4946,-5.5698,-5.6258,-5.663,-5.7001,-5.7186,-5.7186,-5.7186,-5.7186,-5.7186,-5.7252,-5.7361,-5.7361,-5.7405,-5.7514,-5.7514,-5.8474,-6.0319,-6.2136,-6.4087,-6.5899,-6.7878,-6.8638,-6.8664,-6.8795,-6.8847,-6.8847,-6.8847,-6.8847,-6.8847,-6.8847,-6.932,-6.998,-7.0144,-7.026,-7.0419,-7.0419,-6.9818,-6.914,-6.9764,-7.0361,-7.1094,-7.2288,-7.3699,-7.4811,-7.4811,-7.5484,-7.6289,-7.6297,-7.7326,-7.828,-7.7992,-7.8582,-7.9017,-7.8872,-7.9249,-7.987,-8.0678,-8.1351,-8.1669,-8.1354,-8.16,-8.2706,-8.4773,-8.6041,-8.6889,-8.692,-8.8976,-9.0266,-9.0304,-8.8976,-9.0284,-9.5093,-9.489,-9.4451,-9.3842,-9.4586,-9.5773,-9.7372,-9.7985,-9.8784,-9.9883,-9.9883,-9.9883,-9.9999,-10.0837,-10.1928,-10.323,-10.4012,-10.5108,-10.6376,-10.6376,-10.5789,-10.4798,-10.4798,-10.3889,-10.2733,-5.3489,-5.3861,-5.4151,-5.4151,-5.4337,-5.4399,-5.4192,-5.413,-5.411,-5.4151,-5.4151,-5.4255,-5.4503,-5.4544,-5.4544,-5.4544,-5.4296,-5.4172,-5.4549,-5.4968,-5.5661,-5.6414,-5.6602,-5.6954,-5.7536,-5.7514,-5.7514,-5.7514,-5.7514,-5.7514,-5.7514,-5.7514,-5.7514,-5.7514,-5.8418,-5.9545,-6.1004,-6.3487,-6.5343,-6.6631,-6.8253,-6.9004,-6.9239,-6.9239,-6.9396,-6.9631,-6.9631,-6.9474,-6.9239,-6.9407,-6.9889,-7.0171,-7.0472,-7.0745,-7.0985,-7.0985,-7.0144,-6.9276,-6.9628,-7.0334,-7.1365,-7.283,-7.3916,-7.4871,-7.5481,-7.6373,-7.7034,-7.7174,-7.8278,-7.904,-7.8427,-7.8901,-7.9307,-7.9307,-7.9569,-8.0132,-8.1273,-8.1645,-8.2112,-8.2575,-8.3612,-8.4925,-8.6522,-8.7898,-8.8787,-8.8594,-9.0072,-9.1021,-9.0772,-9.1211,-9.2473,-9.4654,-9.4383,-9.418,-9.4112,-9.5281,-9.6589,-9.7882,-9.8342,-9.9073,-9.9883,-9.9883,-10.0229,-10.0725,-10.1139,-10.2417,-10.3916,-10.4521,-10.536,-10.6376,-10.6009,-10.5495,-10.5018,-10.432,-10.3639,-10.2991,-5.3737,-5.411,-5.442,-5.442,-5.4793,-5.4958,-5.4586,-5.4855,-5.4958,-5.4586,-5.4544,-5.4544,-5.4544,-5.4544,-5.4544,-5.4544,-5.4544,-5.4544,-5.4544,-5.4544,-5.4904,-5.585,-5.6038,-5.6602,-5.7349,-5.7536,-5.7514,-5.7514,-5.7514,-5.7514,-5.7514,-5.7514,-5.7514,-5.7514,-5.9315,-6.065,-6.2178,-6.458,-6.6441,-6.7811,-6.8576,-6.9265,-6.971,-6.9788,-7.0154,-7.0598,-7.0494,-7.0128,-6.9852,-7.011,-7.024,-7.0308,-7.0635,-7.1123,-7.1474,-7.1474,-7.0768,-6.9954,-6.9873,-7.0632,-7.1908,-7.3726,-7.4187,-7.4658,-7.6096,-7.7036,-7.7823,-7.8004,-7.8739,-7.9249,-7.864,-7.9046,-7.9336,-7.893,-7.9685,-8.0481,-8.0981,-8.1801,-8.2503,-8.3091,-8.4694,-8.6235,-8.7518,-8.8653,-8.9967,-9.1562,-9.2581,-9.2982,-9.2568,-9.3755,-9.4586,-9.4721,-9.4079,-9.4112,-9.4857,-9.6469,-9.7389,-9.7882,-9.8887,-9.9465,-9.9883,-9.9883,-10.05,-10.15,-10.1715,-10.2929,-10.4706,-10.4926,-10.5502,-10.6302,-10.5422,-10.5128,-10.4908,-10.3293,-10.2867,-10.2996,-5.3282,-5.3654,-5.3944,-5.3944,-5.4337,-5.4606,-5.4544,-5.4586,-5.4606,-5.4544,-5.4544,-5.4544,-5.4544,-5.4544,-5.4544,-5.4544,-5.4544,-5.4544,-5.4544,-5.4904,-5.5304,-5.5493,-5.6226,-5.6789,-5.6976,-5.7349,-5.7514,-5.7514,-5.7514,-5.7514,-5.7514,-5.7514,-5.7514,-5.7514,-5.7885,-5.8903,-6.0789,-6.2824,-6.4753,-6.6474,-6.8617,-6.9631,-6.9762,-7.0259,-7.052,-7.052,-7.0023,-6.9957,-7.0136,-6.9802,-7.006,-7.0798,-7.0798,-7.1123,-7.1474,-7.1474,-7.1365,-7.1094,-7.0605,-7.0958,-7.1908,-7.3726,-7.4187,-7.4658,-7.6096,-7.7036,-7.7823,-7.8004,-7.9113,-7.9946,-7.9278,-7.9685,-7.9423,-7.7246,-7.8814,-7.9706,-7.7799,-7.9451,-8.1538,-8.3587,-8.4167,-8.5822,-8.9656,-8.9055,-8.9413,-9.1811,-9.1302,-9.126,-9.2001,-9.3098,-9.4045,-9.4687,-9.4586,-9.489,-9.5601,-9.6198,-9.6997,-9.7882,-9.8338,-9.8949,-9.9883,-9.9883,-10.05,-10.1643,-10.2521,-10.3625,-10.4835,-10.5714,-10.6254,-10.6302,-10.5422,-10.5128,-10.4908,-10.3456,-10.3107,-10.3231,-5.3903,-5.4068,-5.4213,-5.4213,-5.4399,-5.4544,-5.4544,-5.4544,-5.4544,-5.4544,-5.4544,-5.4544,-5.4544,-5.4544,-5.4544,-5.4544,-5.4544,-5.4544,-5.4544,-5.4735,-5.5094,-5.5661,-5.6272,-5.7074,-5.7922,-5.8111,-5.83,-5.83,-5.83,-5.8169,-5.7929,-5.7929,-5.7798,-5.7536,-5.8603,-6.0204,-6.1959,-6.3905,-6.6015,-6.8082,-6.9241,-7.0076,-7.0651,-7.0912,-7.1226,-7.1487,-7.12,-7.1045,-7.0805,-7.085,-7.0816,-7.0798,-7.115,-7.1312,-7.1474,-7.1474,-7.1474,-7.1501,-7.1528,-7.1528,-7.1826,-7.3319,-7.3699,-7.4167,-7.6259,-7.7114,-7.7936,-7.9099,-7.9776,-8.0207,-7.9888,-8.0091,-7.9917,-7.8727,-7.9376,-7.9715,-7.88,-7.9631,-8.1302,-8.3654,-8.4652,-8.6421,-8.9669,-8.9641,-9.0104,-9.137,-9.1502,-9.1864,-9.2558,-9.4027,-9.4924,-9.5296,-9.5669,-9.5838,-9.5804,-9.7065,-9.7798,-9.7882,-9.8729,-9.9457,-9.9883,-10.05,-10.1248,-10.2382,-10.3491,-10.4614,-10.5699,-10.6206,-10.6082,-10.5605,-10.4798,-10.4504,-10.4284,-10.2911,-10.2817,-10.3194,-5.4544,-5.4544,-5.4544,-5.4544,-5.4544,-5.4544,-5.4544,-5.4544,-5.4544,-5.4544,-5.4544,-5.4544,-5.4544,-5.4544,-5.4544,-5.4544,-5.4544,-5.4544,-5.4544,-5.4544,-5.4966,-5.5998,-5.6613,-5.7612,-5.8955,-5.8977,-5.8977,-5.8977,-5.8977,-5.8737,-5.8278,-5.8278,-5.8016,-5.7514,-5.9132,-6.0544,-6.1959,-6.4552,-6.6636,-6.8468,-6.9631,-7.0624,-7.1409,-7.1565,-7.1905,-7.2297,-7.2315,-7.2031,-7.1582,-7.1796,-7.1601,-7.1149,-7.1366,-7.1474,-7.1474,-7.1474,-7.1474,-7.1636,-7.2396,-7.2152,-7.1989,-7.321,-7.3566,-7.4061,-7.6107,-7.7182,-7.8281,-7.9747,-8.0178,-8.0294,-8.0294,-8.0294,-8.0091,-7.9511,-7.9793,-8.0052,-7.9746,-8.0166,-8.1689,-8.4412,-8.571,-8.747,-8.9968,-9.0374,-9.0659,-9.1147,-9.2058,-9.2822,-9.3216,-9.5007,-9.6108,-9.6311,-9.6683,-9.6683,-9.6311,-9.8069,-9.8634,-9.7882,-9.9134,-9.9642,-9.9607,-10.057,-10.1716,-10.3159,-10.377,-10.4996,-10.6376,-10.5972,-10.5495,-10.5018,-10.399,-10.3586,-10.3476,-10.2328,-10.2374,-10.2973,-5.4544,-5.4544,-5.4544,-5.4544,-5.4544,-5.4544,-5.4544,-5.4544,-5.4544,-5.4544,-5.4544,-5.4544,-5.4544,-5.4544,-5.4544,-5.4544,-5.4544,-5.4544,-5.4544,-5.4544,-5.4901,-5.5892,-5.7315,-5.8339,-5.8977,-5.8977,-5.8977,-5.8977,-5.8977,-5.8737,-5.8278,-5.8278,-5.8016,-5.7536,-5.77,-5.77,-5.8278,-6.2477,-6.4303,-6.4958,-6.9399,-7.133,-7.1461,-7.201,-7.2271,-7.2219,-7.2189,-7.2296,-7.2569,-7.195,-7.2014,-7.2206,-7.1664,-7.1474,-7.1474,-7.1474,-7.1474,-7.1745,-7.2912,-7.2776,-7.2586,-7.3807,-7.4335,-7.4712,-7.5708,-7.7014,-7.8265,-7.9209,-7.9859,-8.0294,-8.0294,-8.0294,-7.9511,-7.713,-7.9006,-7.9935,-7.7358,-7.981,-8.328,-8.668,-8.7096,-8.8475,-9.211,-9.1206,-9.0782,-9.1389,-9.2179,-9.2822,-9.3571,-9.5635,-9.7123,-9.7834,-9.7225,-9.7191,-9.7834,-9.858,-9.8634,-9.7848,-9.8502,-9.8849,-9.8849,-9.9243,-10.0726,-10.3123,-10.2688,-10.3977,-10.6302,-10.4687,-10.4504,-10.4908,-10.3403,-10.2815,-10.275,-10.2338,-10.2123,-10.2237,-5.4544,-5.4544,-5.4544,-5.4544,-5.4544,-5.4544,-5.4544,-5.4544,-5.4544,-5.4544,-5.4544,-5.4544,-5.4544,-5.4544,-5.4544,-5.4544,-5.4544,-5.4544,-5.4544,-5.4793,-5.5529,-5.6952,-5.8384,-5.9374,-5.9873,-5.9873,-5.972,-5.9414,-5.9414,-5.9043,-5.8278,-5.8278,-5.8016,-5.7514,-5.7514,-5.8411,-5.9973,-6.2823,-6.5072,-6.7161,-7.0133,-7.1618,-7.1984,-7.2219,-7.2297,-7.2271,-7.2558,-7.2759,-7.2729,-7.2781,-7.2636,-7.2315,-7.2098,-7.1772,-7.1474,-7.1474,-7.1745,-7.2206,-7.3075,-7.283,-7.2396,-7.2478,-7.3541,-7.4712,-7.568,-7.6958,-7.8322,-7.9673,-8.012,-8.0294,-8.0294,-8.0294,-7.9975,-7.8988,-7.9927,-8.0447,-7.9804,-8.1809,-8.4505,-8.7588,-8.8299,-8.9672,-9.2463,-9.1364,-9.0782,-9.1509,-9.2179,-9.2822,-9.3571,-9.5669,-9.7225,-9.8003,-9.7732,-9.7618,-9.757,-9.853,-9.8513,-9.7399,-9.8343,-9.8844,-9.9065,-9.9846,-10.1132,-10.2595,-10.3088,-10.3875,-10.4798,-10.4173,-10.3806,-10.3586,-10.2925,-10.2412,-10.2015,-10.2116,-10.2123,-10.2237,-5.4544,-5.4544,-5.4544,-5.4544,-5.4544,-5.4544,-5.4544,-5.4544,-5.4544,-5.4544,-5.4544,-5.4544,-5.4544,-5.4544,-5.4544,-5.4544,-5.4544,-5.4586,-5.4731,-5.5482,-5.6348,-5.7634,-5.9074,-6.0069,-6.0419,-6.0266,-6.0026,-5.9698,-5.9545,-5.9065,-5.8278,-5.8278,-5.8016,-5.7536,-5.7688,-5.8676,-6.0452,-6.3272,-6.5811,-6.7757,-7.0519,-7.1931,-7.2297,-7.2297,-7.2472,-7.2647,-7.2969,-7.3249,-7.3416,-7.3541,-7.3315,-7.2613,-7.2423,-7.1962,-7.1528,-7.1718,-7.2044,-7.2505,-7.3129,-7.3129,-7.2995,-7.275,-7.4056,-7.542,-7.6027,-7.7434,-7.8639,-7.9731,-7.9975,-8.0062,-8.0265,-8.012,-8.0062,-8.0423,-8.0668,-8.1196,-8.2584,-8.3873,-8.585,-8.898,-8.9624,-9.0489,-9.2496,-9.1596,-9.1114,-9.1844,-9.2514,-9.3393,-9.4586,-9.6277,-9.7461,-9.8003,-9.8003,-9.7774,-9.7184,-9.8139,-9.8,-9.6841,-9.77,-9.8417,-9.8867,-9.9712,-10.0923,-10.228,-10.2876,-10.3403,-10.388,-10.3403,-10.2999,-10.2705,-10.2412,-10.1971,-10.1617,-10.1969,-10.2086,-10.2239,-5.4544,-5.4544,-5.4544,-5.4544,-5.4544,-5.4544,-5.4544,-5.4544,-5.4544,-5.4544,-5.4544,-5.4544,-5.4544,-5.4544,-5.4544,-5.4544,-5.4544,-5.4731,-5.5165,-5.6641,-5.7536,-5.8123,-5.9572,-6.0419,-6.0419,-5.9938,-5.9698,-5.9676,-5.9196,-5.8737,-5.8278,-5.8278,-5.8016,-5.7536,-5.806,-5.8278,-5.8721,-6.3476,-6.5558,-6.5996,-7.04,-7.2297,-7.2297,-7.2297,-7.2647,-7.3142,-7.3515,-7.4032,-7.4321,-7.4236,-7.3807,-7.3183,-7.2559,-7.1962,-7.1609,-7.2179,-7.2369,-7.2505,-7.3129,-7.3726,-7.4494,-7.5297,-7.6089,-7.6731,-7.7092,-7.822,-7.9307,-7.9307,-7.9307,-7.9511,-8.0178,-7.9743,-7.9667,-8.0805,-8.1204,-8.2461,-8.5113,-8.5826,-8.7382,-9.1183,-9.0902,-9.1011,-9.2562,-9.2026,-9.1844,-9.2581,-9.3284,-9.4602,-9.6819,-9.7597,-9.8003,-9.8003,-9.8003,-9.7536,-9.6755,-9.7472,-9.7179,-9.6017,-9.6391,-9.7097,-9.8095,-9.8362,-9.9882,-10.2333,-10.167,-10.2375,-10.3806,-10.2191,-10.2008,-10.2595,-10.1788,-10.1617,-10.1776,-10.2009,-10.2239,-10.2389,-5.4544,-5.4544,-5.4544,-5.4544,-5.4544,-5.4544,-5.4544,-5.4793,-5.4875,-5.4565,-5.4793,-5.4875,-5.4565,-5.4813,-5.4875,-5.4565,-5.5103,-5.5662,-5.6117,-5.7193,-5.8076,-5.8591,-5.9352,-5.9876,-5.9917,-5.9764,-5.937,-5.8715,-5.8562,-5.8235,-5.7754,-5.7754,-5.7667,-5.7536,-5.806,-5.8453,-5.916,-6.364,-6.5775,-6.6504,-7.0554,-7.2297,-7.2297,-7.2621,-7.2795,-7.3142,-7.386,-7.423,-7.4374,-7.4669,-7.4377,-7.3726,-7.2695,-7.1962,-7.1528,-7.1691,-7.2044,-7.2505,-7.3129,-7.4197,-7.5021,-7.4937,-7.5755,-7.6844,-7.7633,-7.8537,-7.9423,-7.9888,-7.9627,-7.9365,-7.9569,-7.9423,-7.9521,-8.0161,-8.0911,-8.2461,-8.4965,-8.6638,-8.8626,-9.1183,-9.1894,-9.2114,-9.2689,-9.2276,-9.2291,-9.3317,-9.4543,-9.5629,-9.6819,-9.7089,-9.7461,-9.8003,-9.774,-9.7269,-9.6755,-9.7472,-9.7056,-9.5599,-9.6227,-9.7216,-9.8327,-9.8502,-9.9677,-10.167,-10.1633,-10.1788,-10.2191,-10.1677,-10.1604,-10.1788,-10.1691,-10.1697,-10.1776,-10.22,-10.2277,-10.2389,-5.4544,-5.4544,-5.4544,-5.4544,-5.4544,-5.4586,-5.4772,-5.502,-5.5082,-5.4834,-5.5186,-5.5289,-5.4834,-5.5186,-5.5352,-5.5082,-5.5724,-5.6262,-5.6552,-5.7508,-5.8331,-5.8825,-5.9048,-5.9399,-5.9698,-5.9327,-5.8846,-5.8278,-5.8082,-5.782,-5.7514,-5.7514,-5.7623,-5.7841,-5.8344,-5.9372,-6.0763,-6.4363,-6.6615,-6.7824,-7.1011,-7.2297,-7.2297,-7.2795,-7.3142,-7.3342,-7.4203,-7.4545,-7.4716,-7.4859,-7.4648,-7.397,-7.2749,-7.2125,-7.1826,-7.1826,-7.2261,-7.2858,-7.3482,-7.4718,-7.5903,-7.5842,-7.6661,-7.7912,-7.8739,-7.9371,-7.9743,-7.9888,-7.9394,-7.893,-7.893,-7.8727,-7.8881,-7.9994,-8.0506,-8.2169,-8.5873,-8.7027,-8.8586,-9.1564,-9.2147,-9.2126,-9.1861,-9.1678,-9.2103,-9.2936,-9.4549,-9.5567,-9.6007,-9.6311,-9.665,-9.7123,-9.7047,-9.6708,-9.631,-9.6837,-9.6567,-9.54,-9.5848,-9.6904,-9.8491,-9.8491,-9.9606,-10.1494,-10.1494,-10.1494,-10.1494,-10.1494,-10.1538,-10.1617,-10.177,-10.1891,-10.2083,-10.2314,-10.2538,-10.2538,-5.4544,-5.4544,-5.4544,-5.4586,-5.4586,-5.4751,-5.5186,-5.5269,-5.5289,-5.5248,-5.5641,-5.5766,-5.5289,-5.5662,-5.591,-5.5869,-5.6304,-5.6594,-5.6614,-5.7603,-5.821,-5.8761,-5.8901,-5.9031,-5.9567,-5.8737,-5.8256,-5.8213,-5.7754,-5.7514,-5.7514,-5.7514,-5.7798,-5.83,-5.8759,-6.0339,-6.2682,-6.5184,-6.7433,-6.93,-7.1366,-7.2297,-7.2297,-7.2795,-7.3316,-7.3688,-7.4203,-7.4716,-7.5028,-7.5028,-7.4648,-7.397,-7.2803,-7.2396,-7.2369,-7.2369,-7.2776,-7.3346,-7.4164,-7.5405,-7.665,-7.7502,-7.848,-7.9312,-8.0136,-8.0265,-8.0033,-7.9423,-7.8785,-7.832,-7.832,-7.7827,-7.8103,-8.0124,-7.9981,-8.1629,-8.734,-8.6906,-8.7611,-9.194,-9.1861,-9.1198,-9.0502,-9.0715,-9.1268,-9.1985,-9.369,-9.4654,-9.4721,-9.533,-9.5736,-9.5804,-9.6062,-9.5925,-9.5593,-9.5869,-9.5718,-9.54,-9.5475,-9.6555,-9.8491,-9.8587,-9.9695,-10.1494,-10.1494,-10.1494,-10.1494,-10.1494,-10.1617,-10.1812,-10.1812,-10.2083,-10.2426,-10.2389,-10.2538,-10.2721,-5.4544,-5.4544,-5.4648,-5.4979,-5.5041,-5.5207,-5.5662,-5.6035,-5.6138,-5.5766,-5.6117,-5.6242,-5.5766,-5.6138,-5.6262,-5.591,-5.6304,-5.6718,-5.7049,-5.7969,-5.8458,-5.8293,-5.8793,-5.8765,-5.8606,-5.8387,-5.8082,-5.7688,-5.7579,-5.7514,-5.7514,-5.7514,-5.7798,-5.83,-5.8759,-5.9409,-6.066,-6.4624,-6.6513,-6.725,-7.0808,-7.2297,-7.2472,-7.3169,-7.3688,-7.386,-7.4518,-7.4859,-7.5028,-7.5028,-7.4648,-7.4051,-7.3319,-7.2749,-7.2369,-7.2369,-7.2451,-7.2968,-7.4664,-7.5873,-7.7076,-7.8366,-7.9312,-8.0136,-8.0294,-7.9888,-7.9481,-7.9336,-7.8407,-7.7624,-7.7624,-7.7811,-7.826,-7.9628,-7.9988,-8.1623,-8.5912,-8.5863,-8.6523,-8.9668,-9.0502,-9.0469,-8.9741,-9.0659,-9.1629,-9.2304,-9.33,-9.4079,-9.4687,-9.4857,-9.5195,-9.577,-9.5789,-9.5648,-9.5593,-9.5581,-9.5426,-9.54,-9.6166,-9.7208,-9.8491,-9.9333,-10.031,-10.1494,-10.1494,-10.1494,-10.1494,-10.1494,-10.1617,-10.1812,-10.2006,-10.22,-10.2389,-10.2575,-10.2685,-10.2721,-5.5124,-5.5165,-5.5248,-5.5476,-5.5517,-5.5662,-5.6138,-5.6407,-5.6469,-5.6242,-5.6594,-5.6697,-5.6262,-5.6614,-5.678,-5.6531,-5.6738,-5.6987,-5.7215,-5.8231,-5.8612,-5.8144,-5.8642,-5.8759,-5.83,-5.8038,-5.7798,-5.7514,-5.7514,-5.7645,-5.7885,-5.7885,-5.8278,-5.8977,-5.9218,-6.0144,-6.1716,-6.4906,-6.6882,-6.8006,-7.0986,-7.2297,-7.2472,-7.3342,-7.3688,-7.386,-7.4689,-7.5028,-7.5028,-7.5028,-7.4811,-7.4431,-7.3563,-7.3075,-7.2749,-7.2451,-7.2586,-7.3158,-7.5049,-7.6312,-7.7435,-7.8717,-7.9632,-8.0294,-8.0294,-8.0033,-7.9598,-7.8988,-7.8349,-7.7682,-7.7072,-7.7258,-7.803,-7.9392,-8.0018,-8.1583,-8.5547,-8.58,-8.6598,-8.9099,-8.9774,-8.9829,-8.9341,-9.0118,-9.1077,-9.1846,-9.259,-9.3368,-9.4112,-9.418,-9.4468,-9.4959,-9.5054,-9.5195,-9.5275,-9.5349,-9.54,-9.54,-9.645,-9.7511,-9.8587,-9.9515,-10.0518,-10.1494,-10.1494,-10.1494,-10.1494,-10.1574,-10.177,-10.2006,-10.2237,-10.2351,-10.2612,-10.2685,-10.2721,-10.2721,-5.5786,-5.5869,-5.589,-5.5973,-5.5993,-5.6138,-5.6614,-5.6676,-5.6676,-5.6676,-5.7008,-5.709,-5.6718,-5.7008,-5.7235,-5.7235,-5.7235,-5.7235,-5.7435,-5.8147,-5.8485,-5.8211,-5.8512,-5.8628,-5.8169,-5.7732,-5.7514,-5.7514,-5.7514,-5.7776,-5.8278,-5.8278,-5.8781,-5.9698,-5.9698,-6.0882,-6.3012,-6.5398,-6.725,-6.8939,-7.1366,-7.2297,-7.2472,-7.3342,-7.3688,-7.386,-7.4689,-7.5028,-7.5028,-7.5028,-7.5028,-7.4811,-7.3672,-7.3292,-7.3183,-7.2668,-7.2885,-7.362,-7.5434,-7.6811,-7.8021,-7.8963,-7.9791,-8.0265,-8.0149,-8.0062,-7.9685,-7.8611,-7.8233,-7.774,-7.6666,-7.6911,-7.7739,-7.9185,-8.0026,-8.1618,-8.5275,-8.5886,-8.6743,-8.8857,-8.9045,-8.9121,-8.9249,-8.9566,-9.0149,-9.1068,-9.1812,-9.2556,-9.3334,-9.3368,-9.3553,-9.4005,-9.4385,-9.4614,-9.4885,-9.5254,-9.5475,-9.5695,-9.6729,-9.7611,-9.8587,-9.9695,-10.0724,-10.1494,-10.1494,-10.1494,-10.1457,-10.1734,-10.1854,-10.2086,-10.2314,-10.2464,-10.2721,-10.2721,-10.2721,-10.2721,-5.5786,-5.5869,-5.5993,-5.6407,-5.6469,-5.6614,-5.707,-5.7132,-5.7132,-5.7132,-5.7194,-5.7194,-5.7132,-5.7194,-5.7235,-5.7235,-5.7235,-5.7435,-5.7834,-5.8049,-5.819,-5.8106,-5.8226,-5.8147,-5.7645,-5.7557,-5.7514,-5.7514,-5.7514,-5.7776,-5.8278,-5.8278,-5.8781,-5.9698,-5.9698,-6.0154,-6.0982,-6.4672,-6.6513,-6.709,-7.0808,-7.2297,-7.2472,-7.3342,-7.3688,-7.386,-7.4689,-7.5028,-7.5028,-7.5028,-7.5028,-7.4811,-7.3672,-7.3292,-7.3265,-7.3183,-7.3237,-7.3867,-7.6591,-7.761,-7.8184,-7.9632,-8.0136,-8.0149,-7.9569,-7.9017,-7.8611,-7.8436,-7.7507,-7.6666,-7.6491,-7.706,-7.7859,-7.8596,-7.9898,-8.1584,-8.3983,-8.486,-8.5831,-8.7401,-8.7792,-8.8228,-8.9266,-8.9566,-8.9947,-9.0357,-9.1034,-9.1778,-9.2522,-9.259,-9.2977,-9.4005,-9.4385,-9.4614,-9.4885,-9.5254,-9.5878,-9.6729,-9.781,-9.8395,-9.8587,-10.0433,-10.1413,-10.1494,-10.1494,-10.1494,-10.1457,-10.1734,-10.1854,-10.2086,-10.2314,-10.2464,-10.2721,-10.2721,-10.2721,-10.2721,-5.6531,-5.6635,-5.6697,-5.6904,-5.6925,-5.7008,-5.7194,-5.7235,-5.7235,-5.7235,-5.7235,-5.7235,-5.7235,-5.7235,-5.7235,-5.7235,-5.7235,-5.731,-5.7655,-5.7838,-5.7977,-5.7845,-5.8198,-5.8038,-5.7536,-5.7514,-5.7514,-5.7514,-5.7514,-5.7907,-5.8671,-5.8671,-5.9174,-6.0091,-6.0091,-6.0222,-6.0614,-6.4672,-6.6328,-6.6698,-7.063,-7.2472,-7.2795,-7.3515,-7.386,-7.4203,-7.4859,-7.5028,-7.5028,-7.5028,-7.4811,-7.4404,-7.3563,-7.3292,-7.3292,-7.3292,-7.384,-7.4939,-7.7114,-7.8021,-7.8641,-7.9978,-8.0294,-8.012,-7.9452,-7.8843,-7.8291,-7.7914,-7.7391,-7.702,-7.685,-7.7209,-7.7829,-7.8775,-8.0627,-8.2473,-8.3834,-8.5339,-8.659,-8.7256,-8.7728,-8.8212,-8.8663,-8.9528,-9.0277,-9.0797,-9.1508,-9.2252,-9.303,-9.3181,-9.3549,-9.4236,-9.458,-9.4919,-9.5143,-9.54,-9.5843,-9.6901,-9.8007,-9.8776,-9.9425,-10.0808,-10.1494,-10.1494,-10.1494,-10.1611,-10.1654,-10.1891,-10.2123,-10.2276,-10.2501,-10.2611,-10.2721,-10.2721,-10.2721,-10.2831]}]]